GFSNGP_sfc_rhum_000.txt.gz
RH
93 93 98 87 80 78 94 74 77 60 68 57 49 41 48 55 57 59 61 67 70 71 71 67 65 58 46 39 36 34 35 35 36 36 35 36 36 35 36 37 37 38 39 42
97 84 86 92 84 81 82 87 87 85 89 38 46 48 57 58 57 57 59 64 67 67 69 67 63 52 40 38 37 36 37 38 40 38 36 38 36 36 36 37 37 39 44 46
100 88 83 94 79 83 92 88 87 97 65 50 52 48 62 66 54 56 57 65 68 67 66 65 58 44 42 38 37 38 40 39 37 37 37 36 34 34 36 38 42 47 48 49
99 94 84 58 58 72 83 78 81 49 52 53 60 76 78 77 67 65 65 71 70 68 67 61 55 46 40 35 37 38 38 36 36 36 35 36 36 37 38 40 46 50 51 51
94 91 70 53 49 63 64 64 54 52 66 67 68 67 75 80 79 79 81 76 71 66 60 53 46 39 36 38 39 37 35 34 34 35 35 37 38 38 38 45 52 53 51 50
94 88 79 58 54 50 52 67 51 58 62 64 65 65 82 84 75 70 65 62 60 54 48 43 41 37 37 39 36 36 34 34 34 36 36 36 37 40 45 53 53 52 47 47
92 96 81 62 56 54 66 60 58 56 55 66 62 70 80 78 74 67 61 57 50 46 44 40 40 38 39 37 36 35 36 36 35 35 35 36 42 48 51 52 51 52 51 52
85 96 93 64 55 55 52 71 72 71 75 85 83 80 79 74 71 67 66 58 50 44 43 45 40 36 36 36 38 38 38 37 36 36 33 38 48 50 53 55 58 60 59 58
85 81 67 74 71 75 61 67 73 75 76 75 78 77 73 75 72 68 59 51 46 44 49 43 40 37 40 40 38 37 36 37 36 36 44 47 53 56 55 60 65 63 57 61
74 73 75 75 73 70 64 68 69 70 71 68 74 70 72 70 68 63 52 47 46 47 46 44 41 40 39 39 37 36 36 37 41 48 54 54 54 52 59 66 68 59 58 61
72 75 75 74 74 69 70 67 68 69 66 67 67 70 69 70 69 64 59 54 52 49 46 42 42 41 39 38 37 37 38 41 46 52 60 59 56 58 59 64 61 60 63 63
78 60 60 62 66 66 65 70 69 70 75 74 67 72 73 75 71 66 65 62 64 57 49 43 42 42 41 40 39 40 40 44 51 59 63 58 61 61 55 53 54 54 55 56
58 67 70 71 69 70 71 71 69 70 70 78 80 76 76 80 81 68 75 74 68 57 52 44 45 45 44 44 43 43 46 48 56 54 57 61 63 66 67 58 54 55 55 56
65 62 70 70 72 69 68 69 69 70 72 73 76 77 80 86 83 83 83 74 63 53 47 45 45 44 45 45 44 48 51 52 62 63 67 68 66 65 65 66 66 61 56 56
75 72 68 70 68 70 66 63 68 73 74 76 76 76 76 81 84 82 72 57 49 49 48 45 44 45 46 46 45 52 56 62 65 68 67 64 63 66 69 67 64 61 56 53
81 72 67 66 67 64 63 63 68 73 73 76 78 79 80 78 71 64 58 53 48 50 48 45 46 47 49 50 55 60 62 57 59 66 65 67 70 70 67 64 60 58 58 58
79 89 84 81 75 70 64 61 65 72 79 78 82 82 73 68 64 61 59 57 53 52 50 51 52 51 52 55 60 62 65 66 62 71 74 74 71 68 66 58 59 60 62 57
70 69 67 61 61 63 69 70 71 73 77 87 87 78 74 67 64 65 57 57 56 56 53 52 52 55 58 57 58 62 68 73 74 78 76 67 62 59 58 59 61 65 64 61
70 67 60 55 58 64 71 77 82 90 91 90 87 88 86 79 71 63 57 54 54 56 58 62 54 58 57 53 60 71 78 79 73 73 66 58 61 58 62 63 64 66 67 67
62 60 64 73 70 68 80 86 89 93 93 90 87 79 76 72 64 59 55 59 58 56 60 62 60 57 56 61 63 76 76 75 70 64 60 59 62 63 62 63 64 67 70 67
67 68 73 76 85 85 85 86 85 90 92 82 76 71 65 62 59 59 60 62 63 65 66 60 62 62 66 69 69 71 72 70 61 64 66 63 64 66 67 70 72 72 73 75
69 68 74 76 77 90 90 88 82 80 76 72 64 59 60 69 71 72 63 64 72 60 63 63 62 58 64 64 67 68 68 68 67 65 68 67 67 71 74 75 79 89 84 88
59 63 67 72 77 82 78 74 71 66 63 60 59 60 60 63 64 63 71 70 69 60 60 62 52 52 62 63 66 68 71 73 74 71 68 72 73 74 82 93 91 90 93 90
62 64 69 69 67 67 72 71 63 64 65 62 66 63 63 67 66 70 67 60 56 56 57 58 57 54 60 73 74 76 78 82 81 79 74 70 74 87 96 96 94 90 88 88
67 73 73 73 73 72 78 78 76 72 64 64 64 66 64 64 59 61 59 56 53 52 54 56 55 59 71 73 75 78 80 80 78 91 92 94 96 97 94 92 92 92 91 91
67 67 70 66 64 64 62 60 65 63 57 59 62 62 61 60 59 58 58 53 58 57 64 66 69 71 73 74 75 75 76 77 75 86 83 95 93 94 94 94 93 92 92 92
81 75 71 70 66 63 64 64 63 66 58 53 55 56 56 57 58 58 53 56 60 66 69 69 70 68 67 69 66 69 71 76 77 81 88 93 95 96 95 93 93 91 91 90

GFSNGP_sfc_rhum_003.txt.gz
RH
92 84 96 94 81 76 75 64 68 55 67 60 52 46 49 57 63 69 74 79 77 77 75 71 64 55 42 38 35 34 34 36 37 37 37 39 39 38 38 40 39 42 44 47
100 95 95 94 91 85 65 65 61 74 68 52 47 51 58 58 61 65 69 73 75 72 72 70 60 48 38 38 37 36 38 40 42 40 40 42 39 38 39 40 42 47 50 50
96 92 95 98 86 84 71 67 70 93 68 52 58 48 60 62 56 59 63 70 73 72 70 68 54 41 39 39 40 39 42 42 40 41 41 40 37 37 38 42 49 52 52 52
99 98 97 74 67 62 68 75 75 79 78 67 59 69 75 73 61 64 66 71 72 73 70 60 50 43 39 38 40 43 42 40 41 40 38 38 38 39 43 47 52 54 52 53
99 95 70 78 90 88 94 88 76 82 76 70 70 70 82 88 76 77 80 74 73 68 62 51 44 38 37 41 42 41 40 39 38 38 39 40 41 44 47 53 55 53 54 54
87 95 76 59 68 59 72 77 69 76 77 71 68 66 81 84 73 74 71 67 64 57 50 44 41 37 38 41 39 39 37 38 38 39 39 41 45 51 53 55 51 52 51 54
90 91 83 66 57 54 83 65 58 63 60 61 63 82 86 71 68 62 60 56 52 49 46 42 41 38 40 40 39 38 39 39 40 39 41 48 52 54 54 56 56 60 58 60
92 95 90 71 64 58 56 77 68 68 77 89 86 77 73 68 65 60 58 52 46 45 44 44 41 37 40 39 41 41 41 41 41 43 43 45 54 56 57 61 66 68 69 68
76 79 68 73 73 76 66 71 82 79 81 78 78 76 72 72 64 58 53 49 45 45 45 44 42 38 42 43 42 41 40 41 44 52 50 52 58 59 60 68 73 71 64 68
78 75 77 74 76 75 70 76 80 78 76 70 77 74 74 69 61 55 51 50 48 45 45 46 44 43 42 42 39 39 41 45 50 54 61 60 55 53 65 73 76 65 64 66
79 77 74 71 77 75 76 74 73 73 70 70 70 72 69 68 60 55 52 52 49 48 48 48 46 44 42 40 39 39 43 44 53 57 65 62 58 62 63 69 69 65 70 68
83 66 60 68 72 73 72 75 71 69 68 66 62 66 67 66 60 55 56 57 54 50 47 48 46 45 43 42 40 41 41 44 58 62 64 60 65 67 55 55 56 56 56 57
69 73 77 78 72 72 75 75 70 72 67 74 73 66 67 70 71 60 64 62 55 50 48 48 48 47 47 45 43 43 48 54 60 54 60 65 67 69 71 60 58 56 56 58
74 68 72 78 76 76 74 75 74 76 76 74 78 76 76 80 77 74 73 69 59 50 48 49 48 49 49 46 45 51 55 54 64 66 70 71 70 69 71 71 71 63 57 57
81 78 70 75 75 76 71 68 73 78 79 81 80 81 79 82 86 85 72 56 50 50 50 48 48 49 48 47 46 56 58 64 68 71 70 70 70 71 72 71 68 63 58 56
82 77 73 73 74 72 70 70 74 77 76 76 80 82 83 80 73 62 55 52 48 50 50 49 47 49 50 52 59 61 61 58 63 72 73 74 74 71 70 64 62 62 62 63
79 89 86 85 79 73 69 63 60 65 74 74 83 77 69 64 61 60 59 55 52 51 49 50 51 52 54 58 60 63 67 69 62 75 78 76 70 69 63 61 64 65 66 61
71 70 70 64 64 66 72 72 72 68 70 74 74 69 67 63 63 64 62 58 58 58 54 52 53 56 59 58 60 66 73 75 74 77 75 65 64 61 61 64 65 70 69 66
69 67 64 60 60 65 72 78 82 83 79 76 73 74 74 69 64 59 57 56 55 56 59 62 55 59 56 58 68 77 76 75 70 69 64 60 64 63 66 67 69 70 71 68
66 63 63 72 71 68 81 87 88 90 88 83 85 83 78 73 59 58 54 56 58 55 63 67 59 57 59 66 68 70 71 71 65 62 63 62 66 67 66 67 66 69 71 69
70 70 74 75 84 85 87 87 86 90 90 81 77 77 72 66 61 59 60 64 68 66 68 62 62 64 68 72 65 69 71 69 63 68 71 68 68 70 71 74 74 72 73 76
75 74 81 80 81 92 91 90 88 86 80 72 66 62 61 68 70 72 66 65 75 61 62 63 64 59 70 60 66 68 70 73 71 68 72 73 72 76 76 76 82 89 87 90
68 69 68 70 77 85 81 80 79 74 69 64 60 60 60 64 65 67 76 75 70 59 60 65 55 56 66 65 67 70 75 79 80 75 71 77 76 76 84 94 91 90 93 91
68 69 74 71 71 72 76 71 66 66 65 62 64 62 63 68 72 76 69 63 56 57 64 63 60 59 60 75 77 80 83 85 83 80 77 73 78 89 96 93 94 92 90 91
69 76 76 77 77 77 81 79 75 71 64 66 66 65 62 61 60 63 63 65 54 55 60 59 59 62 73 77 79 83 80 78 79 94 94 95 97 97 95 95 95 94 92 92
68 68 71 66 68 65 62 59 63 61 59 62 63 61 61 61 57 59 58 58 63 61 67 69 72 75 76 74 75 72 75 78 78 88 87 95 96 96 96 95 95 94 93 94
73 69 67 67 62 60 61 58 58 61 56 52 54 56 57 59 57 59 56 60 64 70 72 71 70 67 70 73 71 73 76 80 81 85 93 96 96 97 96 95 94 93 93 92

GFSNGP_sfc_rhum_006.txt.gz
RH
93 79 99 98 96 88 94 79 78 56 52 50 52 62 61 71 84 87 85 81 75 76 75 67 57 50 42 37 35 32 33 35 38 40 41 42 42 42 42 42 44 48 48 49
99 96 97 99 95 96 95 75 67 59 58 48 60 52 57 61 74 80 81 78 75 72 71 64 54 46 39 38 38 35 36 41 45 45 45 45 42 42 41 45 48 50 51 52
95 95 96 99 90 80 78 80 63 74 59 47 62 63 60 63 66 70 77 80 76 73 70 63 50 41 40 39 38 39 42 44 45 46 44 43 40 39 43 48 52 54 54 54
98 100 98 81 78 70 73 71 65 54 70 67 78 70 78 77 68 68 73 77 77 75 69 55 46 42 40 38 41 44 45 44 45 44 42 41 40 43 48 52 55 56 55 56
99 99 83 83 84 79 81 78 62 62 58 66 73 76 80 77 76 75 78 76 76 70 60 49 43 39 39 43 44 43 44 44 43 43 42 42 45 50 54 56 57 58 55 57
93 98 81 64 89 83 76 92 69 68 68 78 70 76 78 81 77 79 76 73 69 59 50 44 40 38 40 43 41 43 43 42 41 41 42 47 52 54 56 57 53 53 54 60
89 86 84 70 70 78 90 70 68 69 70 78 75 81 83 70 67 66 67 63 57 51 48 43 39 38 41 42 42 44 42 42 42 44 51 53 56 58 59 61 60 66 64 68
92 96 81 73 69 81 65 71 73 76 78 87 85 76 72 66 65 64 66 56 50 47 45 44 40 38 42 43 46 44 44 44 48 52 44 49 57 61 62 68 72 74 76 72
83 77 67 75 72 72 69 71 82 80 84 78 79 77 69 67 60 56 54 52 47 45 44 45 45 40 42 48 44 43 44 48 56 53 53 55 60 62 64 74 76 75 67 72
80 76 79 75 78 79 78 84 86 82 76 70 77 74 67 60 56 54 52 49 45 44 45 48 46 43 44 44 42 42 47 52 54 67 61 62 55 54 69 75 78 67 69 70
82 76 71 73 78 82 85 82 78 77 73 71 68 68 63 61 58 55 52 51 48 47 49 49 44 44 43 42 40 43 46 48 59 61 65 64 59 65 63 74 74 69 72 70
84 72 67 71 78 78 80 81 73 72 73 69 65 67 62 62 57 54 54 52 51 50 48 48 45 46 44 42 42 42 44 50 66 60 66 62 67 69 60 56 56 56 55 57
73 77 81 82 77 81 80 78 72 71 66 68 63 59 58 60 58 57 54 51 50 50 49 47 47 48 47 45 42 44 52 58 60 55 61 66 69 72 74 60 56 53 55 57
80 73 76 79 76 78 76 79 78 78 72 68 69 65 64 68 63 60 59 56 48 47 49 49 50 51 49 48 47 54 66 60 65 68 71 72 74 74 73 74 72 64 57 59
84 82 73 81 82 82 77 71 74 77 76 79 76 76 72 72 73 75 61 49 46 52 53 52 52 53 50 48 49 58 62 65 71 74 73 74 75 71 72 72 68 65 61 58
86 81 79 79 83 79 73 70 72 78 80 82 81 81 82 75 68 63 57 52 49 52 52 51 50 51 52 56 61 61 61 59 64 76 75 77 75 70 71 66 66 67 65 67
82 92 90 89 84 78 72 67 68 72 77 78 83 76 68 62 60 60 59 55 52 52 50 49 52 52 56 60 61 64 69 70 60 75 78 76 68 69 67 66 69 69 70 65
72 71 70 68 73 72 72 72 72 71 76 75 70 66 64 62 61 64 60 57 56 57 52 52 55 59 60 60 62 68 76 73 72 75 72 63 64 64 64 68 69 73 72 69
73 72 70 66 63 65 70 71 75 74 70 68 66 69 68 66 64 62 59 56 56 56 60 60 59 60 59 64 71 77 72 71 67 66 62 62 69 66 70 72 72 74 74 70
74 70 67 74 72 68 78 78 73 71 71 70 70 67 68 66 61 59 56 59 59 56 68 70 59 59 65 74 67 68 69 68 63 64 67 65 69 70 69 70 69 72 73 70
75 74 77 78 85 83 82 78 73 77 79 72 69 68 65 64 61 59 58 60 71 69 71 63 64 70 75 71 64 68 71 72 67 72 75 71 72 74 75 77 75 74 75 77
83 80 84 83 85 92 88 83 79 79 77 74 69 64 62 68 71 74 69 66 76 65 64 66 66 64 74 60 67 69 72 76 76 72 74 75 76 79 80 78 83 89 88 90
76 75 77 80 83 89 85 83 77 72 70 67 64 61 60 63 68 67 78 76 68 60 64 69 59 65 62 67 69 72 79 83 83 77 72 78 80 78 87 95 92 92 94 93
75 76 78 77 74 75 83 76 68 66 63 61 64 61 61 68 77 77 69 64 58 65 69 67 64 62 61 77 79 84 87 86 83 81 80 77 80 91 96 95 95 93 93 92
74 78 78 77 79 80 83 80 76 72 66 67 66 66 63 61 67 71 70 64 57 59 65 59 59 64 75 78 79 85 80 79 80 95 96 96 98 98 97 96 96 95 93 93
72 70 71 67 70 70 64 60 64 63 60 64 64 62 63 59 59 64 62 63 67 63 69 71 73 74 74 74 78 75 78 81 82 90 90 97 97 97 96 95 96 95 94 95
75 69 67 68 63 61 61 60 59 62 56 54 57 56 55 58 59 62 61 65 68 72 70 68 66 67 73 79 78 78 80 84 84 88 97 97 97 97 96 95 96 95 94 93

GFSNGP_sfc_rhum_009.txt.gz
RH
90 78 92 99 96 94 98 82 82 56 56 46 40 47 58 59 55 74 85 81 75 72 63 54 48 42 37 34 31 29 30 31 33 32 33 34 35 34 35 36 37 37 36 37
97 92 97 99 96 94 88 81 73 64 65 45 42 47 68 80 63 68 85 79 73 68 58 52 49 42 37 34 32 30 32 36 40 38 37 38 36 36 39 40 39 38 39 38
92 74 99 99 93 94 91 81 79 86 64 52 56 76 83 71 65 70 83 76 72 64 56 48 41 35 34 33 32 34 36 37 39 38 38 37 35 37 40 40 39 40 38 39
98 98 98 94 76 73 77 67 70 66 57 52 64 68 68 66 72 72 79 74 70 64 54 44 38 36 34 33 36 38 38 39 38 37 36 36 37 39 40 40 40 39 40 41
99 99 91 64 71 81 80 78 61 71 64 54 68 68 66 73 72 71 77 72 69 58 48 41 37 34 36 38 38 38 39 38 37 36 36 38 40 41 41 40 40 42 41 45
99 98 95 60 79 68 78 81 63 60 62 63 72 81 75 74 77 81 77 70 62 51 43 39 37 35 36 38 37 40 38 38 36 35 38 41 42 41 43 42 42 42 45 48
97 96 81 68 66 77 82 72 68 70 64 79 78 76 74 69 70 69 68 61 52 46 42 38 36 35 38 38 39 39 37 36 38 41 42 42 42 43 44 46 47 49 51 51
88 95 83 71 84 88 68 68 69 78 80 82 79 73 70 68 68 64 63 55 46 44 41 38 36 37 39 41 40 38 38 42 44 42 38 42 43 46 48 51 51 53 57 53
84 76 64 69 67 66 70 72 74 80 81 73 75 73 67 65 60 57 54 50 44 42 43 42 38 36 39 41 37 38 42 45 44 44 44 44 45 49 48 54 56 58 57 57
81 75 76 75 69 75 81 80 81 80 74 72 73 65 62 59 57 53 50 47 43 42 43 42 38 37 38 38 37 40 46 50 50 46 49 48 45 46 53 57 60 57 58 58
84 76 76 74 78 80 85 83 80 75 72 70 66 65 60 59 55 51 49 46 45 45 44 43 39 39 37 37 37 39 42 45 48 50 50 49 49 54 54 56 57 55 56 55
81 71 70 70 78 80 81 83 78 73 72 66 61 62 58 58 53 51 50 49 48 45 43 42 40 40 39 39 36 37 44 52 51 50 52 50 54 53 56 52 55 53 54 54
73 77 77 82 78 80 81 80 75 74 68 66 58 55 55 56 53 55 48 48 47 46 44 42 42 42 42 40 38 42 50 51 53 50 50 53 59 59 58 51 53 51 54 57
74 74 77 79 76 77 75 77 74 72 66 61 58 54 55 57 52 50 51 49 45 44 45 44 43 45 44 44 49 62 61 58 55 56 56 60 64 62 57 58 55 50 53 58
80 82 77 83 82 82 75 71 74 74 71 70 64 61 56 58 57 55 48 44 44 47 48 46 46 48 46 48 49 55 54 60 62 62 62 63 62 57 56 56 52 53 52 54
86 84 83 82 83 78 73 72 72 74 71 70 69 68 69 63 57 53 49 47 47 49 49 48 47 49 52 53 54 53 57 60 62 63 62 63 60 54 58 53 54 55 56 58
85 95 92 92 87 78 73 66 66 68 72 73 76 69 64 60 57 54 56 52 50 50 49 48 51 52 56 55 56 58 62 59 58 60 62 60 52 59 56 54 57 58 60 60
73 71 71 68 73 71 72 72 73 73 75 74 68 64 62 57 57 58 55 52 53 54 52 52 55 58 57 58 60 65 62 59 59 61 56 54 57 55 54 59 61 65 64 63
73 72 72 70 67 67 72 75 76 74 71 67 64 66 62 59 56 55 54 52 52 54 58 63 62 62 67 67 69 62 58 58 56 54 55 59 59 57 61 63 65 65 64 65
77 76 72 76 73 68 74 72 69 70 69 66 63 62 64 61 56 55 53 56 54 54 70 64 56 60 69 73 63 59 59 58 56 58 61 58 60 63 62 68 65 65 65 65
78 78 80 79 83 79 74 70 64 66 66 62 60 61 62 61 58 55 54 61 70 72 68 62 63 69 76 66 60 60 62 62 60 65 67 63 64 68 69 70 69 68 69 71
85 85 87 84 81 87 82 74 67 68 67 65 61 58 58 64 68 72 66 63 74 69 65 64 67 71 70 60 61 62 65 69 69 64 64 65 69 74 74 72 77 83 83 85
81 81 81 80 79 85 77 73 70 67 66 62 59 58 58 61 62 63 78 75 67 62 65 67 66 71 63 62 63 67 72 75 71 67 66 72 75 74 80 89 89 87 89 88
82 81 86 83 76 73 79 76 72 68 66 63 63 59 61 69 80 78 67 64 61 68 69 68 67 63 62 70 71 76 78 74 72 72 73 78 76 84 91 90 91 88 87 89
83 85 84 79 75 79 81 81 78 74 68 68 67 67 65 67 72 73 67 67 67 67 70 60 60 64 69 69 70 76 73 71 73 87 86 90 93 94 92 90 91 91 91 88
81 74 73 70 72 70 68 64 67 66 62 66 68 67 68 67 65 64 65 66 68 63 65 67 67 68 68 71 76 74 73 75 78 83 85 91 93 92 91 90 90 90 91 92
79 71 70 70 66 65 64 63 63 65 60 58 64 62 59 59 62 65 64 65 66 64 62 60 59 65 72 76 76 76 77 80 83 85 90 93 92 94 90 90 92 91 91 90

GFSNGP_sfc_rhum_012.txt.gz
RH
75 66 79 90 85 92 100 78 79 54 45 37 32 32 30 31 38 54 48 50 60 61 58 59 57 48 46 43 37 33 30 29 27 25 24 25 25 25 25 26 27 27 27 27
98 79 78 98 87 93 96 92 68 58 59 42 40 45 52 56 71 63 55 51 61 59 57 58 49 44 44 38 39 31 28 30 30 29 28 29 28 28 30 31 29 29 29 28
91 62 72 96 94 94 94 90 74 80 59 47 77 82 84 85 69 60 54 63 61 57 55 50 43 41 45 42 34 28 29 29 29 29 31 30 28 29 32 31 30 29 28 28
98 91 97 83 78 81 82 78 70 61 53 52 58 68 74 62 59 58 65 64 58 54 49 41 40 39 34 28 28 29 30 30 29 29 29 28 28 30 30 28 28 28 29 29
99 97 68 67 74 84 76 63 52 60 54 51 54 58 54 62 62 60 62 57 54 48 38 33 31 28 28 28 29 30 31 30 29 28 29 30 31 30 29 28 28 28 30 31
99 98 90 64 53 60 58 64 51 56 54 56 60 64 63 63 68 67 65 58 48 40 33 30 28 27 29 30 29 31 30 29 27 26 30 31 32 29 31 29 31 30 32 31
96 93 64 53 53 68 63 55 53 58 51 50 58 58 64 63 68 64 56 50 41 35 33 31 28 28 30 31 32 30 28 27 28 29 29 29 29 29 30 30 31 29 31 30
77 76 80 51 58 57 52 52 54 61 71 64 61 63 64 63 63 60 56 48 40 37 35 31 29 30 32 33 30 28 29 31 31 29 28 28 30 31 32 31 30 30 31 30
58 52 46 49 51 47 54 56 56 60 65 62 65 65 62 62 57 53 48 44 38 36 35 31 30 31 35 32 29 30 32 33 32 30 31 31 31 34 32 32 32 34 35 34
64 49 53 50 49 52 59 60 61 63 60 56 60 59 58 56 53 48 45 42 38 36 36 34 30 30 30 29 29 30 32 32 31 31 32 32 34 33 32 33 35 36 36 37
61 52 49 50 51 56 63 61 61 58 56 56 56 56 54 52 49 46 43 40 38 39 38 36 31 30 28 29 30 32 33 33 33 34 33 33 35 36 36 35 42 42 39 39
46 51 49 49 56 60 61 62 59 59 59 55 54 54 50 49 44 43 42 41 41 39 36 33 31 31 30 28 28 29 30 32 34 35 35 35 34 33 49 49 52 51 52 51
47 51 54 58 58 58 61 63 57 56 55 56 51 50 47 46 43 48 40 40 40 39 36 32 31 31 30 28 27 30 34 36 40 37 34 35 38 37 34 30 40 43 50 54
55 54 59 60 55 59 60 61 59 52 50 49 49 46 46 48 45 43 42 40 37 34 33 31 30 30 28 30 33 36 41 50 37 37 36 39 40 38 33 35 35 30 34 45
56 58 60 59 61 64 61 58 58 57 53 52 49 49 46 46 46 45 40 36 36 35 34 32 31 32 32 35 37 37 40 42 41 38 40 41 38 34 34 37 33 32 33 38
68 65 65 63 65 66 63 60 59 58 54 53 50 48 46 44 43 42 40 38 38 38 35 33 33 34 36 37 39 42 48 57 48 35 36 36 35 34 38 35 34 34 37 40
75 94 99 98 89 68 65 56 54 55 53 51 54 49 45 44 44 43 41 38 37 37 35 36 39 40 42 40 39 41 40 40 50 35 34 35 34 40 38 35 37 39 42 43
56 58 60 59 62 62 60 57 57 54 54 54 51 46 45 43 44 44 42 40 39 38 39 38 41 43 43 45 45 44 38 36 37 37 36 36 40 38 37 41 43 46 46 47
57 59 58 60 57 57 60 59 57 58 56 53 50 48 45 44 44 42 39 39 39 39 42 42 59 50 49 58 48 41 36 35 36 35 38 46 39 38 43 45 47 48 49 49
67 66 63 66 66 60 63 61 58 56 54 52 50 49 48 46 43 41 39 40 38 37 47 49 46 53 62 58 52 39 37 37 37 38 41 43 40 44 46 53 53 51 51 50
69 69 75 73 72 69 67 64 57 58 56 50 49 49 48 44 42 43 44 44 54 54 45 52 47 53 56 53 42 38 39 38 40 42 44 44 46 48 51 52 54 55 56 55
74 74 75 74 65 70 70 63 55 55 52 50 49 48 48 51 52 54 45 46 55 62 50 50 54 63 56 51 39 40 42 44 44 43 46 48 51 55 56 57 62 72 70 70
68 68 67 66 65 66 59 55 54 53 52 50 49 49 48 49 47 50 60 62 54 56 48 56 69 66 58 41 42 43 45 47 46 46 49 54 59 59 64 74 76 75 78 76
71 67 68 66 61 60 65 60 56 52 50 49 50 50 52 55 60 55 56 60 61 60 55 57 64 64 53 42 42 45 49 48 49 52 56 68 62 69 76 75 78 76 75 76
75 81 79 74 68 65 73 72 70 64 55 55 54 54 54 52 53 56 55 58 66 58 55 61 63 60 42 43 46 51 51 51 54 66 62 73 78 81 78 78 79 78 80 77
76 72 67 62 62 63 61 56 58 55 53 55 56 57 57 55 56 54 51 52 46 50 42 43 44 46 45 48 54 53 52 54 58 62 72 74 78 80 78 77 77 77 78 81
78 71 66 66 60 58 57 57 56 57 52 50 58 58 56 53 52 51 54 45 42 39 37 37 38 48 51 55 55 54 57 59 69 72 73 76 78 81 79 78 79 79 79 79

GFSNGP_sfc_rhum_015.txt.gz
RH
64 58 68 76 72 71 99 93 98 64 55 42 38 40 49 40 34 30 35 45 44 53 51 53 62 55 51 54 44 39 40 42 37 32 28 27 27 26 26 27 26 26 26 26
95 67 68 84 63 72 95 93 94 94 92 58 45 53 51 56 56 65 59 53 46 54 54 64 54 49 48 45 40 39 41 41 35 30 30 31 29 30 31 30 29 28 28 27
85 54 62 84 94 95 94 86 91 96 78 54 59 73 78 75 68 77 71 56 54 56 56 52 48 45 43 43 44 49 48 41 36 31 32 33 32 31 33 31 29 29 27 27
100 83 93 68 64 74 84 66 55 56 58 58 54 66 78 79 75 66 58 62 58 54 51 45 45 49 46 54 45 46 45 37 33 33 34 33 32 32 30 28 28 27 27 27
99 80 58 64 57 76 90 73 48 62 65 48 46 65 81 76 70 61 63 56 51 44 47 53 59 65 74 81 73 51 42 35 34 32 32 33 33 30 28 27 27 27 29 30
96 98 81 60 46 52 57 65 48 52 56 56 58 68 79 77 83 72 59 52 44 43 45 50 50 43 44 51 47 44 43 30 28 29 32 33 32 29 29 28 30 31 32 29
96 96 66 48 46 52 68 56 51 58 52 49 59 66 64 63 62 60 62 69 68 62 65 54 38 39 33 31 31 29 28 29 30 30 30 28 28 28 27 30 34 29 31 27
80 95 82 42 44 59 50 47 46 48 77 60 61 64 64 63 60 53 49 40 34 33 31 28 28 30 32 32 29 29 31 32 31 29 26 26 29 29 31 30 30 28 27 28
52 50 38 40 45 42 46 50 47 52 58 56 64 66 62 68 57 49 42 38 34 34 33 31 30 31 33 31 31 32 32 32 31 29 29 30 31 34 35 31 30 31 34 34
56 41 42 40 40 45 49 52 52 54 55 52 57 57 57 55 51 47 44 39 36 35 35 35 31 30 32 33 32 31 32 32 31 30 30 32 37 34 32 32 33 35 35 36
52 45 40 44 46 49 53 52 55 56 51 52 54 54 53 52 49 45 42 39 37 38 39 36 32 32 31 31 30 33 32 33 34 34 31 33 34 34 36 32 41 42 41 41
46 44 45 45 49 50 52 54 53 52 54 52 53 53 49 48 44 42 41 40 41 41 37 34 32 32 31 31 31 31 32 33 35 36 36 36 34 34 49 46 47 51 51 51
41 44 46 50 52 50 52 53 51 52 52 54 49 47 51 46 42 46 39 39 40 40 38 33 33 33 30 30 30 31 32 35 40 38 34 34 36 34 33 38 46 43 39 42
43 47 52 53 51 53 53 53 53 49 48 49 50 45 45 46 43 41 41 39 36 34 33 32 31 30 28 29 33 34 38 43 37 37 35 36 36 34 31 31 33 30 31 37
48 48 52 51 53 57 55 51 53 52 50 49 46 48 44 46 46 44 38 36 36 35 34 31 31 33 34 34 40 38 39 41 39 36 39 38 34 32 30 33 32 30 32 34
56 54 56 57 58 59 56 53 53 53 50 49 47 46 44 44 42 41 39 38 39 39 36 32 35 34 35 37 41 45 51 54 42 32 32 32 31 30 33 32 31 32 35 38
73 92 100 100 85 61 59 51 50 51 49 47 47 44 44 44 44 42 40 38 38 38 37 40 42 40 42 40 39 40 39 41 44 31 32 32 32 35 35 33 36 39 41 41
51 51 58 56 58 58 56 52 51 49 49 47 44 42 42 42 44 44 42 40 39 39 41 41 43 43 44 46 45 40 35 34 33 34 33 32 36 38 35 38 41 43 44 44
52 53 54 54 52 54 54 54 51 48 49 45 43 42 41 42 43 43 41 40 40 41 40 42 54 48 49 54 43 37 32 31 32 31 34 38 36 35 39 41 45 47 48 46
60 59 57 60 60 56 56 52 50 48 46 44 44 45 45 44 43 42 40 40 38 37 40 52 51 55 56 55 44 35 32 33 32 32 36 42 38 41 44 48 48 48 49 48
64 64 72 70 67 63 60 56 48 49 51 48 46 47 47 44 40 41 45 46 47 46 44 50 47 53 53 50 38 34 34 33 34 37 40 41 42 44 47 49 50 51 55 57
71 73 72 72 64 67 65 58 51 52 50 48 47 46 46 48 49 50 42 50 52 55 47 47 51 56 56 43 36 36 37 37 38 39 42 44 46 51 54 55 60 73 73 77
63 64 64 62 64 62 56 52 50 49 49 48 47 47 46 49 48 51 57 54 54 52 46 54 68 66 50 37 38 37 38 40 41 42 44 48 53 57 64 77 78 79 82 81
64 62 63 59 57 55 57 54 53 49 48 47 47 46 48 52 53 51 54 57 58 55 56 70 67 60 42 37 37 39 43 45 46 48 51 61 62 72 80 79 82 80 80 79
69 77 75 71 67 63 68 67 65 59 51 51 50 49 48 50 52 53 53 57 63 56 60 66 65 51 37 38 40 46 48 48 50 68 67 76 81 84 83 82 83 82 83 83
75 69 66 61 58 61 60 53 54 52 51 54 55 55 56 56 55 57 58 60 51 50 42 40 40 40 40 42 49 50 49 51 55 61 71 77 81 84 83 82 82 82 83 85
77 66 62 62 58 55 53 53 53 55 51 52 58 57 57 54 51 49 50 43 38 34 34 34 35 42 47 52 53 51 53 55 65 73 77 82 83 86 84 84 85 85 85 84

GFSNGP_sfc_rhum_018.txt.gz
RH
77 65 68 74 75 72 95 94 98 80 79 66 61 67 66 57 56 52 69 62 58 60 63 70 80 80 74 57 52 48 42 39 36 34 33 31 29 29 30 31 35 35 34 34
90 76 76 84 72 71 75 94 96 95 94 68 63 62 63 66 69 74 73 68 63 56 71 69 64 59 61 56 51 50 43 38 36 34 36 35 34 35 35 38 39 35 34 35
92 67 74 89 78 85 84 78 87 98 85 77 66 68 73 79 75 72 71 70 67 60 67 54 50 49 52 50 47 46 46 47 49 56 62 53 40 40 40 38 36 35 34 33
98 92 95 78 69 69 80 77 71 60 75 78 76 75 84 82 80 71 72 65 62 56 52 51 46 51 54 54 57 65 67 70 74 80 70 48 38 36 35 36 36 36 34 33
100 97 69 69 72 70 88 82 62 61 62 59 73 88 87 84 73 72 66 54 51 51 54 54 60 57 58 66 73 72 79 86 80 65 58 45 40 38 35 34 34 34 36 36
98 98 92 63 57 64 66 95 59 69 72 61 63 82 92 94 76 57 47 48 58 59 69 74 79 79 81 79 84 82 79 69 60 52 38 39 36 38 36 34 36 38 39 39
97 98 80 53 53 57 94 74 64 61 83 71 80 82 74 80 92 81 75 74 71 70 78 79 86 85 89 90 93 93 82 47 39 37 34 33 33 33 39 44 42 41 38 37
91 98 94 55 59 77 68 64 61 64 79 74 74 74 70 74 65 86 92 88 85 89 90 88 87 74 47 36 36 36 36 35 34 31 28 32 40 42 41 42 40 39 40 44
71 72 51 55 57 60 60 65 65 69 69 72 73 74 73 69 52 46 42 40 38 41 43 42 39 37 40 39 36 34 33 34 37 37 38 41 45 46 46 42 45 46 46 51
66 57 59 58 56 59 63 68 65 68 66 64 70 69 66 59 54 47 42 43 40 39 38 38 37 38 37 35 33 34 38 40 41 43 45 45 48 48 49 49 52 50 51 56
70 61 64 61 64 63 63 64 67 60 61 64 63 63 59 56 53 48 47 44 40 40 42 40 36 38 34 34 34 37 42 47 48 47 47 49 50 55 51 61 59 65 67 64
76 60 62 70 66 62 63 65 62 64 67 63 60 58 55 53 50 48 46 44 43 42 39 38 37 38 40 39 38 38 44 51 56 56 53 52 52 52 44 44 41 46 48 53
53 60 60 63 62 62 62 62 61 64 63 62 58 54 54 50 48 50 46 47 45 43 41 36 37 39 40 41 42 45 54 56 56 51 52 53 51 49 48 46 42 46 39 36
59 62 68 65 68 63 62 60 59 58 56 57 56 51 50 50 47 46 46 43 38 37 37 37 37 41 43 46 53 56 57 52 56 55 54 54 50 48 45 44 47 46 38 38
62 63 65 64 65 65 60 58 61 62 58 56 53 52 50 52 49 45 42 41 40 40 40 42 47 50 49 51 55 57 59 59 56 56 60 50 47 43 43 45 45 43 45 44
72 68 68 69 70 66 61 60 60 59 58 56 53 53 51 48 47 46 46 45 44 48 50 46 53 52 52 56 65 70 70 53 45 46 45 44 43 42 47 45 44 48 51 53
84 91 92 91 85 72 66 57 55 56 55 55 55 50 50 51 50 52 50 48 49 52 54 57 59 56 54 54 57 61 64 58 40 44 44 44 44 48 48 47 50 54 56 50
69 68 74 72 71 70 66 59 57 54 54 51 50 48 49 48 51 52 52 50 52 56 57 58 58 58 60 60 57 53 50 48 45 46 44 43 51 53 47 50 54 56 59 52
66 66 67 64 64 65 64 60 56 54 51 48 48 50 50 50 50 51 54 53 54 57 60 59 60 64 68 56 53 49 45 43 41 41 43 45 50 48 52 55 58 60 60 53
68 67 66 70 67 61 61 56 53 50 48 47 49 51 53 52 53 53 54 52 53 54 63 65 67 73 70 59 47 48 45 44 42 43 46 53 52 54 56 53 54 55 60 57
75 77 80 81 74 70 66 66 52 51 53 50 52 53 54 56 54 53 53 55 59 62 65 64 73 74 70 58 48 49 48 48 46 50 52 53 55 56 59 63 61 58 63 68
81 81 80 78 74 74 69 61 52 54 53 55 53 52 52 58 59 62 60 63 69 62 63 69 71 64 65 44 49 49 50 51 52 51 56 58 60 64 69 70 74 92 89 94
70 72 72 72 71 68 61 56 54 53 54 52 52 53 52 55 56 62 70 68 69 59 68 78 71 62 46 50 49 49 52 55 57 57 59 63 66 73 82 95 96 96 96 95
72 70 72 69 63 59 62 62 61 56 54 52 52 52 53 59 72 70 65 64 60 64 84 82 71 51 42 50 51 54 59 63 65 66 67 68 80 90 97 96 96 96 95 92
85 90 90 86 83 77 75 74 68 62 56 56 56 58 60 62 69 72 68 66 63 78 86 72 62 46 49 52 54 61 66 66 68 92 95 95 96 96 96 96 96 95 95 96
88 87 82 76 74 72 67 59 59 57 56 60 63 63 64 61 62 69 70 69 69 69 71 64 55 52 52 56 63 67 66 68 76 87 88 96 96 96 96 96 96 95 94 95
93 75 80 80 75 64 62 58 57 59 57 60 69 68 67 67 67 65 61 55 48 46 46 46 46 52 60 66 70 67 69 74 74 91 96 96 96 96 95 96 96 96 95 94

GFSNGP_sfc_rhum_021.txt.gz
RH
82 77 81 80 78 75 86 80 97 69 71 66 62 69 68 64 64 66 73 77 75 75 75 92 95 86 77 80 79 71 59 54 50 43 42 40 42 40 39 41 36 33 32 34
98 77 82 92 78 72 73 71 77 80 83 64 64 73 69 64 66 69 68 72 74 73 82 80 85 84 80 77 68 73 52 50 43 44 45 50 50 49 50 36 34 34 35 39
97 76 86 94 81 70 79 81 82 97 78 65 76 85 93 92 86 82 72 68 71 78 64 66 75 87 94 85 62 44 44 44 49 55 63 67 59 53 48 44 37 36 36 36
99 91 93 79 76 73 85 74 76 78 66 58 63 86 86 86 68 83 71 67 64 59 55 59 63 76 72 77 68 68 70 70 72 76 79 77 80 83 76 63 57 52 37 39
99 96 77 68 78 82 89 76 72 70 73 77 70 86 89 84 62 65 59 56 58 58 62 62 65 70 75 79 80 83 85 89 89 88 90 90 90 87 80 72 48 38 42 39
98 99 96 66 70 72 75 89 66 70 82 81 75 85 87 90 68 66 64 67 70 72 74 72 72 75 81 88 92 94 91 92 91 87 83 76 66 48 39 40 39 40 42 43
98 97 84 63 59 70 93 73 75 70 85 76 82 86 80 86 84 79 79 74 76 82 90 91 88 86 91 90 94 92 91 89 84 67 52 47 40 38 38 40 42 43 42 44
97 99 94 55 69 79 63 76 72 78 77 82 84 79 82 86 89 90 88 86 86 92 96 95 91 88 93 96 94 89 84 66 46 36 30 32 37 43 45 45 45 46 47 50
80 77 55 60 58 70 67 70 75 81 74 75 83 81 71 61 65 86 85 85 87 89 89 83 72 58 55 42 37 35 35 36 36 36 41 45 48 48 51 48 54 51 51 56
69 62 64 66 71 70 71 74 71 79 75 70 81 67 62 56 52 50 47 46 46 44 45 42 39 37 37 35 34 34 36 42 48 49 50 50 53 52 54 56 60 55 57 63
81 67 71 71 76 76 72 74 68 69 69 71 73 67 58 58 56 50 48 42 40 42 43 41 38 37 35 35 34 41 48 53 55 54 52 55 56 56 59 63 54 59 70 66
84 60 67 72 77 70 72 74 68 70 70 70 65 61 58 57 50 50 46 43 44 44 42 41 39 40 39 40 43 45 52 55 60 59 58 56 55 54 47 46 43 45 46 51
59 61 66 73 68 68 68 69 67 68 67 68 62 56 55 53 51 54 53 53 60 52 44 40 40 41 44 45 50 54 61 60 62 54 56 56 54 50 48 45 44 42 38 38
66 65 71 71 72 68 66 67 63 62 62 60 59 53 52 53 51 50 48 47 43 38 38 39 43 49 52 53 56 60 63 55 59 60 60 58 52 48 46 46 49 46 42 42
72 72 70 71 72 70 66 61 62 62 59 59 57 55 52 53 49 46 42 42 41 43 47 46 51 58 57 57 58 60 60 60 62 61 58 52 47 44 46 47 45 46 49 48
77 74 76 76 76 71 68 65 62 61 60 58 57 55 53 51 50 47 45 43 45 50 57 53 58 59 62 67 72 71 63 51 51 49 47 45 45 46 50 47 48 53 56 57
83 86 89 89 87 76 71 62 58 58 57 65 55 52 50 52 51 51 52 51 52 55 58 60 63 61 62 64 66 67 59 54 47 48 46 45 47 53 51 51 55 59 60 54
78 80 74 75 78 76 72 64 59 64 65 54 51 49 49 48 52 56 54 55 57 60 60 60 61 64 62 58 55 54 52 49 47 47 45 46 53 54 50 53 58 62 64 56
71 79 74 73 73 70 68 64 60 55 54 51 50 50 51 53 52 53 54 55 58 61 64 65 64 66 62 56 52 50 48 45 43 43 46 48 54 52 56 59 62 64 64 58
74 73 68 75 73 65 63 60 57 60 59 49 52 54 54 54 54 56 56 57 59 60 68 72 72 69 63 55 50 50 47 46 44 47 50 55 55 60 60 58 59 60 64 64
80 80 83 82 80 74 65 59 60 71 63 50 52 54 56 55 53 57 58 58 61 65 72 72 76 73 67 54 51 51 50 50 48 54 56 57 59 61 65 70 68 65 72 74
82 82 83 88 85 92 87 79 69 54 53 55 56 56 56 61 61 67 62 60 73 66 73 78 76 67 60 50 52 52 53 54 56 56 60 62 64 68 74 76 79 91 92 96
72 73 72 74 75 72 63 57 54 53 56 56 55 54 53 54 55 59 67 71 74 66 75 78 69 58 50 53 51 51 55 59 62 63 63 68 73 79 87 96 96 97 97 96
79 74 75 73 65 62 64 64 64 60 58 55 55 52 54 58 68 67 68 66 64 69 84 82 66 50 51 53 53 58 64 68 70 71 70 68 82 92 97 96 97 97 97 95
87 89 91 88 84 82 80 78 73 66 58 58 57 56 58 60 63 77 70 68 68 85 90 68 56 48 52 54 58 65 71 71 72 94 96 96 96 97 96 96 97 96 96 98
93 88 84 78 77 76 70 63 62 60 57 60 66 68 77 70 69 71 74 80 84 83 88 76 58 53 54 58 66 70 71 72 80 91 89 96 96 96 96 96 96 96 96 96
95 78 84 84 81 75 70 65 62 63 58 59 68 78 82 77 72 74 74 72 67 61 55 55 54 55 61 68 72 71 73 78 79 92 97 97 97 97 96 96 97 96 96 96

GFSNGP_sfc_rhum_024.txt.gz
RH
85 78 83 83 81 79 90 76 95 68 69 60 57 55 60 76 75 64 66 73 81 78 73 91 94 90 87 92 90 85 83 82 70 59 51 46 47 48 48 49 49 49 59 54
95 84 88 94 82 78 74 68 68 69 74 53 56 58 69 84 85 83 78 69 64 76 88 94 94 91 85 89 87 73 64 63 57 51 52 59 60 58 60 64 66 64 55 48
97 80 90 96 88 80 75 72 77 91 74 69 77 69 88 94 77 75 74 74 71 70 79 92 95 90 92 85 81 72 73 62 64 65 65 66 63 66 67 74 72 64 60 47
98 90 94 75 73 68 71 76 80 83 76 74 74 87 89 76 70 72 64 63 58 63 69 82 88 92 93 90 87 84 82 89 84 77 75 78 84 89 89 82 78 83 79 74
96 91 77 73 80 84 90 78 73 83 73 72 74 93 91 72 62 71 73 72 72 67 70 82 86 90 92 95 97 95 92 86 83 85 90 91 94 97 94 95 98 93 76 64
99 99 96 63 78 74 76 95 75 71 74 85 72 84 90 83 72 71 72 74 79 74 74 78 80 78 84 89 91 96 93 93 89 88 91 94 94 94 95 90 70 47 41 39
99 97 87 63 62 76 91 72 72 75 75 81 78 83 93 81 83 81 79 83 84 88 93 91 86 86 92 96 99 98 91 92 90 89 87 85 78 68 54 44 41 41 45 47
99 99 93 58 78 83 63 77 76 75 83 82 87 84 95 87 87 86 88 88 88 92 93 91 92 89 94 97 95 88 87 87 77 57 38 36 39 40 41 45 48 50 53 56
85 79 56 56 64 68 70 72 76 80 80 81 85 83 71 92 90 90 88 89 86 88 82 66 70 78 90 83 62 48 40 38 38 38 39 42 47 51 54 55 56 55 52 57
76 69 65 62 73 73 74 78 73 76 79 78 84 74 58 56 53 54 61 65 60 60 56 44 40 37 40 40 35 36 40 45 50 50 53 54 53 52 57 59 60 54 55 60
76 72 70 73 63 75 76 80 73 80 77 78 72 62 56 53 49 47 51 44 44 46 47 43 39 38 36 37 39 46 52 59 61 57 57 58 56 58 56 56 48 54 67 63
78 64 63 66 74 72 74 78 74 77 77 77 68 64 59 58 52 48 46 46 48 49 44 42 40 41 45 46 45 50 54 56 61 60 59 58 60 64 51 47 46 47 53 57
69 66 65 68 71 75 72 73 72 72 72 74 66 61 59 57 54 50 46 56 61 55 50 43 42 47 49 50 52 56 64 63 64 54 56 56 52 47 45 46 46 42 40 40
77 68 75 73 70 69 70 70 68 67 65 64 62 58 56 57 59 56 57 58 44 42 42 43 51 54 55 56 58 62 64 56 59 61 61 57 51 47 47 48 49 45 44 48
66 68 70 79 74 74 72 68 69 69 63 63 62 62 60 60 58 51 51 43 42 44 48 53 56 61 60 61 61 64 60 62 63 61 57 52 46 46 50 47 47 50 53 51
75 73 72 80 77 75 71 71 70 68 61 62 63 61 59 56 48 50 56 47 46 52 59 58 61 64 63 62 63 61 59 54 53 51 48 45 46 51 51 50 52 58 60 61
95 90 94 89 90 79 75 70 67 65 61 58 61 66 55 56 57 56 53 53 57 60 60 61 66 69 69 68 64 66 62 58 49 47 46 46 52 56 53 54 58 62 64 58
81 82 84 84 83 84 78 70 67 66 67 72 65 52 51 51 52 57 58 60 61 62 61 62 64 64 61 61 58 55 52 50 47 48 46 49 58 54 53 58 61 66 68 60
77 79 80 86 82 81 74 68 65 66 70 60 53 52 50 53 53 56 58 57 60 64 66 67 63 62 58 55 52 51 49 47 43 46 48 52 55 56 60 63 66 68 68 62
83 80 81 78 79 72 67 62 60 58 53 53 51 55 56 55 55 55 56 59 60 60 69 77 68 66 63 57 50 51 48 47 46 50 54 57 58 63 63 61 65 65 69 70
91 84 89 90 86 79 69 61 59 62 62 64 54 54 55 55 52 56 59 59 59 64 80 69 70 67 63 57 53 52 51 51 50 57 57 59 62 64 67 74 74 70 74 78
78 89 80 89 88 94 93 89 80 84 83 70 58 56 56 60 61 65 61 57 69 68 81 81 76 66 61 53 54 54 55 55 58 58 63 65 67 72 78 82 83 95 94 97
78 75 75 75 84 92 94 92 86 74 66 58 58 56 55 55 55 59 63 68 71 74 79 78 72 60 55 55 52 53 56 60 64 66 66 70 79 85 91 97 97 98 98 97
87 81 80 75 68 68 70 71 78 77 73 58 57 54 54 58 66 65 66 69 72 70 76 79 68 57 52 54 54 59 64 70 72 74 73 69 80 91 97 97 97 97 97 96
93 94 93 92 87 81 82 84 78 72 60 61 60 58 58 54 56 72 68 70 68 76 90 69 58 56 53 55 58 65 72 73 74 94 96 96 97 97 97 97 97 97 97 98
94 93 93 87 83 78 75 70 68 66 61 62 65 71 77 82 78 70 69 74 81 81 88 73 60 54 54 57 65 71 73 74 82 94 91 97 97 97 97 96 97 96 96 96
96 85 88 86 82 77 73 69 68 67 62 63 68 79 84 88 84 72 80 87 89 84 70 59 61 55 59 64 72 71 74 79 82 95 97 98 97 97 96 96 96 96 96 96

GFSNGP_sfc_rhum_027.txt.gz
RH
85 78 83 82 78 82 90 79 90 69 69 55 48 47 50 63 76 75 74 66 72 69 74 78 93 88 90 93 91 89 88 87 87 80 72 69 62 62 60 65 67 66 70 74
94 83 90 94 83 82 80 76 75 72 75 50 50 67 69 82 82 74 75 64 69 70 81 96 96 95 90 91 80 75 75 75 65 63 62 64 63 63 66 65 70 75 80 78
97 82 90 95 87 82 82 75 72 86 66 68 76 72 82 90 74 76 71 64 61 71 89 95 94 88 91 86 81 80 72 66 69 71 71 70 69 73 78 82 82 85 86 88
96 88 96 67 74 70 72 69 71 70 69 70 73 78 88 73 68 72 77 74 69 70 81 89 90 92 93 89 84 88 88 84 79 80 86 88 88 89 89 90 90 93 99 99
93 91 80 75 81 86 86 80 74 76 73 79 71 93 96 74 67 72 73 74 76 75 82 87 90 91 94 97 94 91 93 94 92 91 92 92 96 97 92 94 96 98 98 99
99 98 98 64 81 79 77 89 72 78 75 78 78 91 91 83 79 76 77 79 83 81 82 85 85 89 96 99 99 99 99 99 97 93 96 98 94 96 97 97 100 95 96 94
98 96 87 63 59 77 88 73 77 77 76 83 87 85 94 85 83 82 84 87 86 89 93 90 87 93 98 99 100 99 94 92 94 93 93 93 95 96 93 88 80 59 48 52
92 99 94 66 81 82 68 77 77 78 80 83 86 93 95 85 90 92 89 88 86 85 89 92 89 93 99 99 98 90 92 92 83 82 80 70 64 52 46 43 45 50 53 56
87 78 59 62 70 71 73 76 78 80 80 82 86 87 94 96 94 94 88 86 82 76 69 74 84 87 91 85 70 59 48 44 42 40 40 45 45 50 52 54 59 56 52 58
83 76 70 62 64 72 74 76 76 80 82 84 84 78 78 81 82 76 80 82 69 55 49 45 42 42 43 38 37 40 44 51 53 52 54 55 51 54 60 62 61 54 54 58
83 73 71 75 67 67 73 78 78 83 83 82 81 71 64 57 54 58 53 51 50 49 52 46 40 39 40 41 47 54 62 61 58 57 59 60 59 56 48 50 48 54 62 58
88 70 76 72 66 70 72 77 73 81 84 83 75 66 60 60 52 54 49 49 50 49 45 44 41 44 49 50 53 56 56 56 61 60 64 64 70 72 53 52 50 52 59 56
74 83 79 67 73 73 73 73 73 76 77 81 72 63 60 60 56 50 48 54 53 56 49 43 45 52 53 54 54 57 63 61 64 52 54 54 50 47 46 48 49 46 45 44
72 70 85 81 76 77 72 72 71 72 73 72 66 62 58 57 59 54 58 58 49 44 43 44 49 56 58 58 58 63 66 58 60 60 58 55 48 47 48 48 47 45 45 50
64 68 71 75 78 80 76 72 72 72 69 65 63 62 62 66 64 59 56 45 46 47 49 55 59 64 61 61 62 64 60 62 61 59 56 50 46 49 51 48 49 53 56 53
83 86 80 77 73 78 76 74 73 72 68 67 66 62 65 63 54 54 56 58 55 51 57 59 61 64 63 61 60 59 62 55 55 53 47 46 49 52 51 51 55 61 62 64
98 94 91 91 92 84 80 73 70 69 69 72 71 66 61 61 57 59 53 51 52 58 60 60 65 66 66 62 62 66 66 59 48 47 46 47 54 57 54 56 60 65 67 61
88 86 84 91 90 88 86 77 72 70 68 61 63 62 60 57 57 57 54 58 62 63 61 64 68 68 64 62 57 58 57 54 48 48 47 53 59 55 56 60 64 68 71 63
81 85 86 88 90 91 89 82 74 70 73 70 73 74 58 53 56 58 62 60 61 65 67 70 66 63 61 57 54 53 50 49 45 48 49 54 55 58 63 65 69 72 72 65
84 87 84 91 81 74 74 68 65 73 72 66 59 55 57 58 57 58 58 58 59 60 67 73 67 61 60 61 51 52 50 48 46 50 58 57 59 66 64 63 68 70 74 74
78 91 90 92 92 82 70 66 61 61 60 64 68 59 58 60 56 57 59 59 59 62 73 73 69 68 65 61 54 52 51 51 49 56 57 60 63 65 69 76 77 74 76 80
82 81 78 83 91 94 93 89 78 70 76 83 81 62 59 63 62 64 57 56 64 66 80 75 73 64 65 56 54 54 54 54 57 59 64 66 69 74 81 85 86 95 93 97
81 81 75 76 79 92 96 95 91 88 90 88 80 60 56 56 56 56 60 64 68 71 78 74 69 62 57 56 54 54 56 59 63 66 66 71 76 85 90 96 97 97 97 97
87 86 87 79 73 71 82 84 95 95 90 80 75 67 60 59 63 61 64 67 70 74 77 73 70 64 60 56 54 57 61 66 70 73 73 69 82 90 97 97 97 96 96 95
92 94 95 93 87 82 83 88 86 87 85 82 81 75 63 56 56 66 72 72 72 76 76 69 68 64 56 53 53 59 67 71 72 93 96 97 96 97 97 97 97 96 97 98
96 96 93 88 89 86 79 73 72 69 66 68 65 68 75 81 83 80 74 72 73 74 87 83 73 62 51 53 56 64 68 69 81 92 91 96 96 97 97 96 96 96 96 96
91 89 96 94 90 82 79 75 73 70 66 64 69 76 81 90 91 89 74 77 82 85 76 64 64 54 53 58 67 67 68 73 80 92 95 97 97 97 96 96 97 96 96 96

GFSNGP_sfc_rhum_030.txt.gz
RH
84 76 86 83 82 86 87 82 89 76 77 59 53 52 46 56 75 74 77 74 67 68 89 95 96 94 92 86 78 83 83 86 89 86 80 74 68 65 62 62 63 63 68 71
95 84 90 95 86 81 82 75 76 71 75 51 51 52 68 73 87 76 71 73 66 67 84 87 90 89 86 84 79 75 77 78 71 72 70 72 72 73 73 72 75 78 79 81
94 85 90 94 89 83 77 78 72 84 59 55 68 71 77 90 85 74 73 78 78 73 80 90 93 91 94 91 84 80 76 78 70 73 75 76 75 78 83 86 87 89 90 89
97 89 96 68 74 70 71 68 70 68 65 66 70 74 89 88 85 79 76 75 77 82 84 88 88 90 90 90 86 86 84 83 82 82 86 87 89 90 91 91 92 95 99 97
94 91 78 73 82 77 78 78 68 68 64 70 80 85 91 86 82 81 76 79 79 78 83 86 91 96 96 98 97 96 96 94 89 89 92 92 96 98 98 100 99 100 99 99
94 97 97 63 83 78 79 83 74 79 78 81 84 90 90 90 90 88 91 87 90 85 85 89 94 96 96 99 99 99 99 99 97 95 96 98 99 100 100 99 100 100 100 99
91 94 86 65 61 76 89 74 76 80 79 81 86 84 92 89 94 93 87 88 84 86 94 92 95 96 97 99 99 99 97 99 99 97 97 98 99 98 98 98 97 97 94 74
85 98 96 69 83 79 67 77 78 80 80 81 85 93 94 90 95 93 94 92 82 83 89 91 88 89 99 98 99 98 92 95 97 99 98 97 96 98 87 62 50 52 54 56
86 84 62 61 69 67 72 72 78 81 80 83 87 92 95 96 96 88 90 85 73 73 75 77 83 83 87 75 59 52 48 47 47 46 48 48 50 54 55 57 59 56 52 60
86 80 76 68 67 69 75 76 77 81 84 86 86 86 93 96 96 94 94 90 67 56 53 51 43 40 40 41 42 43 47 56 56 55 57 58 54 55 60 62 60 53 52 57
85 80 72 78 69 67 69 76 78 79 83 85 86 82 88 78 68 70 68 66 59 60 53 46 42 41 45 49 53 59 61 57 58 57 61 62 53 49 45 53 51 54 60 56
83 77 81 75 72 73 75 75 76 77 84 86 85 76 71 67 58 56 56 54 52 54 51 45 42 44 53 55 56 55 54 55 61 64 69 70 74 76 56 56 54 55 56 58
90 89 87 82 86 84 77 77 76 77 81 85 79 65 64 63 62 57 52 54 53 54 48 43 45 54 56 56 55 57 64 61 62 50 54 55 54 52 54 52 48 48 49 50
76 71 82 80 86 80 81 72 74 80 79 80 73 62 59 60 64 56 55 54 51 45 44 44 48 57 59 59 58 64 67 56 57 57 56 52 47 48 50 46 44 46 49 53
72 77 79 76 76 83 81 79 77 76 74 73 68 65 60 63 66 59 58 51 51 48 49 50 59 63 62 61 62 66 60 60 59 57 55 49 48 51 50 48 51 56 59 54
90 91 92 92 88 79 76 82 79 77 74 72 70 67 64 64 62 59 52 54 55 52 51 57 59 62 64 62 59 60 60 55 57 53 46 46 52 52 51 53 57 63 64 66
97 95 94 94 93 92 84 79 78 75 73 72 71 71 68 67 65 59 58 63 68 59 54 58 61 64 63 58 59 68 69 60 50 46 46 48 55 57 55 58 62 66 68 63
91 90 93 94 94 93 89 88 79 76 75 72 67 65 63 60 60 59 59 58 56 60 60 61 65 67 63 62 62 63 62 56 47 47 48 55 60 56 57 62 65 70 73 66
75 86 88 86 91 90 89 87 83 77 72 65 63 63 61 68 61 55 55 54 56 62 64 69 66 65 63 58 56 54 51 48 46 48 50 56 56 59 64 66 71 75 75 69
76 81 87 90 90 83 75 72 72 70 69 66 67 70 68 57 57 61 58 58 56 56 63 70 67 61 59 64 53 51 49 47 45 49 56 59 59 66 66 63 68 72 76 76
82 85 91 94 96 95 83 71 68 73 74 68 66 70 68 59 57 59 60 60 59 62 63 71 60 62 64 64 53 50 50 50 48 54 55 58 62 64 69 74 78 76 77 79
84 85 81 80 80 90 95 88 68 66 71 78 82 80 72 65 62 64 56 54 58 66 71 70 65 62 64 60 50 50 51 51 55 58 63 65 68 71 79 85 86 93 91 96
84 84 85 80 80 78 96 94 90 86 92 96 94 92 81 66 59 57 58 59 58 68 74 67 65 64 61 58 52 53 52 55 59 63 64 69 71 82 90 96 96 96 97 96
90 88 92 86 78 74 77 77 96 96 98 99 99 98 92 62 61 58 60 64 65 72 72 67 66 64 63 55 54 54 56 61 68 71 71 67 85 92 97 96 96 96 97 96
94 97 97 95 90 88 88 86 85 93 95 92 94 96 97 92 62 62 69 70 68 78 75 65 67 67 63 53 52 54 61 69 72 93 96 97 96 96 96 96 96 96 97 97
94 90 98 96 95 91 84 78 77 72 72 79 76 81 86 73 79 80 81 78 79 80 77 80 84 72 53 51 54 59 68 72 83 93 92 96 96 96 96 96 96 96 96 97
96 80 92 94 92 91 96 92 86 77 68 68 70 76 77 94 86 89 90 85 82 80 82 85 81 64 51 54 61 66 69 72 78 93 95 96 97 97 96 96 96 96 96 96

GFSNGP_sfc_rhum_033.txt.gz
RH
79 71 83 80 79 82 86 76 83 63 72 54 50 52 50 50 77 74 70 70 70 67 75 82 86 85 81 77 73 70 71 71 75 77 74 71 74 73 70 69 66 64 64 70
94 80 85 93 82 80 78 72 73 71 71 47 46 53 65 78 84 77 72 74 73 72 79 87 89 88 86 85 80 74 74 71 69 69 70 77 74 77 79 77 77 77 78 80
90 78 86 95 88 81 77 77 68 82 62 55 56 66 75 85 82 78 76 74 74 80 82 86 86 87 92 87 81 78 79 75 72 75 79 82 80 84 87 90 91 92 92 91
93 85 96 64 71 70 72 66 68 64 60 58 59 67 81 78 79 79 78 78 80 81 83 87 90 92 96 94 85 88 87 86 83 85 87 87 89 91 93 93 95 98 100 98
94 95 73 67 77 78 76 75 63 64 58 60 70 76 90 82 76 80 82 84 83 81 82 88 93 93 96 96 96 96 96 95 90 88 91 94 96 98 96 99 98 100 100 100
88 92 96 58 81 72 71 81 68 68 68 76 78 82 81 85 83 86 84 83 86 81 81 93 94 86 95 97 99 99 99 99 98 96 97 98 99 99 99 98 100 98 100 100
89 90 84 63 72 74 92 75 68 75 75 78 82 77 86 88 89 87 80 87 80 86 93 92 88 95 96 98 100 100 99 99 99 99 99 99 100 99 100 99 98 98 97 95
80 94 93 67 79 81 67 71 71 76 75 76 80 92 91 89 91 91 90 86 81 87 91 87 85 92 97 98 95 89 91 97 98 98 98 98 96 95 89 78 60 53 52 53
81 77 62 70 72 69 68 67 73 76 74 76 82 90 93 95 94 91 88 79 71 83 85 80 80 79 78 63 53 53 51 49 46 44 43 42 42 44 44 45 47 45 44 47
86 77 75 68 64 72 72 74 72 72 77 80 82 86 94 94 93 90 91 83 59 61 64 56 46 44 44 44 42 43 45 47 46 45 46 46 44 44 46 49 48 43 42 43
89 82 75 78 73 70 68 73 73 74 75 80 85 86 90 93 88 85 81 73 63 61 59 50 44 46 46 46 47 49 48 45 46 47 44 44 40 37 37 41 40 40 44 44
92 78 78 78 78 80 80 86 81 76 77 80 85 84 86 88 73 70 70 59 61 56 54 46 44 46 49 50 47 45 45 46 52 55 58 60 61 64 56 56 56 56 55 50
84 85 89 86 84 87 81 80 76 78 78 78 82 79 75 69 69 64 59 56 55 55 50 42 43 49 50 51 48 49 52 50 51 48 49 53 52 53 55 49 52 52 53 51
78 80 83 84 82 79 82 84 80 76 77 81 80 69 64 62 68 65 60 55 51 46 42 43 46 51 53 53 51 54 54 55 45 44 42 40 38 39 39 35 34 36 47 51
79 79 76 83 86 83 80 80 81 78 76 77 75 70 64 64 69 62 59 51 47 46 47 46 49 55 57 55 56 61 55 51 47 46 44 41 41 42 40 40 42 45 48 48
86 88 89 92 92 90 88 76 79 79 78 76 74 72 65 63 63 60 56 54 52 52 52 48 51 55 58 58 57 54 52 53 53 47 41 41 43 42 42 44 46 50 51 53
94 93 96 97 96 96 94 88 80 75 77 76 75 72 69 64 62 58 57 56 57 57 54 53 54 57 59 55 54 61 61 56 48 39 38 40 45 47 46 48 50 53 55 56
91 91 86 86 94 96 96 92 90 83 79 74 73 70 63 63 60 60 60 67 64 63 60 55 57 60 56 55 58 60 57 51 42 42 42 48 51 47 48 52 54 57 59 60
83 79 86 86 88 94 93 91 90 83 74 70 67 67 63 61 60 59 61 64 65 64 59 60 65 61 59 59 58 54 49 44 42 42 44 53 48 48 53 54 57 62 65 61
84 81 86 90 90 94 92 82 74 73 69 65 65 66 66 68 64 62 58 61 57 51 57 61 66 59 58 61 54 45 42 42 41 43 48 51 49 50 56 57 58 62 65 65
86 84 84 87 88 88 94 86 70 74 74 68 68 70 70 70 67 62 61 61 57 59 59 69 60 58 62 59 50 44 43 42 42 45 46 49 50 54 57 61 66 68 67 68
86 86 85 82 76 76 90 94 80 67 72 74 77 77 78 79 71 68 61 60 57 65 66 71 61 60 63 60 45 44 45 43 44 48 53 54 56 59 64 72 74 78 80 86
85 84 85 83 83 78 78 86 92 87 86 90 91 90 90 84 84 88 69 57 57 67 73 65 62 63 64 51 46 46 45 46 48 51 54 59 60 64 77 83 84 86 89 88
89 91 92 87 82 79 82 79 83 94 97 99 99 99 97 96 96 91 58 62 64 70 71 64 63 65 68 50 48 48 48 49 54 59 61 61 71 82 84 83 87 86 88 89
93 98 98 97 96 94 92 89 83 83 87 93 95 97 97 98 97 86 87 85 67 74 70 66 67 67 64 50 48 47 49 54 59 75 74 81 85 87 85 87 89 89 92 93
93 94 96 93 94 92 95 95 88 81 74 75 80 90 96 97 97 97 92 90 91 89 77 70 71 73 58 48 46 47 52 58 70 79 81 85 88 87 88 89 89 90 92 93
97 75 90 85 87 91 95 90 98 93 80 74 73 75 89 95 94 86 90 97 97 89 74 83 84 70 55 49 48 49 56 62 70 77 78 85 88 92 89 89 91 92 92 92

GFSNGP_sfc_rhum_036.txt.gz
RH
59 58 71 68 64 65 83 56 67 40 42 30 31 35 36 43 53 58 56 58 58 59 60 71 71 71 70 68 64 60 60 61 63 61 62 61 62 64 62 62 60 61 66 69
87 67 69 80 63 61 62 56 53 47 49 33 30 34 38 46 59 62 60 60 61 62 68 71 72 76 78 75 68 61 61 66 64 62 64 69 66 68 70 69 69 80 81 81
79 64 66 74 65 61 58 56 53 62 43 35 42 42 46 56 65 63 63 63 64 66 71 77 83 86 91 80 69 70 71 75 72 70 74 80 79 82 87 91 91 92 92 91
87 72 83 52 53 53 54 48 50 46 44 42 40 42 53 63 62 62 64 66 67 71 77 82 83 89 89 86 78 82 82 80 77 77 84 86 89 93 95 96 97 97 100 98
84 69 50 41 58 60 61 63 47 50 43 41 43 58 63 64 60 62 64 65 72 73 76 76 77 89 92 95 96 96 94 90 83 83 91 93 96 98 98 99 98 100 100 99
76 83 70 46 58 50 51 68 53 49 49 50 59 60 58 68 64 66 66 67 74 73 78 79 84 81 94 97 96 98 98 97 96 95 97 99 99 100 99 98 100 98 100 100
72 70 54 42 57 57 81 63 52 56 55 59 62 52 62 65 69 68 66 69 74 76 77 83 85 86 95 98 100 98 96 96 96 95 97 97 100 99 100 100 100 100 100 95
72 80 76 47 60 62 54 54 55 63 57 58 57 65 67 66 70 72 74 72 72 76 79 79 83 84 94 95 89 87 90 89 86 86 86 86 90 96 92 71 58 49 47 47
54 51 40 50 55 52 51 51 57 57 55 57 62 67 68 72 69 68 68 67 67 72 76 77 80 74 77 70 65 61 59 55 46 39 36 33 32 33 34 32 35 34 37 38
64 46 49 47 48 57 56 56 54 54 58 60 61 62 66 69 70 68 68 64 64 65 66 68 60 57 60 55 48 37 34 33 31 31 31 30 32 31 32 32 32 30 30 30
62 57 57 53 50 51 54 55 58 58 59 59 62 63 62 68 70 69 70 67 58 61 62 56 49 48 46 42 31 33 33 32 33 30 27 26 29 28 27 28 30 26 31 31
60 50 47 50 53 64 66 64 58 62 63 61 61 61 63 65 66 73 74 67 63 60 57 51 48 47 40 34 33 30 30 33 34 36 40 43 45 46 56 55 56 55 52 45
53 55 59 61 63 66 64 60 57 60 59 62 59 60 63 65 67 70 68 63 62 61 57 46 41 40 36 36 34 33 34 36 38 39 37 39 42 38 40 49 55 54 52 50
62 58 60 64 63 63 62 61 65 62 57 58 59 62 60 62 62 62 62 59 55 52 46 42 37 37 37 38 36 37 37 44 33 31 29 28 26 26 25 24 23 24 38 50
62 63 63 62 63 65 67 66 66 63 58 58 60 60 58 58 58 58 54 52 50 48 45 43 40 40 41 40 40 40 40 36 32 30 28 28 28 28 27 27 27 29 33 38
69 66 65 70 72 75 75 71 69 65 65 66 60 60 56 52 51 52 52 51 50 51 50 46 49 42 43 43 45 43 38 43 36 31 33 29 30 29 28 28 30 31 34 36
70 81 92 97 88 82 81 75 73 72 69 67 62 58 57 53 51 51 51 48 49 50 48 52 54 46 46 47 43 40 42 45 41 29 27 28 28 30 30 31 32 34 36 40
71 72 73 77 85 88 86 80 74 74 77 71 65 58 55 53 50 51 58 57 60 58 55 54 53 50 49 46 44 45 44 42 37 30 29 32 34 33 32 34 36 38 39 43
69 72 80 84 86 92 92 84 74 66 74 69 65 65 59 55 52 55 59 60 60 59 56 59 66 56 48 49 50 46 42 36 32 30 30 39 43 34 34 37 38 41 44 45
72 72 71 84 89 91 95 89 81 80 64 67 64 64 62 58 60 61 60 59 61 64 72 68 76 51 48 52 57 42 37 32 31 30 32 34 33 33 37 45 44 43 46 47
76 75 77 82 78 72 84 91 71 62 69 63 62 61 63 63 56 58 66 65 61 58 61 65 59 51 49 57 52 37 33 31 30 31 32 39 34 37 38 41 45 48 50 52
76 75 74 74 70 67 73 81 82 72 69 71 72 69 71 74 72 72 68 75 72 63 56 61 55 55 54 61 40 36 34 30 29 31 34 34 36 38 42 48 53 61 66 71
75 76 75 75 74 71 65 66 66 83 89 88 86 82 75 77 85 93 94 96 96 68 64 63 58 64 64 55 39 36 33 31 30 30 34 37 40 43 51 64 68 70 76 75
79 81 80 78 73 73 77 73 73 72 88 96 99 97 95 95 94 96 97 97 90 84 84 65 63 65 65 46 38 36 33 31 32 33 38 50 47 56 68 67 71 71 73 75
79 87 84 81 67 62 72 87 78 73 63 67 80 92 96 94 90 92 95 82 77 95 88 68 67 67 62 45 40 38 35 35 35 51 49 64 66 71 70 70 74 75 78 82
71 68 71 70 66 64 66 79 88 77 70 65 61 70 85 95 96 90 87 95 96 96 84 83 76 63 60 47 40 37 35 35 43 52 61 64 71 73 71 72 74 76 80 84
70 62 59 53 59 65 74 74 83 88 83 72 67 60 68 86 94 95 95 96 96 95 88 76 66 69 59 50 42 35 34 37 51 60 63 71 72 75 73 74 78 81 82 83

GFSNGP_sfc_rhum_039.txt.gz
RH
49 49 61 64 57 54 76 59 62 35 28 28 26 30 34 34 42 49 51 52 53 55 54 59 63 68 72 71 63 57 57 60 62 60 62 61 61 62 63 64 62 61 63 64
91 56 57 69 55 50 56 52 48 40 40 27 25 26 33 38 48 54 54 55 55 55 61 67 72 75 78 76 67 64 62 66 64 64 67 70 69 69 74 76 75 76 74 72
76 55 59 70 58 52 50 46 45 52 38 31 38 37 40 45 54 56 57 57 58 61 68 75 79 80 83 79 70 71 70 71 69 70 76 80 80 87 92 93 92 93 92 89
87 68 84 53 45 45 47 44 43 39 35 32 35 35 40 52 53 55 57 59 60 65 70 72 71 83 86 85 80 75 73 73 72 75 79 83 87 92 95 96 97 97 98 98
80 65 45 36 44 52 55 55 40 42 39 36 35 47 56 55 52 54 56 58 63 66 68 74 77 80 90 95 96 95 93 86 82 82 88 94 96 99 98 98 98 99 99 98
64 75 62 47 51 41 44 63 47 41 43 44 48 60 62 60 57 59 59 62 66 67 72 74 76 80 94 96 96 97 96 96 95 89 96 99 99 100 99 98 100 98 99 99
67 67 49 33 52 47 71 68 51 48 49 53 58 54 60 59 60 59 60 65 67 67 75 78 76 87 95 96 100 97 95 92 89 85 89 97 99 95 99 98 97 98 99 93
61 71 73 40 58 61 52 48 51 54 53 53 51 57 60 60 64 64 66 68 67 71 76 79 78 82 91 94 88 84 81 82 82 82 80 84 90 96 92 69 50 44 44 48
47 48 38 39 41 47 45 47 51 53 57 58 56 58 60 64 63 63 64 64 63 70 72 73 74 71 78 75 65 63 62 57 49 40 35 32 32 32 34 32 35 35 39 38
49 40 41 39 42 45 49 50 51 50 52 56 62 55 59 62 63 61 61 62 62 65 68 73 66 64 61 62 55 44 35 32 30 29 29 29 34 35 34 34 34 33 33 34
52 45 51 44 40 46 50 51 54 55 56 56 55 56 56 60 63 61 61 60 61 63 64 65 57 56 53 48 32 32 32 33 32 31 25 28 37 34 33 37 39 31 38 37
51 38 39 38 43 49 53 57 53 54 56 56 58 58 56 58 59 61 62 65 62 64 62 58 52 51 49 36 31 31 30 36 36 37 40 43 44 48 58 57 56 55 53 53
42 43 46 48 52 54 56 55 53 53 52 58 55 56 55 58 59 65 64 69 65 66 63 53 53 52 41 33 33 30 33 37 42 43 40 40 44 40 43 56 54 54 53 51
51 52 56 54 56 58 55 54 56 55 53 54 54 53 57 60 62 64 69 66 61 59 56 49 46 45 34 34 37 35 37 46 41 40 35 34 31 29 27 26 25 26 42 46
54 53 55 54 53 54 57 59 61 58 53 53 54 57 58 61 62 64 60 59 57 57 54 47 41 41 36 36 42 39 41 42 38 36 34 30 30 29 28 28 27 28 32 35
60 58 55 57 60 68 70 67 66 62 57 57 57 56 56 54 54 55 55 56 58 59 53 44 48 47 46 42 43 42 41 43 38 35 37 32 32 31 29 28 29 29 31 34
61 75 94 100 81 70 73 70 70 69 67 66 63 59 62 57 53 53 53 53 53 53 51 52 55 52 54 48 45 43 43 47 41 35 31 31 31 30 30 30 30 32 34 35
59 63 64 69 77 81 85 84 76 66 66 70 69 61 58 57 54 52 52 52 52 52 56 54 55 55 56 51 46 44 45 47 44 34 32 33 33 34 32 32 34 36 37 37
61 66 76 81 82 88 92 90 83 76 66 63 70 64 58 57 55 54 55 56 56 56 56 56 67 61 61 54 49 48 45 44 37 33 33 33 43 35 33 35 36 37 40 40
65 67 66 71 79 84 88 91 92 84 81 68 64 65 63 58 61 60 60 60 57 54 55 58 73 86 70 50 56 47 44 39 34 32 34 37 34 32 34 41 43 39 41 42
69 69 72 73 71 66 68 79 80 72 64 65 65 68 69 62 58 60 63 64 67 69 59 78 88 97 70 52 58 45 41 36 33 33 34 39 36 37 38 38 39 42 46 49
69 67 66 67 64 64 66 64 63 78 80 75 76 71 70 70 70 70 67 68 64 78 91 96 97 95 61 59 55 42 38 33 30 31 36 32 34 36 39 44 50 64 69 76
65 68 66 68 69 67 62 64 64 64 80 94 97 92 82 75 69 73 77 88 87 91 93 97 96 95 63 61 47 40 36 33 30 30 33 37 36 41 54 70 76 77 81 82
74 75 71 70 59 53 56 72 80 72 73 81 95 98 98 95 90 89 94 98 97 98 97 96 96 75 64 57 44 40 37 33 32 32 36 41 48 63 76 77 80 78 79 79
66 77 74 68 59 54 60 66 80 78 68 63 62 79 92 95 98 90 86 90 97 99 97 97 97 84 66 55 43 40 39 36 35 53 49 71 76 80 79 80 83 81 83 85
61 57 58 60 54 55 57 64 73 76 79 74 65 62 68 85 90 95 96 88 91 97 96 97 98 90 80 62 44 41 38 37 44 51 62 70 78 81 80 79 82 82 84 88
66 60 48 47 50 53 64 69 69 68 74 77 76 65 63 70 84 90 93 97 97 97 95 96 97 98 95 61 48 40 37 38 50 62 70 79 81 84 80 80 83 85 88 89

GFSNGP_sfc_rhum_042.txt.gz
RH
64 56 76 78 68 63 80 73 84 56 48 38 38 38 45 45 55 57 59 60 62 66 74 76 72 74 76 74 70 68 75 78 79 78 80 80 81 84 82 80 80 81 81 84
89 60 64 79 66 60 62 62 62 58 52 39 35 34 42 48 58 60 61 61 62 65 73 71 78 77 74 78 73 71 71 76 70 77 75 81 80 82 92 90 89 84 84 84
89 63 71 86 70 63 59 57 57 68 51 44 49 45 50 54 62 64 64 64 66 76 81 74 78 81 88 84 76 74 74 75 74 75 79 83 87 89 93 97 97 97 96 93
95 86 97 60 54 53 54 50 51 47 45 41 44 45 49 63 68 65 64 64 71 79 82 73 78 85 88 90 88 85 83 78 78 79 85 89 93 96 97 97 97 97 98 98
83 91 64 54 61 60 59 59 44 49 46 47 46 64 77 64 64 66 67 73 78 79 80 75 75 86 89 96 97 94 93 88 86 86 96 97 99 98 98 98 98 99 98 98
77 82 87 67 53 47 52 78 58 45 48 49 59 84 88 71 67 69 72 74 80 80 74 74 78 92 95 97 97 97 94 94 93 97 98 99 99 100 98 96 99 97 99 97
82 82 66 52 52 54 89 83 62 52 54 61 72 76 78 70 70 71 75 77 78 82 78 80 83 91 95 98 100 96 90 90 88 89 96 97 99 92 98 93 94 98 98 97
73 84 86 64 70 80 68 66 64 66 65 64 69 71 73 70 74 75 80 80 79 85 82 81 85 87 93 95 90 85 85 86 88 88 85 90 98 98 99 94 74 65 65 67
62 69 52 53 64 61 59 62 69 68 65 64 64 66 70 75 78 76 78 80 79 79 82 79 82 81 89 86 80 73 76 81 76 68 68 70 60 52 54 49 52 51 52 56
58 54 53 49 57 58 66 67 64 63 66 68 70 67 71 73 77 77 77 78 78 83 90 92 88 83 84 78 73 74 50 43 42 41 42 43 46 47 49 50 48 43 42 47
65 59 73 59 51 60 61 63 64 66 69 69 68 68 69 72 74 74 74 76 74 80 84 88 83 79 77 76 62 45 44 47 46 43 38 57 75 78 57 65 61 49 60 55
72 53 55 54 53 58 65 70 65 69 71 72 73 73 69 72 68 71 75 76 72 76 75 73 67 66 70 55 43 44 44 48 51 52 57 64 73 75 57 58 54 54 52 59
58 63 66 68 68 66 66 66 66 71 69 69 68 71 71 72 72 73 76 77 72 73 72 64 61 61 56 44 45 41 50 52 57 54 59 60 59 61 71 67 53 52 50 49
61 67 73 70 80 68 65 65 66 68 68 67 67 67 69 73 74 78 77 76 72 68 66 61 61 59 46 42 47 46 51 55 59 58 55 54 45 38 37 36 36 37 47 43
67 65 68 64 64 67 72 72 77 76 72 68 69 71 73 77 79 81 80 76 72 70 66 58 56 52 42 44 50 50 55 59 56 52 45 41 39 38 36 35 36 37 40 38
70 67 67 70 76 84 85 84 85 83 81 80 76 72 71 72 72 72 75 77 74 75 69 55 55 47 46 46 52 53 56 56 52 47 47 39 39 38 37 36 37 40 41 43
79 92 95 96 88 87 89 89 89 87 82 83 85 82 74 72 65 64 68 75 73 72 69 58 56 53 55 55 54 54 59 58 51 46 47 40 39 38 37 39 40 41 44 40
72 74 77 83 90 92 91 88 86 80 86 81 78 86 78 74 69 64 65 68 69 72 67 61 58 57 55 59 59 54 58 61 57 46 42 40 39 39 40 39 42 44 46 42
69 79 84 82 85 89 90 91 90 86 81 79 77 87 80 74 68 61 64 66 67 64 62 61 69 62 60 61 58 55 58 59 53 42 41 40 45 43 41 41 43 45 48 46
73 73 74 83 81 79 81 86 90 88 83 80 74 72 79 74 68 65 66 65 63 59 58 62 69 64 63 70 74 57 54 52 46 41 42 43 48 43 40 40 47 47 48 47
78 77 80 81 79 75 78 77 78 86 82 72 74 73 78 72 64 67 69 72 67 63 58 70 68 79 83 96 89 56 52 49 42 43 42 47 42 42 41 46 43 43 47 52
77 74 74 75 74 74 77 76 72 71 86 93 91 86 81 77 77 76 70 74 72 71 72 76 82 91 95 98 93 53 50 43 39 40 44 41 44 40 43 48 51 76 78 90
71 70 70 78 80 77 72 80 82 75 80 89 98 99 99 94 87 83 86 88 82 86 94 94 97 97 100 99 84 50 45 41 37 37 40 42 38 42 58 85 87 91 95 95
79 83 89 76 64 53 54 63 83 89 83 79 92 98 99 98 96 96 97 96 96 97 98 99 100 100 100 98 93 48 44 41 41 40 40 42 49 68 91 93 93 93 94 89
78 89 90 86 75 72 74 81 84 92 90 86 78 77 93 98 99 98 96 94 92 97 99 98 100 100 99 96 90 49 47 45 43 62 56 74 81 81 86 93 92 93 94 94
69 67 67 69 66 70 72 79 84 85 89 94 90 86 79 88 97 98 99 95 98 97 100 100 99 99 99 97 78 48 46 43 51 56 71 80 85 89 93 93 94 94 94 95
89 65 67 64 64 64 73 86 87 87 83 88 93 91 85 78 91 83 92 98 99 99 99 98 99 96 97 97 89 55 45 46 58 72 76 85 91 94 93 92 92 94 96 96

GFSNGP_sfc_rhum_045.txt.gz
RH
70 70 78 77 74 70 96 72 84 60 49 41 39 41 45 58 64 66 65 65 68 75 83 86 86 82 76 75 74 72 81 81 80 80 88 90 91 94 93 92 81 78 84 84
85 67 74 82 72 70 68 63 68 68 69 40 37 41 50 61 64 66 65 65 68 74 79 86 84 77 79 82 74 72 74 78 74 76 79 84 85 84 89 89 92 94 93 88
92 72 80 82 74 68 67 64 60 73 54 51 48 43 57 67 66 68 67 67 72 80 84 82 86 84 89 86 80 80 77 78 77 80 86 88 90 93 96 97 97 95 93 92
95 86 96 56 61 58 57 57 58 57 54 47 47 51 56 62 71 70 68 69 77 86 86 85 83 88 90 87 84 83 83 83 81 87 91 94 96 97 98 98 97 97 98 98
90 84 67 64 65 61 66 65 53 54 52 48 53 62 80 70 68 69 71 75 81 84 85 77 84 89 92 94 92 92 92 90 89 93 96 97 98 99 98 98 96 98 98 98
88 86 92 69 59 54 59 84 59 47 50 52 63 69 69 74 72 76 75 77 84 86 84 77 91 89 94 96 94 95 96 95 96 97 97 99 98 100 97 97 98 93 94 98
89 89 71 50 60 58 88 76 65 54 52 55 67 68 80 76 76 78 78 82 82 85 88 88 96 90 96 98 100 94 89 90 92 93 95 95 98 96 95 97 98 98 97 96
89 86 89 64 73 78 68 76 74 70 72 73 79 79 77 75 79 82 83 84 85 90 85 87 90 88 94 95 91 87 87 90 90 94 92 92 95 96 99 93 77 76 76 74
74 73 54 70 68 68 66 70 74 71 71 71 75 75 75 78 80 82 82 82 84 90 84 82 86 85 90 87 82 78 90 92 93 93 95 95 93 89 70 63 58 55 55 58
64 61 59 54 67 67 73 75 69 69 69 67 67 69 73 79 80 80 81 84 84 86 90 85 81 79 81 84 90 85 87 72 49 47 48 49 48 51 53 54 52 45 44 50
70 65 69 65 62 65 69 69 69 70 72 72 73 76 79 79 79 77 78 79 79 82 86 87 89 90 89 84 84 86 51 48 49 50 49 74 79 57 59 67 57 50 61 57
75 60 58 58 58 67 72 75 74 73 76 79 80 76 75 80 78 78 79 80 81 80 80 82 81 82 81 79 78 53 50 54 54 52 53 71 81 79 58 59 53 53 56 60
60 66 69 80 75 76 76 73 69 70 76 80 76 75 81 81 80 79 82 80 78 81 78 76 76 73 70 66 47 48 52 54 59 57 66 72 75 74 72 68 52 53 49 45
70 72 78 80 81 74 70 69 68 73 74 74 74 72 76 80 80 87 85 80 79 81 78 74 70 67 62 49 49 48 50 56 61 64 65 66 60 48 41 38 36 35 44 44
71 72 76 73 72 76 78 79 84 83 81 79 77 78 79 82 83 82 87 84 78 81 81 73 69 66 54 45 48 46 47 68 63 64 60 54 45 41 38 36 36 36 39 38
78 70 75 77 84 87 86 88 90 90 89 88 88 87 81 79 81 80 85 87 83 83 86 72 73 62 51 46 50 50 51 59 58 54 49 45 42 40 39 37 36 37 39 41
83 90 94 98 90 90 92 92 93 93 90 88 89 88 89 82 78 76 75 80 78 79 81 74 71 64 61 59 52 51 54 61 58 48 48 43 41 41 40 39 38 39 42 39
81 82 85 86 93 93 92 91 87 85 86 91 85 86 91 86 83 79 75 80 79 78 78 71 67 61 57 56 55 59 57 56 58 46 45 43 41 40 41 40 40 41 44 42
76 85 89 84 86 87 87 89 90 88 82 81 79 77 84 84 81 77 73 78 76 74 69 66 71 66 59 61 61 60 56 55 56 46 42 42 46 43 43 41 41 42 46 44
81 77 81 84 80 81 87 91 89 91 83 74 71 71 73 74 80 75 71 70 70 65 62 68 75 68 63 66 64 57 55 56 55 46 43 43 44 50 48 43 40 42 48 46
97 80 79 80 80 80 79 79 77 80 93 91 86 84 82 76 74 73 70 73 68 63 63 70 76 67 63 64 71 91 88 68 50 46 42 45 43 47 42 41 40 42 43 48
84 93 75 77 78 80 81 84 82 81 86 91 95 96 97 92 85 80 72 76 76 69 70 77 74 76 80 85 98 96 96 96 57 43 45 43 46 44 44 46 47 66 69 79
74 72 74 75 75 70 69 70 86 90 87 88 92 98 98 98 99 94 92 89 87 78 82 89 83 80 88 98 96 96 96 92 45 40 42 43 39 41 50 69 74 79 86 88
90 88 88 90 72 56 58 66 81 90 90 86 90 95 99 96 92 98 96 90 90 94 98 98 98 97 99 98 97 96 96 86 45 43 43 44 47 58 75 74 79 85 87 84
98 97 98 92 78 71 74 87 87 90 89 88 87 87 90 97 98 93 95 96 91 93 99 96 97 98 98 97 97 96 96 91 48 63 55 72 77 78 79 82 82 82 87 89
83 69 64 63 61 65 69 82 86 84 86 88 88 93 93 87 92 90 93 94 98 94 99 99 99 99 97 97 96 96 95 78 54 58 70 76 80 82 81 82 87 88 90 92
87 67 65 57 58 62 68 81 87 85 84 85 88 93 91 85 88 90 85 94 99 99 98 97 99 98 98 98 96 95 93 57 58 71 77 83 87 88 88 90 92 92 93 92

GFSNGP_sfc_rhum_048.txt.gz
RH
74 74 79 81 84 84 93 75 83 61 60 42 40 40 43 47 64 71 70 69 71 82 91 92 91 89 85 81 74 74 84 86 85 84 92 93 95 93 96 97 96 95 94 92
84 67 78 81 75 83 78 79 79 70 70 49 35 39 45 60 71 71 70 69 71 77 83 89 91 87 83 82 76 74 77 80 77 79 81 86 85 88 89 90 88 89 87 81
89 79 77 79 74 72 74 70 76 80 55 54 48 42 53 65 70 70 70 70 75 80 87 91 92 88 89 85 80 80 79 79 80 83 88 91 93 95 96 96 94 95 95 94
95 84 93 59 63 60 59 58 59 61 56 50 48 50 56 66 68 71 69 71 78 86 90 91 92 93 93 86 84 83 84 83 85 87 92 96 97 97 97 97 96 97 98 96
95 97 69 57 69 69 70 65 53 60 58 55 50 62 77 65 69 70 72 75 83 87 87 92 92 90 91 92 92 91 90 89 89 94 96 97 97 98 98 96 96 98 98 96
92 83 94 62 67 59 60 84 66 53 58 55 66 67 67 74 73 75 76 79 84 85 85 86 89 89 92 94 93 95 94 94 96 97 97 98 98 99 96 93 98 95 98 99
91 96 78 55 54 60 85 71 70 61 58 62 67 61 66 79 80 78 78 82 83 85 87 93 96 91 95 97 100 94 90 92 93 94 94 94 96 93 94 96 94 94 94 94
91 95 86 58 77 75 67 78 78 76 68 64 78 84 82 79 84 83 87 86 85 90 91 96 95 88 94 98 93 90 89 91 92 86 85 86 92 96 99 94 91 93 88 77
77 76 51 55 66 69 72 70 79 78 82 80 80 80 79 82 85 84 86 85 85 90 90 94 94 93 88 89 85 84 84 88 96 97 98 98 99 98 96 87 68 65 60 59
70 61 59 56 66 74 73 76 72 71 71 69 68 71 74 78 81 82 81 85 84 88 88 89 90 91 88 82 77 87 94 94 94 93 87 82 67 59 60 60 57 49 45 49
74 68 68 62 59 66 72 78 78 76 77 75 73 76 78 82 80 81 84 82 82 84 86 84 82 90 89 88 92 94 92 81 56 52 57 56 57 51 51 59 50 48 53 54
72 60 58 54 58 67 74 75 76 78 80 80 79 79 81 84 84 84 85 85 86 85 82 82 80 83 88 87 89 92 74 54 58 60 57 73 86 85 59 63 52 53 59 59
88 73 67 72 82 79 77 80 75 74 77 79 80 78 83 84 84 85 90 90 87 86 83 80 83 83 79 80 82 78 66 55 59 54 57 74 77 74 75 69 55 55 52 49
78 80 84 79 80 78 74 74 71 74 77 78 80 77 80 83 84 86 91 87 88 88 89 84 82 81 75 74 77 66 55 56 55 64 65 73 74 72 68 50 44 37 43 53
60 87 83 76 81 81 81 80 84 86 86 85 86 86 84 84 85 85 86 90 90 90 89 88 86 82 71 68 66 56 47 55 56 63 65 64 61 51 44 40 39 38 40 40
91 93 83 81 88 89 87 88 89 91 91 90 90 89 90 90 86 85 85 91 93 92 91 89 88 76 67 61 60 53 47 56 60 55 57 60 48 43 41 40 39 40 40 41
100 97 97 98 92 90 93 94 94 94 92 90 92 90 88 91 89 85 81 86 91 86 84 85 83 79 72 66 64 64 60 63 62 52 48 46 42 40 41 40 41 41 40 38
95 92 87 84 92 95 94 89 90 87 87 86 85 87 90 92 92 89 85 82 87 89 88 85 79 76 74 70 68 67 65 59 65 53 47 46 43 42 41 41 41 41 42 41
80 87 87 86 86 87 86 90 89 86 78 75 75 74 74 82 87 83 80 81 85 88 80 75 77 75 70 67 66 61 59 58 61 50 46 46 48 42 42 42 41 42 44 42
98 97 90 80 80 82 87 81 87 93 94 86 83 83 80 77 76 77 77 79 80 74 65 70 79 77 71 70 70 61 59 57 67 82 58 45 45 45 42 44 41 39 42 45
100 100 98 82 83 80 80 80 78 82 88 94 98 98 97 90 77 75 74 82 75 68 66 69 76 76 71 71 70 63 83 96 96 96 85 58 43 44 45 46 38 39 43 45
100 99 98 88 77 81 85 86 87 85 84 84 92 95 95 98 97 95 82 78 78 74 77 74 77 72 70 66 81 89 98 97 96 96 95 78 46 42 44 45 43 61 60 69
96 97 94 86 80 60 62 68 86 90 88 91 91 96 95 91 92 98 98 94 94 90 90 87 79 73 80 91 98 97 97 97 96 95 95 66 42 45 52 66 72 75 80 82
98 98 97 96 92 57 55 69 83 88 91 89 94 95 100 98 97 99 96 91 91 90 97 97 94 87 80 99 98 98 97 97 96 96 96 80 50 58 73 74 75 78 79 73
98 98 98 98 94 83 72 87 88 88 85 85 88 90 95 97 98 98 90 92 93 92 98 96 91 94 99 99 98 97 97 97 96 96 95 71 76 76 76 79 81 82 85 89
98 89 77 76 68 59 62 74 83 85 85 82 82 90 92 90 90 96 97 85 96 94 99 99 99 99 99 97 96 97 96 96 96 96 87 75 82 82 82 81 83 78 87 93
98 96 82 64 58 62 65 72 89 82 83 82 83 87 89 89 91 90 87 97 88 93 95 98 99 98 98 97 98 97 97 96 92 77 78 83 84 85 83 83 86 91 94 94

GFSNGP_sfc_rhum_051.txt.gz
RH
75 69 84 89 91 82 99 93 89 67 67 52 41 41 41 50 61 77 78 76 74 84 92 94 92 90 87 86 80 76 87 93 93 91 92 93 88 86 92 97 96 95 89 80
88 72 84 84 80 87 80 80 83 76 77 50 42 45 46 48 62 71 74 71 74 81 88 91 91 89 88 85 76 76 79 82 79 81 83 85 86 86 88 88 87 87 87 80
88 83 75 80 72 74 83 83 79 88 67 54 54 48 46 48 63 70 71 71 74 77 82 89 92 90 94 86 81 81 81 81 82 84 89 92 91 91 92 94 93 95 94 92
94 83 90 60 60 62 67 58 73 76 69 56 52 50 47 56 64 75 75 74 77 82 88 89 90 94 94 89 84 84 85 85 86 88 93 95 97 97 94 94 95 96 96 95
94 98 72 54 75 72 71 66 58 61 60 60 55 67 60 63 72 69 71 78 82 85 88 92 96 96 95 91 90 90 90 89 90 92 97 97 97 98 94 96 96 98 96 90
95 83 94 58 77 65 65 86 71 64 58 67 67 69 63 74 77 76 76 78 85 87 92 95 97 96 95 93 93 94 93 94 93 96 97 98 98 100 95 94 97 96 98 100
87 96 85 59 55 63 87 66 78 77 64 65 68 60 61 81 81 81 82 84 84 84 89 93 96 95 94 95 100 93 91 94 96 95 95 95 96 94 93 92 92 95 96 96
91 96 91 56 77 76 64 78 78 77 69 66 70 86 84 82 85 86 88 87 86 89 90 94 95 94 96 97 93 89 91 93 93 91 85 87 92 96 99 99 99 98 92 81
83 78 54 56 69 68 74 78 77 77 82 71 82 83 83 86 86 87 86 87 84 88 93 97 94 91 93 95 96 92 92 94 97 86 86 86 96 99 96 89 76 73 66 64
75 63 64 56 56 71 75 77 78 70 82 79 77 80 81 83 84 83 83 86 85 89 92 97 94 91 87 92 90 87 88 96 98 99 99 99 96 89 85 77 65 55 50 50
77 66 65 60 64 59 67 74 79 78 76 77 71 75 77 81 81 81 85 88 84 84 86 85 88 92 92 90 91 95 94 96 96 93 92 75 64 61 57 57 53 49 50 48
80 84 92 75 66 67 71 75 77 77 81 82 78 77 84 86 86 86 90 88 89 90 91 87 83 88 87 88 91 94 96 93 79 63 65 61 70 80 57 55 62 56 50 55
90 88 69 66 76 81 79 78 82 80 79 77 80 80 84 85 86 88 92 94 94 93 87 86 83 82 81 81 86 93 93 77 63 57 58 68 78 76 77 73 58 57 56 56
42 59 60 78 89 82 82 83 76 78 79 79 80 81 83 83 85 86 92 92 91 91 92 89 85 84 80 80 83 88 89 75 58 64 57 65 68 71 71 66 65 60 55 62
57 76 92 91 84 80 82 83 85 86 87 87 89 88 88 87 87 86 86 88 93 94 93 93 92 91 82 81 85 84 80 74 61 56 58 61 68 72 70 59 46 40 39 38
86 94 92 96 84 90 87 88 89 92 91 91 89 90 90 90 92 90 86 87 94 96 94 94 92 89 82 79 84 80 72 68 63 55 56 61 62 61 54 46 42 41 41 41
100 98 98 100 98 94 93 92 93 94 92 92 93 92 90 92 93 92 89 85 91 93 90 92 91 91 87 86 82 78 74 74 71 58 53 56 54 48 44 42 40 40 40 36
94 98 99 97 98 97 97 94 93 92 93 89 81 77 79 88 92 91 90 88 85 88 90 90 89 88 82 78 76 77 76 80 83 74 67 54 48 44 41 40 40 40 40 38
97 99 99 94 84 88 89 92 91 84 79 76 76 76 74 75 76 83 87 84 84 87 85 85 84 85 84 78 76 78 78 83 87 95 87 72 65 44 41 40 40 40 41 36
99 99 99 99 87 80 78 78 81 84 95 96 94 95 95 93 80 76 73 77 82 80 79 73 78 82 76 74 76 71 69 74 96 96 68 74 92 58 43 43 39 37 38 37
100 100 100 98 89 80 85 81 77 80 82 87 95 95 97 96 96 96 90 81 81 84 78 75 73 77 76 74 81 74 80 97 97 96 96 97 92 75 52 44 40 42 38 39
100 99 99 98 92 80 74 74 86 83 82 82 85 93 94 95 89 94 91 95 97 88 86 80 78 76 75 70 83 71 84 95 97 97 97 96 94 94 87 48 45 56 54 62
98 99 99 98 96 93 69 64 80 85 87 90 88 92 96 97 95 92 96 93 90 92 94 97 89 80 74 94 89 97 98 98 97 96 95 95 95 95 95 86 71 69 76 78
96 98 98 98 98 96 72 56 77 83 86 88 95 96 98 98 96 91 95 84 87 86 94 96 92 89 84 99 99 98 98 98 98 97 97 96 96 96 95 70 71 79 81 73
98 99 98 97 96 89 89 83 81 86 81 78 81 89 96 98 99 96 98 85 85 90 88 92 89 90 99 99 99 98 98 98 97 97 97 97 97 96 76 79 79 77 82 87
98 97 98 80 86 75 61 79 82 78 81 77 77 86 89 91 94 96 97 92 85 88 88 90 100 98 99 99 98 97 97 99 98 97 96 97 97 91 83 81 81 80 86 89
98 97 98 97 73 61 62 68 84 83 77 81 79 82 83 87 92 91 86 97 94 83 86 93 98 98 98 99 98 96 98 98 95 98 98 97 92 86 83 84 85 86 89 93

GFSNGP_sfc_rhum_057.txt.gz
RH
75 72 89 88 88 82 85 73 86 62 67 53 50 51 47 40 46 64 72 77 77 80 80 82 84 84 81 78 77 78 83 84 84 85 86 83 83 84 82 81 78 76 78 80
86 74 82 87 83 89 79 72 73 71 74 55 55 60 55 48 44 60 67 69 71 76 81 83 84 84 82 80 78 78 80 80 80 82 81 82 83 84 84 84 82 82 80 81
85 79 72 72 70 79 86 85 79 86 65 56 60 63 64 62 54 48 57 63 73 73 76 79 81 82 84 82 77 80 80 79 79 82 85 88 87 87 89 91 90 90 86 83
89 76 88 56 60 67 74 68 72 74 65 61 61 60 62 57 49 46 48 65 70 72 78 80 81 84 86 84 82 82 82 81 83 86 91 91 91 92 93 92 92 90 89 86
93 92 69 60 74 72 71 66 62 63 58 59 60 71 65 54 52 48 48 55 63 70 74 79 81 84 86 88 87 86 85 85 86 88 94 93 93 95 93 96 93 92 86 85
94 93 83 48 72 66 65 79 61 66 71 77 71 77 60 59 60 58 63 73 75 78 81 82 85 86 89 89 89 89 86 88 88 90 94 96 95 99 93 92 100 88 94 93
90 93 76 61 60 61 81 62 66 77 77 80 74 66 63 75 76 80 80 81 84 83 84 85 89 88 92 92 98 88 85 89 92 93 95 96 97 93 97 95 94 94 93 88
91 96 89 61 72 75 68 78 76 78 76 77 72 70 76 82 82 84 88 89 87 88 90 92 91 89 93 94 89 86 89 92 95 94 90 89 93 96 93 88 86 82 78 70
83 79 60 65 69 70 78 76 78 82 75 73 69 73 78 81 83 83 86 86 85 87 92 93 91 87 93 88 88 86 88 93 93 89 86 85 87 88 93 89 83 78 67 58
76 73 80 81 72 76 58 54 62 78 80 77 77 72 75 78 81 84 86 86 84 87 89 93 92 89 85 89 87 87 90 92 90 89 88 86 86 89 85 82 71 57 54 52
86 84 74 77 52 49 48 50 76 79 74 80 79 75 73 76 78 79 82 84 82 82 82 84 89 88 85 88 88 91 90 90 89 87 87 90 90 80 74 71 63 53 50 44
93 72 83 65 58 56 58 58 84 76 72 77 80 80 76 76 77 78 81 84 86 86 86 87 89 89 90 88 87 88 92 93 94 94 93 94 90 81 77 72 66 64 54 46
70 64 74 77 64 56 62 77 77 84 75 86 84 83 84 86 85 86 90 91 92 90 89 87 89 90 89 89 91 92 88 90 91 94 93 92 82 72 66 57 62 60 62 62
76 82 86 67 82 77 82 84 84 88 86 86 84 81 82 81 84 86 90 91 92 93 93 91 91 90 87 89 92 92 90 87 87 88 83 79 69 61 55 53 58 71 69 62
82 87 91 93 86 83 80 80 87 92 88 84 89 86 86 86 87 87 88 87 87 94 96 96 97 95 91 90 92 90 89 90 89 84 79 71 60 57 57 57 55 52 47 47
95 95 86 89 94 88 94 96 92 92 90 91 90 87 87 89 88 89 90 90 89 88 89 95 97 93 92 90 92 88 85 87 88 85 80 74 58 54 54 55 56 54 51 43
98 96 96 97 96 95 96 96 97 97 96 95 96 90 85 88 90 87 86 86 86 87 88 94 94 92 95 94 94 94 92 91 89 87 80 73 66 57 53 53 52 52 49 42
92 95 96 99 98 97 98 99 99 99 100 100 99 94 78 78 77 76 82 84 84 84 85 82 86 92 94 96 96 97 96 93 93 93 83 81 77 71 67 67 53 51 46 39
83 95 96 95 99 97 97 98 98 99 100 100 99 99 98 89 90 91 86 77 76 83 86 84 81 87 90 91 94 96 93 89 90 94 88 83 86 77 74 79 74 90 84 41
89 83 90 90 97 94 94 77 85 81 80 82 90 91 92 93 94 94 90 86 98 93 89 82 80 79 81 78 81 88 87 87 88 90 89 88 95 96 95 95 96 94 93 88
96 94 96 97 97 95 93 88 89 93 83 80 82 84 86 86 87 91 94 90 96 88 87 91 91 83 80 77 78 85 83 85 91 92 97 98 98 97 95 95 95 94 92 91
94 95 95 97 97 96 95 90 87 91 92 86 85 81 80 83 86 91 95 94 90 83 85 92 93 92 92 81 82 84 85 86 89 95 96 96 95 94 94 95 94 95 94 95
94 94 91 97 98 97 97 94 86 89 88 94 95 93 88 87 87 93 91 92 85 84 88 90 83 80 80 89 93 93 94 88 91 93 94 94 94 95 95 95 96 96 96 96
95 89 89 95 99 99 98 98 98 96 94 92 92 90 92 91 86 93 88 86 83 82 85 89 86 86 92 98 96 94 99 99 94 95 94 92 95 96 97 96 96 95 96 96
93 96 96 98 98 97 98 99 97 95 94 93 89 78 89 88 87 86 90 88 87 85 89 88 86 87 94 97 98 99 98 97 96 96 96 97 97 97 97 97 95 95 96 96
92 94 94 96 96 97 98 98 96 91 90 92 84 76 79 79 85 87 88 85 92 83 87 89 91 91 92 94 96 96 96 96 95 95 96 96 97 97 98 97 96 95 92 85
94 85 98 90 98 99 98 97 96 88 88 91 92 89 83 74 78 83 79 90 91 91 89 84 84 89 90 92 95 94 93 95 95 98 97 97 96 96 97 96 95 84 80 78

GFSNGP_sfc_rhum_060.txt.gz
RH
55 64 70 69 62 58 79 61 71 51 46 36 34 36 37 35 36 34 35 45 51 53 51 52 56 59 57 56 57 57 61 64 66 64 66 69 71 69 66 66 66 68 72 75
82 60 63 70 60 60 59 55 53 51 54 40 38 36 37 36 35 37 37 38 45 50 52 53 54 58 60 60 58 58 60 63 64 67 68 72 73 75 76 76 75 75 77 73
79 61 58 65 53 53 55 57 54 62 47 38 43 43 44 42 40 39 38 36 37 43 49 52 52 57 62 62 59 61 60 61 64 67 73 78 81 82 84 87 85 83 82 78
82 63 71 45 40 46 48 45 45 50 47 42 45 45 45 41 42 42 37 37 36 38 44 48 50 60 64 65 62 63 64 65 67 73 79 84 88 89 92 91 90 88 87 83
76 63 48 53 55 52 52 55 47 50 50 51 50 54 42 40 42 42 40 34 33 36 40 48 56 64 67 71 69 70 70 69 71 76 86 91 93 94 93 95 92 91 85 83
64 71 58 45 48 48 47 58 52 54 53 58 59 61 44 46 46 48 42 38 44 47 46 53 57 60 67 71 73 75 72 73 72 78 87 93 94 100 93 92 100 85 100 100
65 67 48 41 47 46 64 62 55 56 60 60 64 58 53 45 51 56 60 58 59 57 57 58 62 66 71 73 87 74 71 74 78 83 90 94 97 93 98 97 97 97 97 94
64 72 71 49 53 58 61 46 46 45 50 62 61 61 56 53 57 62 66 68 65 64 69 69 69 69 75 77 72 72 73 79 84 88 89 90 93 98 96 90 82 71 62 58
60 54 55 49 54 56 43 43 41 43 44 56 53 58 59 58 58 59 64 66 64 65 69 68 70 66 71 68 71 71 78 83 87 89 87 86 86 85 83 79 77 64 60 53
63 62 55 41 55 40 44 50 50 44 52 56 50 47 62 60 60 61 64 65 65 66 66 69 68 67 64 68 70 76 76 82 87 89 87 83 80 79 82 75 68 54 53 46
53 49 46 54 42 47 56 54 48 48 58 60 56 48 55 64 62 65 69 67 66 66 66 66 68 70 68 72 74 78 77 83 88 87 86 83 82 83 75 56 51 47 43 38
58 54 61 59 57 61 64 61 59 68 71 65 63 57 55 65 63 66 65 74 74 73 74 79 84 80 82 77 80 82 85 86 85 84 84 81 86 84 76 62 66 64 57 44
71 64 72 73 69 64 65 73 74 73 74 78 70 66 63 65 64 72 70 72 70 72 72 68 74 78 83 86 89 90 90 87 84 83 82 85 90 76 58 64 76 72 68 66
71 75 87 79 85 79 84 77 75 75 70 71 72 69 67 65 65 72 82 78 73 72 71 71 73 74 74 84 89 90 90 90 89 88 82 85 87 75 58 53 52 56 64 63
72 76 85 82 81 79 73 75 87 93 84 70 66 72 71 69 66 69 72 71 71 70 72 75 77 74 70 76 86 89 90 95 94 90 80 75 74 72 70 60 48 45 54 64
77 82 83 86 90 85 85 86 96 95 90 85 80 79 82 83 77 76 72 73 76 71 69 71 75 74 77 79 84 86 86 91 90 89 90 89 77 69 62 55 49 45 47 44
89 91 91 93 95 94 89 88 96 96 96 96 98 98 93 92 88 76 69 68 67 68 71 79 80 80 82 85 86 86 85 83 88 89 86 85 81 75 69 60 55 50 49 45
67 71 78 85 96 92 89 84 86 90 98 100 100 100 100 100 98 81 70 66 68 72 70 70 69 76 82 87 89 88 89 90 92 92 86 85 82 77 72 64 68 57 52 50
64 68 74 78 81 84 91 94 87 90 94 95 98 100 100 99 99 99 80 66 69 71 82 71 80 75 76 81 88 91 93 95 96 97 93 88 89 86 80 73 79 84 78 80
68 66 69 76 78 83 86 81 61 66 68 73 79 81 89 88 82 84 86 82 91 91 85 85 86 78 74 71 77 85 90 92 92 93 96 92 91 94 94 94 92 91 91 92
81 86 89 92 87 82 84 82 79 72 71 73 72 70 72 78 74 77 87 87 89 84 80 85 86 87 87 81 74 76 75 79 85 86 87 88 90 94 91 88 92 90 86 87
77 85 90 94 88 84 83 93 89 67 73 75 78 76 75 72 73 84 88 85 79 83 81 84 84 84 82 82 73 70 73 74 78 83 86 89 91 87 84 85 86 90 89 90
79 83 88 93 91 90 89 92 91 79 78 83 86 85 89 86 82 82 77 78 79 81 81 85 85 86 87 84 82 76 76 74 74 76 82 84 84 83 84 86 87 88 88 88
77 78 85 88 92 96 96 88 93 95 95 94 87 90 92 86 86 81 78 77 85 80 84 86 85 85 87 95 95 91 89 84 82 82 85 88 86 86 88 86 88 85 87 89
83 87 89 93 89 85 90 92 95 95 94 91 91 86 88 91 88 86 85 76 84 79 79 82 85 86 87 89 90 93 94 92 90 92 86 89 89 89 87 87 88 86 87 88
71 66 67 78 83 85 88 90 92 94 94 92 75 78 72 74 73 73 79 87 78 79 75 76 79 82 83 87 89 88 86 85 85 86 88 87 88 89 87 87 87 86 87 89
75 63 64 64 61 73 81 88 94 94 96 92 79 78 82 80 69 70 70 71 75 77 76 72 73 77 79 81 83 84 81 81 86 86 86 89 88 89 86 86 87 86 84 72

GFSNGP_sfc_rhum_063.txt.gz
RH
50 55 60 59 50 47 70 59 65 43 38 32 30 32 32 30 29 30 30 31 32 44 44 44 48 50 50 51 51 52 56 58 59 57 59 61 62 62 62 63 62 64 68 71
90 53 55 63 51 49 48 48 48 45 45 31 30 30 31 31 33 34 32 30 31 35 43 44 46 51 53 52 52 52 54 57 58 60 63 67 68 69 71 71 71 72 74 72
77 52 50 56 44 44 47 44 46 52 38 34 40 42 44 43 41 39 36 35 31 32 36 42 43 48 54 56 53 55 54 54 56 60 64 69 70 74 78 82 83 83 81 76
81 58 71 44 34 38 40 40 38 39 41 44 47 47 46 40 38 39 40 38 36 30 32 35 40 46 55 59 55 57 59 57 61 64 68 73 79 85 89 92 92 92 90 83
76 57 39 52 48 45 47 62 49 50 45 46 47 48 42 41 43 40 42 40 37 30 30 34 40 49 57 64 63 62 64 62 64 67 72 79 87 93 94 96 96 97 92 89
56 66 52 49 43 40 42 60 50 51 53 57 53 53 46 51 48 42 45 46 44 41 38 35 40 49 61 66 68 69 66 66 65 69 75 87 93 100 95 96 100 96 100 100
64 64 46 45 44 41 58 67 47 44 43 47 56 51 46 47 50 46 50 52 56 50 47 46 47 56 65 67 79 69 66 67 70 72 79 90 98 96 98 98 98 100 99 97
57 71 66 48 50 55 53 43 42 40 42 42 40 45 42 40 53 50 53 56 56 58 60 58 60 62 68 70 67 66 66 72 77 80 83 89 96 99 99 95 92 84 70 64
50 54 50 40 45 46 41 46 48 49 46 41 43 46 41 41 44 52 52 54 56 60 64 63 64 62 66 63 63 65 69 73 76 78 83 86 90 92 92 86 83 76 66 61
60 54 53 38 41 41 40 49 52 49 45 45 54 50 48 44 40 54 53 56 56 60 62 63 61 60 57 58 62 65 70 73 81 91 90 87 86 84 84 85 84 75 63 60
49 38 37 37 40 42 52 55 54 51 55 63 62 61 53 49 42 51 57 61 63 61 61 60 60 61 57 61 64 70 74 81 88 86 88 88 85 82 83 76 72 68 57 54
42 47 53 51 48 56 62 64 58 67 70 67 69 74 66 60 50 52 58 66 71 76 73 70 65 71 76 72 79 84 85 83 89 92 92 89 87 87 81 77 65 62 55 49
59 57 65 65 63 60 68 74 73 71 68 72 66 66 66 64 58 60 60 64 74 78 81 68 74 78 77 79 84 91 92 96 94 92 92 88 87 89 90 82 76 67 69 70
56 64 72 67 72 69 75 75 73 69 67 74 77 64 62 65 64 62 62 64 66 66 67 64 66 68 67 75 84 87 89 91 94 95 91 91 88 87 81 59 69 75 75 74
56 58 65 67 70 69 71 77 81 82 82 82 75 78 70 72 71 67 64 64 66 67 71 68 69 70 66 72 83 86 89 93 93 94 94 91 94 91 80 64 62 57 72 72
50 54 57 67 73 76 77 78 84 84 84 90 90 88 90 90 82 82 79 74 77 73 65 65 67 66 69 73 81 84 85 90 92 95 97 96 95 94 81 76 73 65 53 53
84 81 74 80 72 72 85 80 80 80 82 87 85 87 92 96 97 93 93 87 79 70 66 75 76 73 77 82 85 88 89 90 93 96 95 93 90 84 78 73 68 61 55 51
50 55 60 63 77 77 83 83 82 85 86 86 91 96 96 98 99 98 99 96 95 97 83 74 75 75 79 83 87 92 93 95 95 97 94 93 91 87 83 84 85 91 86 60
46 52 58 55 59 66 77 89 86 89 83 86 90 91 95 98 99 98 99 99 99 99 93 80 89 81 78 80 85 94 97 98 97 97 96 92 93 90 85 81 76 79 86 88
58 59 59 60 61 68 72 72 72 73 69 63 65 68 66 69 91 88 77 97 94 91 83 81 86 90 86 77 76 85 96 99 99 99 99 98 99 98 94 91 95 96 96 95
77 84 84 83 77 77 76 72 76 79 74 68 73 70 72 63 61 74 91 89 88 87 83 82 89 88 89 91 84 82 85 91 95 96 98 99 99 98 97 95 92 92 90 92
75 82 86 87 80 74 76 80 84 92 85 66 71 74 81 78 70 73 84 87 76 79 80 83 86 89 90 84 81 76 82 81 82 88 91 92 96 96 95 94 96 94 96 95
65 72 80 84 82 81 81 81 81 96 94 84 81 83 89 94 95 88 78 80 79 79 81 83 85 84 86 90 90 85 82 82 79 79 80 81 82 82 86 91 95 96 96 96
66 70 77 79 85 89 90 81 80 95 96 95 95 96 91 91 95 95 90 79 81 84 84 86 87 84 87 94 98 96 93 91 85 83 82 83 88 91 94 94 93 92 92 90
81 82 83 85 83 69 77 82 87 97 96 93 94 95 97 95 96 96 96 88 81 84 81 78 82 84 87 90 92 91 93 94 94 94 93 93 91 90 87 85 86 88 90 87
69 58 54 64 66 69 73 77 83 89 96 91 92 87 94 95 90 82 87 88 85 77 75 74 76 79 81 85 88 89 87 86 86 88 90 90 86 89 87 85 85 87 86 90
74 64 60 59 53 52 58 65 74 80 88 95 94 96 95 90 89 80 70 76 83 85 74 70 72 74 77 79 79 80 81 82 86 90 90 88 89 90 87 87 86 86 86 92

GFSNGP_sfc_rhum_069.txt.gz
RH
70 66 76 74 72 71 79 72 80 62 63 57 57 55 55 59 60 56 54 52 54 56 62 75 78 77 77 77 77 76 78 80 82 82 82 83 83 82 82 81 83 85 86 85
88 65 66 79 67 67 66 66 67 66 65 54 59 66 64 67 59 57 56 53 53 54 56 63 78 78 77 77 79 77 79 80 80 81 84 87 89 90 89 90 90 89 89 81
91 68 68 76 65 66 68 64 63 73 62 65 70 66 69 73 72 70 63 57 57 60 62 62 65 73 77 76 77 78 80 80 81 83 87 91 91 92 92 92 91 91 90 83
94 82 82 59 52 54 62 67 62 64 69 70 70 70 72 66 66 70 70 62 65 67 68 68 66 78 76 79 75 78 81 82 83 85 90 92 91 92 89 95 95 95 93 89
94 93 68 70 62 61 69 82 67 71 65 61 54 73 80 58 50 62 67 67 69 72 75 75 72 70 85 84 81 81 81 82 84 86 91 92 93 94 94 98 98 98 95 95
87 88 84 69 57 52 53 89 62 58 56 58 58 79 74 52 50 54 51 49 59 74 77 81 78 79 89 86 84 82 82 85 86 88 90 93 94 97 97 98 100 99 100 100
86 92 78 67 60 56 70 73 61 61 63 66 71 66 58 51 56 58 58 55 54 76 81 85 87 88 90 92 90 89 86 86 89 91 93 93 95 99 99 100 100 100 100 99
87 95 93 58 69 77 70 65 67 68 70 72 68 63 61 68 71 68 67 59 55 72 81 85 84 87 89 90 88 88 88 90 92 93 91 94 98 99 100 99 98 98 96 92
77 79 61 62 66 70 70 77 81 82 77 76 78 80 76 76 75 74 74 71 65 66 80 84 86 86 89 88 91 90 91 93 94 94 95 92 97 98 98 96 96 95 93 88
72 77 70 75 78 76 77 80 80 80 82 79 79 72 71 68 67 67 70 75 72 70 78 84 86 88 88 89 90 91 93 95 95 96 95 95 98 97 98 98 97 94 92 85
74 73 73 83 82 82 77 76 77 74 75 73 74 75 72 72 72 67 65 72 75 76 76 74 74 79 84 87 90 92 93 95 96 94 91 96 95 95 96 88 86 91 88 80
76 77 78 81 86 80 86 83 79 82 80 75 75 76 72 74 72 76 75 68 72 82 83 79 78 77 76 79 83 84 88 92 92 95 93 96 98 97 88 84 84 82 80 75
82 80 82 84 82 84 84 83 83 84 86 88 73 76 79 78 71 73 82 75 77 75 74 73 79 83 80 82 88 88 86 92 94 96 97 98 98 98 99 94 84 84 84 77
78 80 84 84 85 79 82 83 82 83 81 72 70 70 74 80 76 78 82 84 85 81 78 74 72 75 83 88 88 87 89 90 95 97 96 96 97 96 98 99 98 98 86 78
66 71 76 74 72 75 75 77 86 87 82 78 69 69 72 76 76 78 76 76 81 82 84 81 76 75 82 86 91 92 92 96 95 94 96 94 96 96 97 98 99 94 94 87
71 76 80 82 82 83 85 84 85 82 81 82 76 68 72 82 78 74 75 74 86 88 87 84 88 79 81 84 91 91 92 94 92 96 97 97 98 98 98 98 99 92 83 79
87 78 81 84 81 82 83 80 86 83 81 81 72 70 84 88 78 75 70 72 82 85 89 93 92 94 92 89 88 91 93 93 94 97 98 97 97 98 97 98 98 96 90 77
65 68 72 76 86 84 79 76 77 80 87 84 78 78 83 92 94 91 84 74 81 83 85 96 98 98 99 99 99 98 97 97 96 98 98 98 98 97 98 97 97 97 93 84
64 66 71 73 78 84 89 89 88 85 86 88 87 84 82 90 92 91 92 97 92 88 82 96 98 98 98 98 98 99 98 98 98 98 98 97 98 98 98 98 97 96 98 96
73 73 76 80 82 87 89 82 82 83 81 88 86 75 76 93 90 93 90 92 91 87 95 96 97 98 98 98 98 99 98 99 99 99 99 98 98 98 98 98 98 98 99 98
84 86 87 88 83 82 86 84 86 83 80 90 90 80 81 93 93 97 97 94 84 93 93 89 95 98 98 97 98 99 99 99 100 100 99 99 99 99 99 99 99 99 99 99
86 88 84 84 87 83 76 83 88 86 90 92 91 87 91 95 94 97 93 97 95 94 89 97 97 94 95 97 99 99 99 100 99 100 100 100 100 99 99 99 99 99 99 99
86 86 85 87 86 82 86 86 85 88 92 91 93 90 94 95 97 97 95 96 99 96 97 98 92 89 83 100 100 99 99 99 99 99 99 99 99 99 99 99 99 99 99 99
86 87 89 87 93 95 92 76 87 82 88 89 90 91 95 96 96 97 98 98 95 96 98 93 92 86 87 98 98 99 99 99 99 99 99 97 98 98 98 98 99 99 99 99
88 91 93 93 93 85 83 83 89 85 89 84 81 87 94 95 98 98 99 97 94 96 97 92 87 87 96 97 98 98 98 99 99 99 99 99 99 99 98 98 98 97 98 98
84 81 80 84 87 83 79 84 90 82 86 88 79 86 82 95 98 98 99 96 97 95 96 93 91 93 94 97 97 96 96 96 96 97 97 98 98 98 98 98 98 98 98 98
94 80 86 83 76 85 83 82 91 91 77 88 91 88 94 96 98 97 96 97 96 96 95 90 88 85 88 96 92 90 95 96 92 97 97 98 98 98 98 98 98 98 99 99

GFSNGP_sfc_rhum_072.txt.gz
RH
80 74 80 81 78 77 82 74 76 61 56 65 59 58 65 70 62 57 59 58 60 63 67 67 75 81 84 83 82 82 84 88 88 88 88 88 88 87 86 88 88 88 90 90
86 68 68 80 74 75 77 72 74 68 68 63 70 73 71 71 72 74 71 64 63 64 67 67 70 76 83 84 84 82 83 84 84 86 87 90 90 90 90 91 92 92 92 91
92 73 64 75 66 72 73 72 68 77 66 72 76 75 76 73 69 69 66 61 65 68 73 74 74 70 78 83 85 84 83 84 85 86 89 92 92 93 93 93 92 92 92 91
93 79 85 62 55 60 71 75 71 77 77 70 68 72 68 62 63 62 62 57 57 59 65 72 79 79 79 87 88 84 85 85 86 88 91 92 94 94 94 95 95 95 95 93
91 93 70 70 66 65 77 87 69 71 64 60 57 78 77 56 54 62 63 60 59 59 66 78 79 81 85 90 90 88 85 85 87 89 92 94 95 95 95 96 97 97 96 95
91 89 85 68 62 60 61 89 66 62 70 70 65 76 76 62 60 68 68 66 65 62 63 77 76 91 92 92 93 88 83 84 89 90 90 93 94 96 95 96 100 99 100 100
88 92 79 70 67 62 71 68 73 72 73 76 75 69 65 65 76 77 77 75 72 70 71 75 82 91 91 93 95 88 89 90 91 92 92 93 95 97 97 99 100 100 100 100
90 95 94 65 74 72 71 78 77 80 79 80 78 75 75 79 80 79 80 77 76 81 80 74 83 92 91 93 90 90 89 90 92 94 92 92 97 100 99 99 99 98 98 98
80 82 69 81 77 82 72 80 86 86 82 84 84 84 81 78 74 72 68 70 77 82 81 77 82 90 92 89 90 91 91 92 94 95 96 96 98 99 99 98 98 98 98 98
81 79 88 88 85 82 84 86 86 86 85 84 86 81 72 68 76 72 72 68 64 80 85 85 78 86 90 90 90 93 93 94 96 97 98 98 98 97 98 98 98 98 98 95
80 88 89 90 89 87 86 86 85 83 83 84 85 82 77 72 69 68 70 74 76 71 87 90 86 78 78 83 88 94 94 95 97 96 95 98 95 96 98 91 90 95 94 90
83 77 79 85 87 85 86 87 86 90 92 89 89 78 74 77 76 73 71 73 83 80 80 84 81 77 80 78 86 88 91 93 93 94 93 95 98 98 90 89 88 87 84 85
84 84 83 85 85 85 86 85 86 88 90 92 83 68 67 71 74 76 76 76 74 79 85 87 84 79 72 82 87 91 92 94 95 96 97 98 98 98 98 96 90 94 93 87
81 82 86 85 83 79 78 81 79 85 88 85 83 79 72 65 67 70 76 73 72 73 78 78 86 84 75 84 92 90 90 92 96 96 96 96 98 98 97 98 98 98 97 96
72 76 75 80 80 77 79 82 86 87 86 84 82 83 79 66 68 75 74 70 69 73 77 78 82 84 79 79 88 96 94 94 94 94 96 95 97 97 96 98 98 98 99 98
76 79 80 81 79 79 84 84 88 88 86 87 87 84 77 77 78 79 74 71 75 76 75 79 86 82 82 86 86 88 94 95 94 97 98 98 98 98 98 98 98 98 98 98
85 74 80 88 80 82 81 84 86 87 86 88 85 84 85 81 84 84 86 80 80 70 72 76 84 84 94 97 97 93 91 95 95 98 98 98 98 98 97 98 98 98 97 89
68 68 74 79 88 85 82 81 84 84 84 84 87 91 93 92 91 88 90 88 90 86 87 86 84 97 97 97 97 98 97 97 98 98 98 98 98 98 98 98 98 98 97 96
68 70 75 74 81 86 91 91 90 90 90 90 94 93 93 92 88 84 88 97 96 96 85 86 92 96 94 96 97 97 98 98 98 98 98 97 98 98 98 98 98 97 97 98
74 75 77 80 80 84 86 84 87 88 83 86 87 92 94 90 84 87 94 96 92 86 85 86 96 95 92 97 93 97 98 98 98 98 98 98 98 98 98 98 98 98 98 98
85 85 86 85 81 77 80 87 88 85 75 81 92 93 92 89 76 82 95 96 81 83 93 96 98 97 97 90 94 98 98 98 98 99 99 98 98 98 98 98 98 98 98 99
91 91 87 87 87 83 78 84 86 86 86 83 86 92 94 84 81 86 90 96 93 90 98 98 98 93 91 88 99 99 98 97 99 99 99 99 99 99 99 99 99 99 99 99
88 89 88 90 88 86 88 89 86 81 82 87 89 89 92 86 85 95 94 90 97 97 98 97 96 96 92 99 99 99 98 98 99 99 99 99 99 100 99 99 99 99 99 99
82 84 88 87 94 94 92 78 87 80 88 86 89 89 93 93 85 90 95 96 94 96 98 97 97 96 96 100 99 98 98 99 99 99 99 97 99 99 99 99 99 99 99 98
87 90 94 91 92 89 89 87 89 87 87 88 86 87 91 95 98 90 98 97 94 96 98 92 95 95 98 97 99 97 98 98 99 99 99 99 99 99 98 98 98 98 98 98
79 75 79 87 89 89 91 92 92 86 85 88 86 80 91 91 94 94 98 94 97 94 97 96 96 97 94 96 96 96 98 98 96 97 97 98 98 98 98 98 98 98 98 98
90 79 91 93 88 90 91 90 86 89 87 93 91 83 91 92 95 89 92 98 97 97 96 93 88 88 92 94 89 89 92 93 94 96 97 97 98 98 97 98 98 98 98 98

GFSNGP_sfc_rhum_075.txt.gz
RH
80 75 83 84 82 80 84 76 76 71 58 74 64 70 80 76 69 71 72 70 72 75 79 79 78 77 78 84 88 87 88 89 89 90 90 91 90 90 90 90 89 89 90 90
87 70 69 80 80 81 81 77 79 69 77 65 81 77 82 83 75 68 67 64 64 66 69 78 82 80 77 80 84 88 89 89 89 91 90 91 91 91 91 91 92 92 92 92
90 75 66 77 70 78 79 78 74 84 71 81 82 81 75 68 62 65 66 61 61 63 65 70 78 79 83 82 84 90 89 88 89 90 91 92 92 93 93 93 93 93 93 93
92 78 85 68 63 61 77 79 86 84 81 73 74 79 68 64 67 64 65 65 66 66 63 63 72 80 82 86 89 92 91 89 89 91 91 93 94 94 94 95 95 95 95 94
90 92 71 72 67 78 78 85 76 79 68 65 64 82 77 61 60 68 68 69 71 70 68 66 73 78 86 89 92 94 92 89 90 91 92 94 95 95 95 96 97 96 95 95
90 91 88 69 68 64 71 81 68 65 70 73 71 95 81 72 72 79 78 79 78 77 77 79 76 86 94 91 93 95 93 91 91 91 91 93 94 96 96 96 99 99 100 100
88 93 78 67 73 64 78 71 73 73 76 82 76 70 71 73 79 79 80 80 81 83 85 84 82 86 92 92 92 91 93 91 92 92 92 92 95 97 97 97 99 100 100 100
87 89 93 72 77 70 71 84 78 82 85 86 84 84 83 83 84 82 81 78 78 87 82 80 82 88 90 93 88 92 93 93 93 94 94 94 96 99 98 99 99 98 99 99
81 83 78 89 84 86 76 80 86 86 88 90 90 89 87 85 82 82 80 74 76 77 79 80 87 91 94 88 91 92 93 93 93 94 96 96 98 99 99 99 98 98 99 98
82 83 90 90 88 86 84 86 88 88 89 90 93 91 90 85 80 75 71 69 67 73 77 75 88 88 77 81 91 94 95 94 95 96 98 98 98 98 98 98 98 99 98 98
83 91 91 89 89 88 88 86 88 88 90 92 93 92 92 80 76 76 78 77 75 79 83 81 83 87 78 71 81 92 95 95 96 97 97 98 97 97 98 93 92 97 97 96
88 80 82 84 87 86 85 85 87 92 91 89 91 92 81 75 71 66 70 68 78 78 76 74 76 81 86 78 77 88 94 94 94 96 95 96 98 98 89 88 89 88 86 89
80 84 83 87 88 86 82 83 84 88 88 91 87 88 85 81 75 67 63 66 73 82 78 73 76 79 75 82 82 89 94 94 96 97 97 98 99 98 98 95 90 90 91 90
84 84 87 84 80 84 82 79 81 84 86 86 85 84 85 86 79 73 70 66 66 69 74 75 75 76 75 81 85 85 87 94 97 96 97 97 98 98 97 98 98 98 92 92
77 76 69 81 80 81 83 82 85 83 83 84 83 88 87 88 86 76 69 69 71 73 73 74 71 72 72 78 84 87 88 92 97 97 98 96 97 98 98 98 98 98 99 97
77 78 80 80 77 75 79 79 84 85 83 84 86 85 85 86 85 82 79 80 88 82 77 77 72 74 75 79 88 92 90 88 90 98 99 99 99 98 98 98 98 98 98 98
81 68 80 87 79 80 79 81 87 88 87 86 83 82 88 92 94 94 91 88 87 80 85 85 79 76 79 84 93 96 96 96 95 94 99 98 98 98 98 98 98 98 98 98
68 70 77 78 88 85 82 81 84 87 88 84 86 90 93 94 94 91 90 88 86 88 93 89 86 84 84 96 92 96 96 96 96 97 98 99 98 98 98 98 98 98 98 98
73 74 78 75 82 86 90 91 90 88 89 90 92 92 91 91 92 91 90 88 84 86 82 88 84 84 93 93 89 89 95 96 98 98 98 98 98 98 98 98 98 98 97 98
71 73 74 78 77 82 85 82 87 90 86 88 89 92 92 90 90 91 89 80 78 82 84 91 92 93 96 94 90 84 87 94 96 97 98 98 98 98 98 98 98 98 98 98
84 86 85 82 79 76 79 84 89 89 78 78 84 84 84 82 89 93 87 84 78 84 92 95 97 98 97 92 87 90 95 96 95 96 96 96 98 98 98 98 98 98 98 98
90 91 87 86 86 81 78 84 90 87 87 84 80 86 90 90 89 92 85 86 84 85 90 97 98 96 96 89 96 99 97 98 96 96 97 97 98 98 98 98 99 99 99 99
84 87 86 87 84 84 90 89 86 85 87 87 85 82 89 87 89 98 92 84 87 94 97 97 96 96 94 98 98 98 99 97 97 97 98 99 99 99 99 99 99 99 99 99
79 78 84 89 94 94 91 84 90 89 91 89 88 85 88 94 92 94 93 86 88 89 95 97 95 94 97 98 98 98 98 98 98 98 99 98 100 99 99 99 99 99 99 99
88 88 94 90 90 86 91 91 95 93 92 91 88 88 91 92 96 88 95 88 89 91 96 91 89 91 97 98 97 97 97 98 99 99 98 99 99 98 98 99 99 98 98 99
85 83 81 87 89 92 94 96 96 92 94 95 88 86 90 91 94 91 95 93 96 94 97 96 97 98 97 96 97 97 97 96 98 98 98 98 98 98 98 98 98 98 98 98
94 80 93 95 91 93 93 88 90 95 93 95 91 87 92 91 94 86 85 96 98 96 96 96 96 95 96 96 90 90 93 96 94 96 96 97 97 98 98 98 98 98 98 98

GFSNGP_sfc_rhum_078.txt.gz
RH
82 79 84 84 84 82 84 76 73 72 69 67 62 73 83 81 83 72 68 64 66 69 73 77 80 81 81 81 84 88 90 90 90 90 90 91 92 91 91 91 90 90 91 91
86 71 66 81 78 85 83 81 77 69 77 75 82 85 89 85 69 66 63 61 61 65 66 68 75 81 85 85 87 89 91 91 90 91 91 92 92 92 92 92 93 92 92 92
90 77 68 75 76 82 84 83 81 81 70 84 86 85 80 68 61 64 67 66 69 71 72 70 70 73 86 87 88 92 92 92 91 92 93 93 93 94 94 94 94 94 94 94
91 78 82 66 70 68 78 83 86 87 84 76 84 79 68 64 70 72 73 75 76 78 75 74 71 74 80 87 91 92 92 93 92 92 93 93 94 94 94 95 95 96 95 94
90 94 71 74 76 83 81 80 82 82 70 68 77 77 80 66 69 81 83 82 82 83 81 82 82 79 82 85 90 92 90 93 93 92 93 94 95 96 95 96 96 96 95 96
89 91 88 74 76 73 75 78 75 69 72 75 88 88 88 75 77 82 84 84 85 84 83 83 77 82 87 86 88 90 86 90 94 93 92 93 94 96 96 95 97 98 100 100
81 94 79 75 74 67 81 72 78 74 78 82 76 76 79 83 83 84 85 84 83 85 88 84 83 89 93 92 94 88 89 93 95 94 94 91 95 96 97 96 99 100 100 100
84 83 92 85 76 75 71 85 83 84 85 86 87 87 86 87 89 88 88 84 83 90 88 86 84 92 94 94 86 91 92 94 95 95 96 96 95 99 97 98 98 98 98 99
83 78 80 90 86 86 80 83 86 85 89 90 91 91 92 93 91 90 85 83 81 85 90 82 80 94 96 88 78 82 94 95 95 94 96 96 97 98 99 98 98 98 99 99
81 83 86 89 88 87 86 87 88 89 90 91 94 93 93 92 90 88 85 77 85 84 86 87 82 80 89 88 84 78 87 91 95 96 96 97 98 98 97 98 98 98 99 98
86 84 90 87 87 86 87 86 88 89 91 93 91 87 90 89 82 80 77 77 78 87 85 84 78 74 70 72 86 90 89 92 95 95 96 98 98 97 98 93 92 97 98 97
86 78 82 80 86 85 82 82 86 91 87 87 89 88 88 89 84 81 78 75 77 77 76 80 82 79 75 71 74 84 88 88 93 95 95 97 98 98 91 89 89 88 86 90
76 85 81 88 88 86 82 83 86 87 86 88 87 88 88 90 88 79 80 79 79 76 74 73 77 78 74 72 76 80 86 89 90 96 98 98 99 99 98 96 91 91 92 90
86 85 87 86 82 86 82 81 80 83 84 83 84 85 86 89 85 86 86 79 74 72 74 75 76 75 70 72 76 78 78 86 90 93 98 98 98 98 98 98 98 98 92 91
76 76 70 81 78 80 80 80 79 78 80 82 81 84 85 86 86 84 80 81 81 82 85 82 77 77 72 76 80 83 82 87 89 88 95 97 98 99 98 98 98 97 99 95
72 77 80 77 76 74 79 78 81 80 82 84 83 78 78 86 90 88 88 90 95 91 85 84 81 80 80 78 82 84 83 88 92 93 93 98 99 98 98 98 98 98 98 98
76 62 77 82 70 76 78 81 86 87 86 86 82 78 82 85 86 88 88 91 94 92 90 86 77 81 86 84 87 83 92 88 87 94 98 98 98 98 98 99 98 98 98 98
64 67 75 76 88 84 80 80 83 87 90 86 85 89 93 94 92 88 86 89 94 88 81 76 73 87 90 90 87 92 92 90 86 96 97 98 98 98 98 98 98 98 98 99
72 68 73 73 82 84 89 89 89 88 87 88 91 90 88 90 91 91 91 94 95 90 76 71 83 88 94 93 87 98 95 90 84 89 97 98 98 98 98 98 98 98 98 98
68 71 72 77 74 80 79 79 84 88 86 90 90 90 87 85 84 90 91 94 92 87 75 87 92 93 94 92 90 98 96 90 92 92 97 98 98 98 98 99 98 98 98 98
82 85 84 81 76 71 76 81 86 90 80 81 86 85 82 76 84 90 96 93 80 84 81 84 91 89 96 91 94 96 97 96 95 97 90 95 96 96 98 98 98 98 98 98
90 90 85 86 86 78 75 80 87 87 87 86 84 85 85 86 82 86 85 92 82 80 74 84 93 92 90 92 98 97 98 98 97 94 90 93 96 97 98 98 98 98 98 98
88 88 86 87 86 85 88 88 82 84 88 91 91 89 90 87 84 88 90 84 93 90 80 91 92 87 84 93 98 97 97 97 96 96 96 96 97 98 98 98 98 98 98 99
88 88 91 88 95 94 91 85 90 90 94 92 91 90 94 96 91 92 88 84 81 83 80 88 90 89 82 97 97 97 97 97 97 98 97 96 98 98 98 99 100 99 99 99
92 94 96 94 94 92 93 93 96 95 94 92 92 90 91 91 95 91 93 93 89 87 85 91 88 91 96 98 96 97 97 97 98 98 98 98 98 98 98 99 99 99 99 99
92 91 92 94 96 96 93 92 94 93 92 94 92 82 81 85 94 91 94 92 93 92 88 98 97 98 99 98 98 97 96 96 97 98 97 98 98 98 99 99 98 98 99 99
97 85 96 94 87 86 88 77 85 89 85 89 88 81 88 88 89 87 88 94 96 96 97 96 97 95 97 96 95 95 95 95 93 98 97 97 98 98 98 96 97 97 97 98

GFSNGP_sfc_rhum_081.txt.gz
RH
78 74 80 80 80 78 79 69 66 62 68 64 63 74 74 77 72 62 58 58 61 63 62 62 63 64 65 69 74 78 78 77 78 80 81 81 82 80 79 78 76 76 77 79
84 68 65 78 78 82 75 70 70 65 63 63 73 79 82 72 62 61 62 64 66 67 68 68 69 67 70 72 72 78 80 80 79 80 82 83 84 83 84 82 80 79 78 76
88 74 66 70 71 73 79 80 73 69 68 77 82 84 72 62 63 66 69 70 72 73 74 73 71 70 74 75 76 78 81 79 80 82 85 85 84 84 84 85 85 83 82 81
90 74 81 60 65 66 70 78 83 82 76 75 84 73 64 64 68 72 74 75 76 74 75 74 72 74 76 77 78 80 81 81 81 85 86 86 87 87 86 87 86 87 88 86
90 92 67 69 69 77 76 74 80 75 67 72 72 67 68 65 70 76 78 78 78 77 77 78 77 77 81 83 84 85 84 83 83 87 90 89 90 91 88 90 90 92 89 90
86 90 83 66 70 71 70 68 73 68 67 75 83 76 76 73 77 78 79 78 78 79 78 79 77 79 85 84 86 84 84 86 85 88 92 92 89 95 91 90 96 92 100 100
82 93 78 67 67 67 78 63 72 69 72 74 69 69 74 80 81 81 81 79 78 80 82 82 82 84 90 89 90 82 84 87 87 88 92 92 93 92 94 94 98 99 100 100
86 91 88 81 76 72 68 82 76 78 80 79 82 82 82 85 86 86 86 82 81 83 84 84 79 88 86 88 84 84 81 87 88 88 89 93 93 95 96 93 95 95 95 95
78 75 74 85 84 83 78 78 81 80 85 86 86 84 86 86 86 86 84 83 82 83 86 78 82 82 83 78 72 77 85 84 85 87 89 90 92 93 91 92 96 96 97 96
80 81 83 86 88 85 84 85 86 86 86 89 91 87 85 84 85 82 79 78 77 81 83 82 80 77 75 74 72 69 80 80 82 90 89 90 93 95 93 97 97 98 98 97
86 82 87 86 85 84 86 83 87 87 88 90 89 80 81 84 82 79 78 76 74 80 80 78 77 78 74 72 72 67 76 78 79 82 90 91 94 94 95 87 89 96 96 95
83 78 80 79 86 84 80 75 81 88 83 81 86 84 83 83 80 80 78 79 82 80 80 77 76 77 75 73 74 71 76 73 76 86 84 94 97 96 92 92 90 89 88 89
76 85 79 89 88 85 76 77 81 86 84 82 80 82 81 81 80 72 74 80 81 79 77 75 78 78 73 73 73 74 78 79 76 79 82 90 98 99 99 96 93 94 93 91
86 85 86 88 86 86 78 79 76 79 78 77 78 78 80 80 79 78 78 74 78 81 80 79 79 79 70 73 76 79 81 81 80 82 90 91 95 98 98 98 98 98 95 94
75 76 65 82 77 78 74 74 72 70 71 75 75 78 78 75 73 70 71 74 78 85 86 84 85 81 74 77 81 82 81 83 84 81 83 88 92 98 98 98 98 97 99 96
72 76 80 76 69 69 73 71 76 73 76 80 83 81 76 75 78 78 79 83 90 80 78 85 86 77 70 72 83 82 79 83 81 75 79 87 97 98 98 98 98 98 99 97
79 64 72 80 71 68 68 74 80 82 83 84 80 79 81 79 80 79 74 79 80 85 84 86 86 82 77 81 88 87 86 83 83 76 78 84 95 97 98 98 98 98 98 97
56 58 72 69 84 77 75 75 79 83 87 84 86 89 93 92 90 82 78 80 85 86 82 83 81 79 80 86 90 89 87 88 92 86 80 89 92 97 97 98 98 98 98 98
71 67 70 68 78 83 87 87 86 86 87 88 91 88 87 89 88 86 82 90 91 91 74 79 79 82 90 88 88 86 90 92 87 84 78 84 93 94 97 98 98 98 98 98
69 70 72 76 75 80 81 76 79 85 82 86 86 89 88 85 80 81 81 90 85 76 77 84 88 84 79 81 84 89 91 90 90 88 90 92 96 95 91 97 98 98 98 98
85 89 86 84 82 76 75 78 82 83 75 78 82 83 81 78 82 83 88 87 71 73 80 82 80 75 80 85 84 89 93 93 94 93 94 94 90 87 90 90 96 98 98 98
91 92 90 89 88 82 76 81 85 84 82 81 83 85 87 88 85 86 81 87 76 75 77 84 73 74 84 84 95 93 96 96 95 94 93 90 92 90 91 93 95 98 99 98
91 92 93 92 91 90 91 89 87 86 89 91 92 92 92 89 91 94 90 81 82 87 86 85 76 73 81 92 96 95 94 94 93 92 93 93 94 94 95 96 97 98 99 99
92 94 95 94 96 97 97 92 95 92 94 93 93 92 95 94 90 85 87 86 84 88 90 88 83 84 83 97 97 97 94 95 94 95 94 92 95 97 97 97 96 96 98 99
96 97 98 98 98 96 95 91 93 89 92 91 90 90 93 83 92 92 94 91 88 89 93 82 79 92 96 95 96 96 95 95 94 96 94 95 96 96 96 96 96 96 97 96
95 97 97 95 95 96 89 89 89 83 81 82 78 74 77 83 85 84 90 89 90 90 94 91 95 96 95 95 95 94 94 93 93 93 94 95 95 95 95 95 95 96 96 96
98 84 97 88 82 83 86 80 85 88 83 84 86 82 84 83 86 85 87 92 93 92 90 93 96 95 96 96 94 92 92 92 94 95 94 95 94 95 94 94 95 94 95 95

GFSNGP_sfc_rhum_084.txt.gz
RH
57 56 62 63 61 54 63 49 50 46 44 47 46 49 50 54 47 43 43 45 47 48 46 45 45 46 46 48 48 48 52 56 57 56 58 61 63 63 63 63 63 62 63 63
82 48 53 62 58 59 56 52 46 43 49 40 44 50 55 51 46 46 49 49 50 48 48 48 49 51 52 54 54 54 52 55 59 57 59 64 65 64 65 66 64 63 64 63
74 53 49 51 49 55 60 58 52 46 52 49 56 60 57 49 47 52 54 54 52 51 51 51 51 54 58 60 58 59 59 59 62 61 65 66 66 68 70 70 69 68 66 63
78 54 68 48 44 51 51 59 58 60 59 58 54 56 48 46 48 53 55 55 54 52 53 53 53 56 60 62 59 62 64 64 66 67 68 70 71 72 72 74 75 75 73 69
71 57 50 52 52 55 55 56 59 58 55 60 55 50 53 51 53 56 57 55 54 54 55 55 57 57 60 64 64 64 62 64 67 70 72 72 76 76 74 78 79 80 75 75
59 66 51 49 51 51 53 46 55 54 53 56 55 60 50 55 58 57 57 56 57 56 53 53 56 52 62 64 65 66 66 67 67 70 73 77 80 82 80 78 88 84 91 90
58 63 52 45 47 50 55 45 53 50 49 54 55 50 56 59 60 61 59 59 57 56 56 60 55 57 61 60 66 66 71 68 67 69 73 74 80 83 87 84 86 90 95 97
58 63 54 53 56 52 48 54 52 53 54 56 57 60 62 60 55 55 57 53 52 53 53 56 53 59 57 58 56 57 60 69 70 72 72 74 78 84 92 85 85 85 86 90
51 45 51 55 57 56 55 52 57 56 61 62 62 60 59 52 49 49 50 48 46 50 51 48 46 52 55 49 51 52 53 59 64 58 62 70 76 77 87 82 83 86 93 92
57 55 54 55 60 59 58 58 61 62 63 64 59 57 49 50 48 48 46 47 46 49 49 47 43 47 48 49 50 52 52 52 55 61 72 64 79 84 90 90 93 95 98 97
57 55 58 57 57 56 62 63 63 62 61 59 60 53 52 48 47 46 47 50 52 55 53 49 46 48 46 49 51 55 53 54 54 55 58 70 72 86 91 85 86 94 96 94
45 53 52 54 56 60 63 57 55 56 56 56 59 54 51 46 42 46 46 47 48 47 49 51 54 54 50 49 54 58 60 58 59 62 60 68 77 79 82 91 91 91 90 90
50 56 56 64 66 64 60 56 56 58 58 54 47 49 48 50 48 49 41 41 42 43 46 45 50 54 51 51 55 60 64 64 66 68 64 65 71 80 95 92 91 95 95 94
57 62 67 70 62 66 61 56 58 53 50 49 48 51 54 53 47 43 40 38 42 43 44 45 47 48 45 52 60 64 65 74 74 73 70 70 81 82 90 97 97 97 95 94
64 59 48 60 60 58 52 50 46 42 41 45 49 51 50 51 49 46 44 44 46 48 49 50 50 48 47 55 63 64 66 75 75 74 74 78 82 74 82 94 98 98 98 96
54 53 57 52 49 46 45 42 45 41 44 46 48 46 46 50 50 50 49 50 55 48 45 49 54 52 54 60 62 62 66 75 77 71 77 83 78 82 81 83 97 98 98 98
78 63 60 64 56 41 42 41 47 50 51 50 47 47 51 52 52 50 45 44 47 51 51 58 60 57 62 67 65 68 74 76 79 76 80 82 73 80 84 85 95 97 97 98
41 37 42 45 61 54 49 53 58 62 67 65 65 67 72 74 73 68 64 61 61 59 58 61 61 62 66 67 70 76 77 76 78 78 84 81 78 77 80 87 95 96 97 98
43 46 51 50 55 59 68 77 75 73 77 76 77 80 74 74 73 71 68 71 70 68 57 52 64 72 73 73 73 77 77 78 80 84 80 79 75 72 75 77 88 95 97 98
52 51 54 57 58 60 60 53 52 53 51 53 57 60 63 62 60 63 62 70 68 63 61 64 73 78 78 75 78 81 81 80 78 80 81 82 84 80 87 80 78 82 91 97
74 76 71 70 65 60 58 58 60 60 58 59 64 66 67 67 65 69 77 72 61 60 66 72 70 74 71 72 78 76 79 88 85 84 86 87 83 80 74 73 78 78 84 97
73 78 86 84 72 66 67 72 72 71 71 71 72 73 76 75 72 78 69 77 67 73 74 76 78 82 84 81 77 88 89 83 83 85 86 84 80 80 78 77 83 86 86 97
73 77 83 85 84 83 80 74 68 70 75 81 85 82 84 81 79 83 79 68 74 78 82 79 80 80 80 78 86 91 84 80 79 82 88 88 88 88 87 90 92 96 96 97
76 78 85 88 89 85 83 76 79 77 80 79 78 85 84 80 74 66 70 76 78 82 82 80 82 78 76 90 91 85 83 82 83 87 88 91 90 91 93 94 95 96 95 97
85 90 91 88 77 70 77 76 76 71 70 68 68 66 73 68 84 82 81 79 81 80 79 80 85 85 90 89 86 85 84 82 86 92 90 92 92 93 94 94 95 95 95 96
78 73 71 71 70 69 70 71 70 66 69 69 64 63 68 68 70 75 74 79 80 83 81 80 86 90 88 87 88 86 87 87 88 89 90 90 90 92 91 92 93 94 95 96
78 72 67 63 62 68 70 70 72 73 70 71 75 67 68 70 72 74 77 74 75 77 79 85 88 88 89 89 87 87 88 89 91 90 88 89 90 91 90 90 91 91 92 93

GFSNGP_sfc_rhum_087.txt.gz
RH
48 48 54 53 52 45 56 37 44 39 41 43 42 44 46 42 39 40 42 43 44 44 42 41 43 44 44 46 46 47 44 45 52 54 53 54 60 63 61 63 63 65 68 68
85 43 47 51 45 45 48 43 38 38 44 35 36 40 46 42 42 43 44 45 45 44 44 44 45 47 49 52 52 50 51 50 53 54 56 60 59 62 65 66 64 66 67 66
70 45 45 50 45 47 51 48 50 42 46 39 46 49 50 45 44 46 47 48 48 46 46 46 47 49 56 56 53 53 54 54 56 58 62 62 62 62 65 68 69 70 68 67
79 53 68 46 39 47 46 50 49 50 51 47 43 49 46 42 43 46 48 48 46 45 47 47 46 51 52 54 54 56 56 55 57 63 66 66 67 69 69 72 72 75 76 71
74 46 43 47 45 47 50 45 48 51 50 54 51 48 49 45 47 49 49 47 47 46 46 45 47 49 48 54 56 56 58 60 61 62 66 70 74 78 76 76 80 81 78 77
49 63 43 45 45 44 45 46 45 48 49 53 52 58 55 50 50 48 47 46 49 47 45 42 45 44 50 51 52 56 57 63 63 63 65 73 76 79 81 82 81 86 90 90
48 54 44 41 43 44 52 50 47 46 45 50 54 50 51 50 49 49 45 46 43 41 39 41 46 44 50 49 51 51 54 53 58 62 68 70 74 78 87 91 90 88 92 94
45 53 51 43 48 49 45 45 45 47 46 48 48 50 52 50 44 40 41 40 37 40 42 42 44 44 48 47 42 44 46 48 48 54 55 56 66 74 83 94 93 91 90 88
43 41 42 44 47 48 46 45 48 48 51 52 54 52 50 46 37 35 36 36 34 37 39 37 37 38 43 39 39 42 43 44 43 44 46 52 62 66 78 83 89 90 91 88
49 39 44 42 45 48 47 48 51 52 53 55 52 45 43 38 36 35 32 34 36 39 39 38 32 32 35 36 38 42 45 45 44 47 47 47 51 64 72 89 93 94 96 97
47 40 46 46 45 46 51 53 56 54 50 48 48 43 40 38 35 33 35 38 40 40 42 39 34 35 36 37 38 43 44 45 46 47 48 50 52 58 68 69 84 94 93 95
35 39 41 47 47 47 53 55 50 48 48 46 47 43 38 37 33 33 37 35 36 38 37 37 36 39 39 39 41 46 50 52 54 57 58 60 62 62 63 69 75 85 92 95
41 44 47 53 54 54 55 53 49 48 46 46 37 36 36 38 37 41 40 36 34 34 35 32 36 38 37 39 43 49 55 57 62 64 64 66 68 71 76 71 69 71 86 92
47 51 58 59 53 56 54 52 52 47 41 38 36 36 40 42 40 38 37 34 33 35 36 35 34 34 35 38 44 51 57 65 67 72 73 73 77 77 77 83 86 77 76 87
51 52 44 50 54 58 51 44 42 37 32 32 33 39 39 40 38 36 34 36 38 40 41 40 38 38 37 39 48 53 57 63 64 69 76 77 74 77 78 74 81 86 82 82
57 48 46 45 43 42 41 37 37 34 33 34 36 36 35 36 40 41 40 40 43 44 43 42 45 42 43 46 53 58 58 64 66 69 72 78 76 82 79 73 78 85 85 85
77 69 62 69 56 39 40 33 35 40 42 43 42 39 41 44 47 49 46 44 47 49 49 53 54 51 55 57 58 63 64 68 73 75 78 79 76 84 79 76 80 82 81 74
43 40 43 47 64 48 45 47 52 59 68 69 68 66 70 73 74 70 67 64 62 61 61 60 58 59 63 64 65 68 70 76 74 78 76 76 77 80 74 77 78 81 82 72
37 48 48 44 48 54 66 79 78 76 79 78 78 79 76 74 72 70 64 66 68 68 57 54 66 71 71 71 70 76 75 82 84 81 79 77 79 78 75 75 77 78 82 76
48 48 50 50 51 53 54 49 48 50 48 50 55 59 62 63 64 68 71 78 72 64 62 67 80 83 76 78 92 97 94 94 86 79 78 78 79 82 81 79 80 89 73 70
80 78 70 66 60 53 55 58 61 62 60 58 62 63 64 62 59 67 77 75 62 60 75 82 79 84 89 91 88 90 89 84 82 93 90 84 86 83 79 76 75 73 70 75
73 81 89 85 70 61 63 66 62 58 60 64 66 65 67 69 68 73 66 74 68 70 76 84 81 78 87 87 89 87 86 87 95 88 86 83 83 83 81 79 80 77 79 82
73 77 83 84 79 74 71 65 64 65 71 76 80 76 78 75 72 80 81 72 73 76 80 80 75 78 79 83 83 81 92 92 87 83 84 85 85 87 91 91 90 91 93 94
68 73 81 85 86 79 76 72 76 72 73 74 75 79 79 81 76 69 74 75 76 74 76 75 77 79 80 87 94 94 92 90 87 87 88 84 92 92 93 93 96 96 97 97
81 88 92 87 72 60 70 70 72 69 65 64 65 65 72 69 80 76 76 71 75 74 75 76 78 79 86 91 91 90 90 90 90 93 91 93 94 94 94 96 96 97 98 98
70 63 60 63 63 62 63 64 64 61 63 64 61 61 63 64 67 67 69 71 70 72 76 78 83 88 88 88 88 87 89 89 88 89 92 93 93 94 94 94 95 96 97 98
78 68 61 56 55 60 63 66 67 67 65 64 71 67 64 65 67 69 71 71 73 76 77 79 84 86 86 87 86 88 87 87 89 92 91 94 93 94 94 94 96 96 96 96

GFSNGP_sfc_rhum_093.txt.gz
RH
71 58 66 66 66 69 77 71 82 79 81 78 76 73 67 62 59 58 60 60 61 63 64 66 65 66 68 70 70 70 72 74 77 78 78 78 79 78 79 82 85 84 85 89
92 56 58 66 59 66 69 69 66 67 76 64 71 65 63 63 60 63 64 63 62 62 64 66 68 70 70 72 73 74 75 75 74 76 78 83 83 83 86 89 90 92 89 88
93 79 69 79 64 65 71 71 74 80 78 68 70 64 63 64 62 65 65 64 62 67 67 66 67 70 70 70 72 75 77 77 77 78 81 82 85 87 89 93 93 94 93 92
95 78 84 65 59 61 63 65 70 69 75 73 71 66 67 69 68 68 63 63 63 67 67 64 63 69 64 70 75 69 78 74 76 79 82 84 88 89 88 79 83 90 93 92
87 94 65 64 62 69 72 75 69 70 74 70 66 71 73 66 67 71 76 68 66 68 67 66 64 66 64 68 72 71 76 74 75 78 81 85 87 91 90 88 86 89 88 90
83 86 76 63 64 60 61 80 67 66 72 71 72 91 87 72 66 68 67 63 64 62 61 61 60 62 62 65 70 69 71 70 71 74 77 85 85 89 91 90 86 84 90 94
82 87 68 62 60 59 77 58 67 66 67 73 79 80 76 70 70 68 61 57 55 54 58 56 58 62 66 68 71 67 68 66 67 68 71 77 85 85 91 90 92 91 77 85
75 80 68 56 67 64 59 70 64 70 72 72 72 69 68 64 60 54 53 52 50 56 57 58 61 66 70 69 62 61 62 64 66 69 65 64 75 83 82 90 91 83 70 72
59 62 54 63 68 68 64 64 66 68 72 69 69 68 67 64 56 50 48 48 48 54 56 55 55 58 60 56 54 56 59 61 63 64 65 66 74 77 84 90 91 90 83 75
62 60 62 60 71 66 65 72 71 72 72 70 72 64 62 56 53 52 50 49 52 54 56 57 56 57 56 51 51 56 61 63 64 68 68 71 72 77 85 90 93 94 90 84
72 62 67 64 66 65 68 71 72 68 66 63 63 65 60 56 54 52 51 52 54 56 58 57 56 52 50 49 52 55 58 61 65 66 72 78 82 85 85 88 91 84 70 68
64 57 58 70 68 67 73 74 72 67 67 66 63 64 63 58 54 53 55 57 60 60 61 59 57 56 54 52 55 58 54 59 68 78 83 87 92 91 74 73 72 71 68 63
57 67 68 69 68 68 71 71 64 63 63 67 64 52 53 52 53 54 58 59 58 58 59 55 56 59 57 56 57 57 59 61 69 71 85 91 91 94 90 75 67 65 68 63
67 70 80 76 76 72 67 65 62 62 58 55 55 50 53 55 57 58 58 56 55 55 57 57 55 55 53 51 54 58 60 63 73 86 90 91 91 88 85 87 91 86 69 66
73 72 71 77 77 76 72 64 57 52 48 47 52 57 60 63 63 63 60 60 62 64 64 65 65 64 60 61 64 67 66 69 77 88 89 69 74 78 78 87 92 90 82 72
73 73 75 79 82 74 62 58 53 50 56 61 69 76 80 79 79 78 76 74 79 81 77 75 75 69 68 82 84 79 78 73 70 72 81 96 86 79 80 92 90 93 86 82
82 80 76 78 70 61 56 54 62 71 72 74 79 83 84 86 86 86 87 85 84 81 78 78 79 78 83 84 82 82 83 87 82 80 95 98 97 96 92 94 94 90 88 74
73 72 66 66 75 60 65 73 73 73 81 85 84 82 88 92 95 92 87 83 84 84 81 80 82 81 81 82 85 85 92 94 90 90 92 96 96 93 95 94 88 92 90 80
65 67 66 64 65 70 78 86 88 90 88 90 87 88 94 94 93 90 86 90 88 92 80 76 76 80 83 85 77 83 95 94 88 96 97 89 89 90 92 92 91 88 87 85
66 67 66 68 66 66 70 74 74 76 71 69 76 80 86 87 83 84 84 90 88 86 75 77 77 86 83 84 82 85 92 93 91 89 91 93 95 94 92 96 90 85 88 92
85 83 78 74 70 74 76 76 76 72 69 72 80 81 85 84 88 86 92 88 75 77 71 75 86 83 82 84 92 96 94 94 95 95 95 95 97 95 93 92 90 88 87 84
85 86 89 90 78 78 75 78 75 74 76 80 80 81 86 89 85 89 83 91 80 76 76 87 83 84 82 86 92 92 94 95 94 95 96 95 96 94 93 94 93 91 92 94
83 84 90 89 85 84 89 80 79 79 82 90 87 87 92 89 90 96 91 83 80 76 78 84 78 78 78 95 92 94 96 95 95 95 95 94 95 96 96 95 94 95 95 95
84 86 91 91 92 91 88 91 92 86 91 86 87 91 95 96 93 96 94 82 77 74 76 81 80 76 75 91 96 96 95 94 94 94 94 87 93 96 97 96 94 94 93 93
88 94 94 91 88 82 84 87 90 88 86 84 85 85 89 92 98 87 95 86 81 79 82 80 81 84 92 92 97 97 96 95 95 96 95 96 95 96 96 96 95 95 95 94
84 80 80 79 76 76 77 79 83 82 80 86 78 77 83 93 92 87 93 79 86 82 86 83 86 89 92 91 97 94 94 94 93 94 94 94 95 95 94 95 94 95 95 95
90 78 77 73 70 70 74 77 87 80 78 84 83 79 92 86 89 79 78 84 90 93 85 82 86 88 89 93 93 92 93 94 92 95 95 95 95 95 94 94 95 95 96 95

GFSNGP_sfc_rhum_096.txt.gz
RH
74 70 66 72 65 72 82 83 82 83 88 84 82 79 81 74 66 64 67 66 68 70 73 74 73 75 71 72 74 78 77 80 81 81 81 82 83 84 86 88 89 89 91 91
92 66 65 66 59 67 76 74 73 79 84 73 81 78 71 69 67 68 70 68 68 67 69 71 73 77 70 71 76 76 78 79 76 75 76 80 84 89 91 92 92 92 92 92
81 80 73 78 64 72 79 80 82 81 78 78 74 65 66 69 68 71 72 70 68 73 71 70 71 75 70 73 78 71 79 75 74 76 78 82 83 86 88 92 92 93 94 94
92 79 78 69 65 63 69 73 80 79 82 77 76 76 76 76 74 73 69 68 69 71 72 71 70 72 68 69 71 71 71 76 72 76 78 80 86 86 90 93 93 92 92 92
89 93 64 66 62 67 73 72 71 75 82 73 70 76 80 72 72 72 75 72 71 73 71 71 67 70 65 66 69 71 68 75 71 73 76 76 77 85 87 91 91 93 91 94
89 88 75 58 67 64 61 67 64 70 77 75 76 88 85 71 68 70 72 66 66 64 62 62 58 68 67 67 69 68 66 69 72 72 74 76 79 82 88 89 85 87 92 90
85 92 75 61 64 61 74 39 70 71 76 80 83 81 77 74 73 72 62 55 58 60 61 60 64 69 71 74 76 70 72 72 71 72 74 75 80 86 85 88 87 92 87 87
81 84 73 64 69 61 49 76 68 72 72 72 78 76 78 75 73 62 56 53 52 56 58 59 60 64 66 67 63 58 57 62 69 72 66 63 78 82 83 86 91 92 91 89
63 61 48 65 61 67 64 63 71 73 76 71 74 76 75 73 68 56 52 51 50 55 58 58 59 60 63 59 57 55 59 61 56 53 57 69 76 79 85 88 92 91 93 94
60 57 63 61 73 70 67 71 76 77 75 74 77 71 67 61 58 56 54 52 54 58 60 60 58 59 63 60 54 57 61 60 57 60 59 68 78 78 88 92 94 86 93 84
74 65 65 61 67 68 69 74 75 75 75 70 68 67 64 59 57 56 56 56 59 63 64 63 61 58 55 53 55 58 58 57 58 58 61 66 75 86 86 91 91 93 90 85
58 56 53 58 72 70 75 76 75 69 68 65 63 64 63 58 56 56 58 63 64 64 64 65 63 61 60 59 62 65 60 58 60 59 62 71 82 90 79 74 70 71 70 72
54 62 66 74 74 77 74 77 74 67 66 66 62 53 53 51 53 58 60 62 63 63 63 61 64 67 64 63 65 67 69 65 66 67 70 74 84 95 94 78 69 70 71 69
70 73 80 78 75 75 72 69 65 64 59 54 52 54 57 59 61 64 65 64 65 68 70 71 72 74 69 70 73 79 80 77 77 77 80 83 86 91 88 80 78 83 76 75
72 74 70 78 80 78 74 67 56 51 49 54 60 67 71 72 71 72 74 71 74 79 83 83 82 80 74 75 84 94 88 84 82 82 84 83 82 86 83 83 77 80 88 82
79 84 85 83 84 79 68 56 52 53 60 67 71 74 77 77 78 80 81 81 85 84 81 84 82 81 82 88 91 85 85 81 79 86 88 93 92 91 95 97 92 92 92 88
85 86 82 92 85 69 58 54 55 65 68 68 76 78 76 77 80 81 79 79 77 81 82 83 80 75 84 77 82 82 77 77 80 89 90 95 96 96 96 96 91 92 89 78
71 73 70 72 76 65 70 71 70 69 78 79 77 80 89 93 95 87 84 82 80 82 79 79 78 75 77 78 83 82 88 89 88 88 84 88 92 97 96 92 92 94 91 88
68 70 69 65 63 69 76 81 82 83 85 83 83 90 92 94 93 91 86 88 86 92 83 83 78 81 86 83 80 86 92 92 83 88 90 86 88 91 92 89 91 90 93 92
66 67 66 70 70 67 71 71 72 74 69 69 74 78 81 84 82 83 83 89 88 91 84 84 78 88 86 85 83 95 94 82 87 89 90 89 95 94 96 90 90 90 89 87
83 80 75 72 70 71 72 71 70 67 67 70 75 76 81 80 82 84 92 87 76 78 70 76 86 85 85 84 96 93 96 89 91 93 93 93 93 91 89 88 90 90 90 87
86 86 86 84 78 78 76 78 72 71 73 78 75 77 82 83 81 87 82 92 82 78 74 91 90 85 84 81 98 96 92 90 94 94 92 92 92 92 92 90 93 91 91 93
82 82 87 86 84 82 87 79 76 74 81 87 84 84 87 88 88 95 91 84 81 81 79 88 78 76 78 94 94 96 96 96 94 91 91 93 91 91 92 95 94 95 94 93
76 83 88 91 93 94 90 87 86 84 90 89 89 90 91 95 94 94 90 82 79 78 81 83 78 77 78 95 94 96 97 95 94 94 92 84 90 92 94 94 93 94 94 93
89 91 93 91 91 87 84 85 86 89 87 85 85 84 89 88 94 92 96 88 83 83 91 82 77 82 92 94 95 96 95 93 94 95 94 96 94 94 94 94 93 93 95 94
83 80 80 82 82 82 76 80 81 80 80 86 79 74 79 86 88 88 93 81 90 85 95 90 88 88 93 93 95 92 92 92 91 94 90 94 94 94 93 93 94 94 94 95
94 76 89 85 76 74 72 78 86 85 76 80 84 81 86 84 86 81 76 87 91 96 96 88 89 90 90 91 91 90 92 90 89 90 92 94 94 95 94 94 94 94 94 94

GFSNGP_sfc_rhum_099.txt.gz
RH
80 74 77 74 70 66 86 83 83 81 89 81 84 85 84 78 70 70 70 71 72 75 80 80 79 78 71 70 78 75 79 76 77 78 78 80 80 83 83 84 87 89 90 92
88 80 78 72 66 64 76 81 82 85 83 77 81 78 77 72 72 71 72 71 71 73 72 73 76 82 71 74 79 72 80 76 74 74 76 79 82 85 85 86 85 87 87 91
84 75 76 79 71 66 77 79 77 85 73 82 78 69 69 72 72 72 74 72 72 79 77 77 75 78 74 72 73 72 71 76 73 73 76 78 82 85 84 89 92 92 92 91
95 75 70 63 68 64 67 68 78 82 81 79 76 79 79 75 74 75 76 72 72 76 77 76 74 74 69 69 68 70 67 69 72 72 73 74 76 78 84 89 90 93 93 94
93 94 62 69 65 70 76 66 72 77 83 82 77 79 78 75 79 78 78 76 75 77 73 72 65 70 70 69 70 70 67 68 70 74 75 75 74 79 83 90 89 88 90 94
90 91 72 51 74 72 61 65 71 73 83 80 81 92 89 75 72 75 75 70 69 67 62 63 62 69 73 73 75 74 72 73 74 75 76 78 79 81 84 84 83 85 89 90
90 94 79 65 70 65 66 41 73 75 79 82 84 81 78 76 74 74 67 61 64 69 63 64 68 70 67 70 67 71 68 68 71 74 77 78 82 84 86 88 89 90 88 89
86 90 79 67 72 60 51 76 76 75 75 81 80 78 80 73 71 63 60 57 55 57 60 62 63 63 65 66 64 66 61 60 59 60 58 58 81 83 84 88 90 92 92 87
68 66 51 63 60 68 64 66 73 74 74 72 74 76 74 74 70 56 55 54 54 60 63 62 61 64 65 60 62 57 58 59 60 58 56 55 64 74 80 88 92 90 88 89
66 60 61 58 67 68 67 66 70 74 74 76 77 77 76 64 62 59 58 57 60 62 64 65 63 63 64 62 59 62 66 66 66 68 61 60 60 64 73 81 95 86 91 93
78 66 66 62 65 70 69 74 78 80 80 78 74 69 66 61 58 58 57 61 65 68 68 66 65 65 63 63 67 69 70 68 68 66 69 66 65 71 75 82 92 96 92 90
59 54 49 48 64 68 74 78 78 72 71 67 65 65 62 59 57 58 66 67 66 66 68 70 70 72 71 69 74 79 76 76 76 75 76 75 75 75 72 76 75 73 71 73
50 60 61 71 76 80 74 78 79 72 70 66 62 53 50 53 58 60 65 68 71 72 72 75 79 79 77 75 78 80 87 83 82 79 78 80 82 88 93 79 73 72 70 72
68 74 76 78 70 80 81 78 70 68 64 59 55 56 57 60 64 68 73 74 75 78 81 83 84 84 81 81 82 91 94 83 84 88 89 89 89 91 92 94 91 82 70 69
75 74 70 78 82 82 80 70 65 56 55 60 62 66 65 65 68 73 79 75 73 77 78 80 84 86 82 86 87 93 86 86 83 84 88 85 86 88 88 83 80 87 93 81
81 82 87 84 86 83 76 65 56 55 60 67 68 70 73 75 76 78 73 75 80 78 76 82 83 80 79 86 94 83 77 73 72 75 87 90 88 83 83 87 92 95 93 91
89 91 90 93 87 80 71 57 52 59 67 68 69 77 76 74 75 73 73 77 75 78 78 76 76 74 78 83 80 84 88 88 83 84 91 89 90 89 87 86 90 80 79 86
80 77 80 84 86 70 61 62 67 70 76 75 80 81 88 88 84 80 83 82 83 80 74 75 76 82 80 77 80 88 88 89 88 90 84 81 85 91 92 88 86 84 81 83
75 77 76 78 69 66 74 80 82 85 89 90 89 91 88 85 85 90 85 87 85 87 81 81 82 81 84 83 78 84 93 95 83 75 79 80 89 90 87 91 94 95 93 92
71 70 68 70 70 70 74 72 74 78 76 74 76 80 79 80 78 80 81 88 86 85 83 83 81 88 87 87 86 94 97 91 80 80 84 83 88 90 92 83 84 88 88 88
87 84 78 73 66 66 66 70 72 71 67 68 72 71 71 74 78 80 90 86 74 76 79 76 85 87 84 85 93 97 99 85 83 83 84 91 90 87 86 88 92 86 87 84
91 89 86 84 76 75 75 76 70 68 71 75 75 74 81 82 77 82 80 89 82 78 77 86 96 84 78 83 97 96 90 84 88 87 92 90 90 90 87 86 89 91 90 94
89 87 88 87 84 84 86 80 77 73 78 83 82 83 85 84 85 92 90 85 82 81 79 93 82 74 75 93 95 95 92 97 95 92 94 94 93 90 92 92 92 92 92 92
84 86 90 94 94 94 95 92 86 81 85 84 85 87 89 90 89 90 89 79 78 78 82 87 80 74 75 94 92 94 97 98 96 94 96 84 91 93 94 93 93 91 91 91
85 89 93 93 90 83 90 91 93 92 90 85 83 85 86 85 91 94 96 86 81 80 92 86 78 81 90 95 96 96 98 98 94 94 93 95 94 94 94 94 94 94 94 93
86 78 78 80 77 88 87 87 81 81 80 82 77 75 77 81 87 84 90 80 86 82 95 94 93 89 93 95 93 94 94 96 94 95 90 93 93 94 93 93 93 93 94 94
94 83 94 92 85 88 84 81 85 85 77 79 80 80 78 84 83 79 75 83 87 94 96 91 93 93 91 92 93 94 94 94 90 92 94 95 94 94 93 94 94 94 94 94

GFSNGP_sfc_rhum_102.txt.gz
RH
84 78 78 76 75 76 84 81 84 76 86 76 83 89 89 88 85 76 76 77 78 79 82 80 84 76 66 73 73 70 72 70 74 70 71 70 71 78 75 77 78 81 85 86
93 79 85 82 75 75 70 80 81 84 85 76 83 82 82 81 76 76 75 74 75 77 81 77 81 83 73 72 75 71 70 74 70 69 70 75 73 75 73 76 82 79 77 83
89 78 75 78 77 74 71 79 76 86 75 82 84 75 73 76 75 75 76 75 73 80 79 81 80 80 75 73 70 69 67 68 72 73 74 75 76 77 78 84 90 88 86 87
96 80 72 53 71 69 70 67 77 82 79 80 80 78 74 72 75 77 76 73 75 78 79 78 77 75 72 72 71 70 68 68 68 72 74 74 75 74 78 83 88 88 88 91
94 98 64 59 70 68 71 60 72 80 81 83 82 80 78 73 76 77 76 75 77 80 74 69 65 71 72 69 72 71 70 69 70 74 77 78 78 80 80 86 87 87 86 91
93 93 63 39 73 74 64 65 62 76 82 82 82 90 87 79 77 76 74 74 70 70 64 63 66 70 70 69 74 74 73 72 72 75 78 80 82 84 85 89 86 88 87 90
93 95 81 65 71 68 70 35 76 77 82 84 84 82 76 79 79 77 72 60 64 69 63 64 68 68 70 73 79 72 74 71 69 70 72 75 78 80 82 77 79 87 89 91
92 94 84 69 74 62 49 73 73 77 79 84 81 84 84 81 80 68 60 57 58 60 64 67 68 68 65 66 67 68 66 64 64 67 62 56 73 85 88 90 90 88 91 90
68 66 53 64 64 62 62 63 72 73 72 76 81 83 83 78 70 58 57 56 59 63 64 64 66 68 69 67 65 65 67 69 69 66 63 63 72 70 70 74 89 87 85 92
70 61 62 59 59 70 68 66 70 74 72 76 77 80 82 69 64 61 58 58 63 65 67 70 73 70 70 68 70 72 77 78 75 76 74 75 70 68 74 79 85 80 86 94
81 63 66 55 61 61 66 72 73 78 78 79 78 82 73 65 60 57 56 64 64 66 65 68 69 70 71 70 75 79 83 82 83 80 88 84 78 80 74 79 88 83 90 92
62 50 55 52 58 68 75 73 77 79 81 81 76 68 64 61 56 57 63 61 64 66 67 70 72 76 77 78 82 89 85 84 85 81 87 84 84 83 75 74 73 73 72 73
60 73 62 58 65 72 72 77 81 76 73 68 69 63 58 54 61 61 64 68 72 75 75 79 80 81 80 83 84 88 95 87 81 80 82 85 83 81 83 73 73 73 74 72
76 81 80 77 69 73 77 81 77 74 72 67 57 55 58 60 68 66 73 80 78 78 77 79 85 87 83 85 85 94 95 80 84 89 89 81 78 86 80 79 82 77 70 69
76 81 76 80 82 84 86 80 75 70 62 60 60 63 62 62 65 73 81 73 69 74 73 80 87 86 80 85 83 92 84 82 76 74 77 80 84 88 78 75 78 84 87 84
78 84 84 87 83 87 83 78 74 61 58 62 66 66 67 71 76 79 74 73 76 74 71 82 82 78 77 82 91 81 82 80 81 81 86 81 83 82 79 85 87 83 88 82
94 90 89 92 89 88 84 71 63 56 61 66 65 69 73 73 75 74 71 72 70 73 76 73 74 70 75 85 80 80 87 85 81 87 83 79 83 81 81 88 92 91 89 80
90 83 81 83 90 86 76 64 60 66 74 70 76 78 84 86 83 78 77 78 78 79 71 70 70 77 79 75 78 82 76 87 87 87 82 81 82 87 87 87 87 91 90 91
80 81 76 83 86 80 75 77 82 87 89 89 88 87 85 86 87 83 81 85 87 89 79 78 78 80 84 80 79 84 94 93 92 89 79 81 87 86 84 86 90 84 85 85
71 72 77 84 77 74 76 77 80 83 84 82 79 83 84 81 74 76 80 89 85 81 79 83 83 86 85 85 83 90 97 91 81 77 79 82 88 90 88 81 77 78 79 80
86 87 84 80 71 72 71 77 76 79 76 72 75 76 72 70 74 78 90 83 70 73 78 76 81 86 81 82 86 98 96 88 90 90 90 90 90 89 86 82 82 80 80 81
91 90 89 87 77 73 75 79 77 74 75 77 78 74 75 78 79 82 79 84 75 73 76 81 88 84 78 71 97 96 96 95 94 92 92 89 92 93 90 87 88 88 88 89
87 86 86 88 84 85 87 82 79 76 79 88 88 84 84 84 81 86 85 86 86 79 78 86 82 75 73 95 94 95 95 95 92 92 91 91 92 93 94 93 93 92 92 91
80 84 84 90 93 94 91 92 92 88 90 92 91 90 93 96 90 88 87 79 74 77 80 83 81 75 73 97 96 98 97 96 94 94 92 84 90 94 94 93 92 90 91 91
85 86 89 92 89 80 84 90 96 96 96 95 94 94 93 95 88 96 97 90 78 79 86 82 78 80 91 97 98 98 97 95 94 95 93 94 93 94 94 93 93 94 94 93
86 77 73 76 71 75 81 90 89 93 92 94 86 85 88 91 94 86 94 83 89 82 90 86 90 89 95 97 97 97 97 95 93 94 92 94 93 94 94 93 93 94 94 94
94 83 90 89 81 80 84 86 92 88 80 81 82 83 78 86 91 86 78 85 87 90 89 87 89 92 94 97 97 96 96 93 91 93 94 95 94 94 94 94 93 94 94 94

GFSNGP_sfc_rhum_105.txt.gz
RH
88 81 80 77 74 76 83 75 83 71 81 68 75 83 83 83 87 75 68 66 67 68 66 66 69 62 58 57 58 58 61 59 60 57 55 58 57 56 55 60 60 58 58 59
95 78 80 89 81 81 75 73 82 81 79 66 70 78 82 79 77 71 70 68 68 67 66 66 66 70 64 60 59 56 55 59 60 60 58 60 59 60 58 58 64 63 62 64
91 76 76 67 64 77 72 71 71 82 69 75 79 76 75 74 73 69 69 70 69 67 67 67 65 69 63 62 60 58 56 55 56 58 60 63 61 58 58 62 66 65 64 65
96 77 52 36 62 63 67 66 72 74 71 73 74 73 69 68 67 70 70 72 69 68 70 66 64 65 64 64 60 60 57 54 55 58 58 59 60 59 59 61 63 66 67 67
94 97 57 36 63 65 65 57 62 68 75 77 76 75 72 67 68 66 71 69 68 69 66 61 56 61 62 59 61 61 61 59 58 60 61 61 61 65 64 68 68 70 67 70
94 92 60 32 62 65 56 55 46 74 74 77 77 84 75 72 72 72 70 71 71 65 59 55 58 57 54 58 61 61 62 62 61 62 62 63 64 68 66 68 68 71 70 71
96 95 81 60 67 64 65 32 59 74 74 80 79 74 71 75 74 73 71 63 60 57 55 58 57 57 56 61 63 60 63 61 60 59 61 63 66 67 72 72 71 74 70 70
95 97 87 64 71 58 47 60 62 73 73 81 78 77 77 77 77 71 60 56 54 55 58 61 60 58 57 60 58 60 60 59 60 62 60 57 67 70 69 69 68 69 71 70
69 68 53 63 59 60 55 58 61 69 68 77 80 79 78 79 78 63 54 54 56 57 57 57 59 61 59 57 60 62 65 65 65 64 62 64 66 67 66 65 70 71 70 74
64 61 57 57 56 59 65 64 61 64 64 76 77 78 81 79 70 59 55 55 57 55 54 56 62 60 62 63 65 69 71 72 70 70 68 71 70 67 70 73 76 74 76 77
76 62 59 54 63 58 57 66 70 68 68 72 74 80 80 74 65 59 56 61 58 58 59 63 64 66 66 68 73 74 75 76 76 72 78 77 72 74 73 71 75 76 80 77
64 57 55 57 57 58 62 61 66 76 80 79 77 77 71 66 58 57 62 59 60 62 65 69 71 70 72 75 78 82 78 74 76 73 76 76 76 71 68 67 66 66 65 68
57 73 69 68 68 66 65 62 71 80 78 77 75 66 66 57 58 62 62 63 65 69 71 74 72 74 76 75 76 80 85 80 75 74 75 77 73 73 80 70 70 67 66 65
74 82 79 76 73 76 78 79 77 84 79 73 65 56 54 59 69 61 62 69 74 72 71 72 74 75 74 75 75 84 88 80 74 78 81 78 82 83 77 83 84 76 64 65
79 80 76 81 84 83 84 87 85 80 72 63 58 58 58 60 59 61 72 70 62 67 67 70 74 73 72 75 75 85 81 74 74 80 80 76 71 75 75 75 76 78 76 71
79 83 83 84 83 87 88 87 84 77 66 63 63 62 59 59 67 75 73 67 66 64 65 69 68 72 72 76 82 85 73 77 79 79 81 81 78 78 74 74 80 80 78 74
89 80 84 92 88 87 88 86 81 70 63 64 64 66 71 73 76 78 71 68 67 68 68 67 70 66 70 77 84 74 78 80 81 79 74 78 80 79 83 81 77 77 76 77
83 80 85 84 91 86 87 79 73 68 70 68 72 78 83 87 83 76 74 73 72 71 67 66 67 72 77 77 74 78 83 81 84 84 80 80 75 74 79 78 77 79 74 71
84 87 88 87 85 88 88 85 78 82 84 84 88 87 88 92 92 89 80 80 79 80 72 72 72 78 81 79 76 82 88 89 85 84 75 75 82 79 78 77 79 77 74 71
74 73 73 79 82 85 79 72 75 80 82 82 80 85 85 84 78 76 76 83 78 73 72 76 79 82 82 86 80 87 92 88 83 82 80 80 84 83 82 79 76 76 77 74
84 87 84 82 79 73 73 75 74 76 79 76 76 74 75 74 79 79 87 80 69 72 73 75 78 81 84 81 86 92 88 89 90 90 90 90 87 82 80 79 78 78 79 78
91 89 87 88 79 74 74 78 74 71 76 77 77 75 77 79 81 85 80 84 80 69 75 80 81 83 78 72 91 89 90 92 93 93 92 88 87 86 84 82 84 86 85 88
86 86 86 86 81 81 82 78 76 72 75 86 85 85 86 85 87 90 86 86 86 77 80 83 80 74 72 89 84 87 92 94 93 93 91 91 91 87 89 90 91 92 91 90
83 82 88 90 91 91 86 85 87 83 84 87 89 89 91 96 96 95 89 75 72 76 83 84 80 74 71 88 92 94 94 95 94 94 92 86 90 91 91 90 91 90 91 89
87 88 90 90 87 76 80 84 88 93 92 90 93 92 92 93 88 94 97 91 77 79 88 79 76 76 87 93 94 94 95 95 94 95 95 95 95 94 92 91 91 93 94 93
86 78 76 76 70 73 77 79 74 80 86 92 92 89 93 92 94 91 96 90 93 85 91 88 90 89 90 93 93 93 94 94 92 95 92 95 94 94 92 91 91 93 93 94
90 82 89 87 80 77 77 76 79 78 78 81 84 88 84 87 92 91 83 90 94 95 92 90 88 88 90 94 92 91 91 92 92 93 95 96 95 95 92 92 92 92 93 93

GFSNGP_sfc_rhum_108.txt.gz
RH
63 55 56 59 58 53 65 57 56 37 46 34 39 50 52 53 54 59 58 51 47 48 43 42 44 43 39 38 38 38 41 43 46 41 39 38 39 39 36 35 35 37 36 34
84 48 53 65 55 55 55 53 52 47 47 32 32 37 48 52 55 60 49 47 47 48 47 45 44 45 44 40 38 37 35 37 36 33 33 36 37 37 35 38 37 36 36 38
70 52 53 50 40 45 51 51 50 55 38 31 51 54 52 51 53 54 45 45 47 48 47 45 42 46 43 42 40 39 36 34 33 33 34 36 34 32 34 36 37 38 37 37
85 60 48 31 38 42 46 42 44 42 44 46 46 48 47 44 44 45 44 46 47 46 47 45 41 43 46 46 39 39 37 33 34 36 36 38 39 40 40 41 43 44 45 43
82 66 38 28 45 48 50 37 36 41 38 46 50 54 49 45 43 41 40 42 44 44 44 42 38 41 43 42 41 39 38 37 39 40 42 43 45 47 46 49 50 51 49 50
66 76 42 23 40 44 44 36 30 39 42 47 55 55 34 49 46 46 47 47 50 48 42 38 39 39 38 38 38 37 42 44 42 44 45 47 49 52 54 52 54 55 55 54
75 78 54 37 43 45 43 24 33 48 46 52 56 42 50 52 55 50 51 52 49 43 40 38 39 38 38 37 38 44 45 46 46 46 46 46 50 54 56 54 55 57 52 49
70 80 79 42 53 40 30 34 37 43 45 53 51 51 55 53 54 57 55 50 43 41 44 45 44 39 38 39 42 46 48 50 46 45 45 44 50 49 49 47 46 45 45 45
43 40 34 41 36 38 39 41 42 44 39 45 49 53 53 59 58 55 48 43 40 41 44 42 42 42 40 39 45 48 47 44 44 45 44 46 47 46 47 48 52 52 51 52
46 30 36 31 32 34 34 38 38 40 44 45 49 46 55 58 59 53 45 43 42 40 38 38 43 45 45 49 50 52 49 48 47 46 51 46 48 50 54 55 57 58 58 59
45 39 37 37 36 36 38 41 44 45 48 48 49 51 53 57 59 50 44 45 44 40 40 41 46 49 52 53 55 55 52 52 51 52 52 52 52 54 57 54 58 63 63 62
46 34 34 32 34 42 46 47 46 49 50 53 56 54 56 56 53 47 44 46 45 46 44 48 53 54 52 57 57 59 58 52 54 56 54 57 57 55 56 62 66 68 68 65
37 33 37 37 46 48 50 51 50 56 54 55 57 56 56 53 47 49 43 43 42 42 46 49 51 53 55 57 59 60 64 59 56 58 56 58 62 63 69 62 64 63 63 64
43 48 54 56 50 52 56 53 56 62 61 59 54 52 50 47 48 46 43 41 43 48 47 47 48 49 53 58 59 61 64 69 62 61 64 64 66 64 63 68 71 66 59 63
49 51 49 56 62 59 56 58 66 64 59 56 50 48 45 48 49 44 42 47 50 47 46 49 50 51 55 57 60 63 63 60 60 65 66 66 65 65 67 66 65 68 66 61
60 61 61 64 61 55 60 66 69 66 60 52 47 45 42 40 41 44 49 50 47 43 44 49 52 51 54 58 64 63 59 68 73 66 66 66 67 69 65 67 71 67 64 61
87 79 68 74 68 63 67 66 66 63 59 53 48 45 44 45 47 50 52 48 46 48 49 51 52 53 57 63 69 61 61 65 68 65 69 68 68 72 69 72 72 62 61 59
63 59 59 63 77 71 68 72 72 68 67 62 56 56 62 66 58 57 55 52 53 53 53 51 52 57 65 67 65 64 65 67 70 70 68 68 68 70 71 70 64 64 61 59
62 62 68 69 72 73 77 84 80 79 78 76 76 76 70 67 65 63 61 62 60 57 48 52 64 70 69 67 71 66 71 74 71 68 66 70 71 68 65 65 66 63 63 62
61 66 64 65 66 72 74 69 63 60 57 59 60 61 62 61 57 56 57 60 51 46 53 58 67 72 68 70 74 74 75 74 69 66 69 71 72 72 71 71 66 64 62 63
82 82 78 75 69 69 70 61 59 56 58 55 55 51 50 50 54 58 63 54 48 56 58 67 67 64 67 71 75 77 74 74 73 76 77 78 76 72 69 67 66 66 67 68
76 83 85 82 72 65 65 68 62 57 60 60 59 53 56 58 59 63 57 58 52 66 61 63 64 72 71 70 78 74 73 73 76 78 77 74 75 76 74 71 74 79 79 82
76 77 81 80 76 70 67 66 62 59 64 70 71 69 65 57 58 65 61 62 61 65 64 67 70 73 71 75 74 72 76 77 76 75 76 77 77 77 79 83 85 84 85 85
68 71 77 81 84 79 76 73 74 69 72 72 76 79 73 72 69 68 62 67 72 73 70 70 72 71 70 75 75 77 79 78 79 78 78 81 77 81 85 84 87 85 85 84
80 82 84 85 80 70 72 76 79 81 77 69 71 75 78 69 68 61 67 66 72 72 70 71 73 72 71 73 78 78 80 80 80 85 79 85 86 88 86 86 88 88 91 89
77 70 67 70 65 61 63 66 62 64 66 64 61 64 67 68 68 66 70 72 74 73 68 69 69 72 72 73 75 75 76 76 78 80 84 84 86 87 86 86 86 87 89 91
81 73 75 74 71 67 67 64 66 65 66 60 56 64 65 69 70 69 72 70 73 70 67 64 70 72 71 74 74 73 74 74 81 83 82 85 87 89 87 87 89 89 89 90

GFSNGP_sfc_rhum_111.txt.gz
RH
52 46 46 47 46 43 49 51 60 42 31 23 22 27 35 42 48 50 49 47 47 44 40 37 37 38 34 33 32 31 33 34 36 34 32 31 31 32 31 32 30 31 30 30
82 45 39 46 41 41 43 44 43 41 42 28 24 23 28 30 42 46 47 46 41 40 42 41 38 37 38 36 33 32 30 30 30 28 29 31 30 29 30 32 32 32 34 34
68 39 46 48 34 36 38 36 38 45 33 24 30 35 39 37 39 42 44 43 40 40 42 42 38 37 38 38 35 33 33 30 30 28 31 32 32 32 34 35 37 39 39 40
79 56 63 32 29 30 32 32 31 34 34 32 33 35 38 37 38 39 41 40 38 39 42 41 38 37 40 42 34 34 34 31 30 33 34 36 38 39 39 39 41 43 46 45
75 57 38 29 39 42 43 30 27 31 28 27 29 37 43 36 37 37 36 35 36 37 39 41 38 35 39 39 38 37 34 34 36 38 40 41 43 45 45 48 50 52 49 51
52 69 49 23 36 36 40 41 28 31 31 35 42 42 34 43 40 39 38 38 40 42 42 39 34 34 35 34 36 35 37 41 40 41 43 44 46 50 52 50 54 54 54 55
73 67 48 30 38 39 40 28 29 32 33 36 44 33 40 43 47 44 43 45 44 45 42 37 35 35 38 36 37 40 42 43 45 44 43 43 48 51 56 55 55 57 51 47
59 65 74 34 45 38 27 29 30 34 35 35 35 34 38 44 45 51 52 50 47 44 42 41 41 40 39 37 38 40 44 46 42 40 40 38 46 48 47 44 43 44 44 45
39 43 29 35 26 30 33 35 34 35 34 35 38 39 39 45 48 49 50 47 42 41 42 40 39 37 35 32 39 42 42 41 40 40 41 40 43 44 46 46 51 51 53 54
31 26 27 25 28 28 29 31 32 34 36 38 42 40 40 40 49 51 48 44 40 39 40 38 35 36 36 40 44 45 44 43 42 45 45 46 45 46 50 55 56 54 57 62
38 32 29 29 28 27 27 30 36 38 40 43 44 43 42 43 51 52 48 44 42 40 37 33 35 37 39 42 43 45 44 44 45 46 46 47 47 50 52 51 54 63 68 68
43 28 28 27 28 34 36 40 40 43 45 44 45 48 45 47 48 50 46 44 44 42 38 38 40 43 42 42 48 49 50 49 49 52 52 51 53 55 54 57 60 64 66 65
33 28 29 29 37 34 40 42 42 44 44 48 47 47 48 50 50 50 44 44 43 43 41 38 44 44 43 48 52 53 55 54 54 57 52 54 60 63 68 60 58 60 62 62
32 33 39 40 44 41 43 46 48 48 48 50 52 50 51 50 48 47 45 41 38 37 38 39 38 39 41 48 52 55 56 64 60 58 58 61 66 70 70 70 71 68 60 61
38 39 41 40 50 52 51 52 52 50 51 56 53 52 50 49 51 46 39 40 42 42 40 39 40 40 42 48 53 54 57 59 57 61 64 64 66 68 69 69 68 68 69 63
47 45 46 55 56 54 51 50 57 58 57 56 52 50 47 47 47 42 42 43 45 43 40 40 42 42 47 50 54 58 58 59 66 65 63 65 66 69 72 71 72 74 70 67
88 81 74 78 71 51 59 56 57 60 63 58 52 49 46 44 44 45 45 42 41 38 39 44 46 45 52 54 59 62 56 58 64 64 66 67 68 71 72 75 77 70 66 64
54 58 56 56 72 67 63 67 72 71 74 67 60 55 58 61 58 55 52 48 44 44 46 46 46 50 55 60 63 60 62 64 65 67 66 66 65 69 76 72 69 68 67 63
54 61 64 57 60 68 74 84 84 87 85 80 76 74 71 71 71 67 61 61 58 55 46 44 55 64 63 63 66 64 66 68 68 71 67 66 69 68 68 67 70 68 67 66
58 54 57 60 69 72 74 72 67 69 66 65 64 67 67 64 57 56 56 62 52 44 47 52 64 65 67 68 70 72 70 71 69 66 66 70 72 74 74 72 70 68 67 67
81 82 79 76 70 67 70 67 64 61 58 56 58 56 54 53 51 56 61 55 47 47 50 56 63 64 62 65 70 73 72 73 74 75 77 78 76 72 70 69 70 69 70 73
77 83 85 84 73 63 66 71 65 59 57 58 58 52 55 53 53 59 57 61 49 57 59 60 63 66 67 69 72 72 75 74 75 78 79 75 75 76 74 75 78 81 82 85
76 80 83 82 77 73 70 68 67 62 65 68 69 65 63 55 58 67 66 64 61 63 64 64 64 69 75 75 73 75 76 75 75 75 77 78 76 78 83 86 86 86 89 90
62 69 80 86 85 83 78 76 76 71 74 72 76 76 72 71 69 68 68 63 65 64 70 69 71 74 72 74 79 78 77 77 79 80 79 77 79 82 84 88 86 83 89 88
75 82 85 86 82 73 75 81 85 83 82 76 74 78 76 68 65 68 69 67 69 72 74 71 74 73 74 74 77 79 79 80 82 86 81 86 85 86 83 87 86 86 92 91
70 64 62 69 63 65 66 73 71 66 69 69 66 62 65 65 67 66 73 68 71 72 72 69 73 75 72 73 74 73 76 77 78 80 84 84 83 84 84 86 89 89 92 93
79 68 67 68 66 65 66 71 74 68 64 64 61 59 60 65 68 68 67 70 74 74 71 68 68 72 73 72 71 71 72 74 77 86 86 87 90 90 88 90 92 92 92 93

GFSNGP_sfc_rhum_114.txt.gz
RH
68 58 58 61 58 54 58 61 73 54 53 42 39 38 36 57 64 67 67 65 63 64 61 54 53 52 45 44 43 41 42 45 45 41 40 42 43 41 38 39 38 39 39 41
83 60 58 65 55 52 52 50 50 48 50 36 35 37 45 46 50 61 61 58 57 57 54 55 51 51 46 45 44 43 42 42 41 39 41 46 46 45 46 48 47 48 50 51
90 68 66 77 51 49 46 46 49 58 45 38 42 42 47 52 49 54 55 55 57 53 54 57 54 47 52 50 45 45 44 42 40 41 46 50 49 50 54 55 56 59 59 60
86 80 93 54 38 38 46 40 40 39 38 41 41 41 44 51 55 53 52 53 55 53 55 57 52 51 54 54 46 46 46 43 44 48 50 53 55 58 60 61 63 66 69 67
93 91 62 48 43 49 50 44 37 38 39 37 45 59 56 54 50 53 56 54 53 54 58 59 52 50 51 54 49 47 46 46 49 52 55 58 62 65 66 71 72 73 67 70
80 91 81 46 46 45 50 64 38 37 38 46 54 66 53 63 58 56 67 53 56 59 58 56 50 50 51 50 50 49 52 52 51 54 56 58 61 65 68 68 69 70 66 70
78 80 71 41 47 49 62 41 39 38 41 46 58 57 50 57 62 62 58 59 60 61 59 54 49 48 51 50 52 56 53 55 58 58 56 56 59 62 67 69 69 72 70 65
78 88 88 50 57 49 41 45 39 44 44 47 48 46 46 50 58 63 66 64 63 62 59 55 53 52 56 53 54 51 55 58 57 55 50 47 58 63 62 60 60 61 61 61
63 66 45 47 44 44 44 46 47 48 48 47 50 51 50 54 62 64 66 66 62 60 59 56 57 51 49 46 49 52 55 55 55 54 54 53 62 63 66 67 70 70 68 72
45 39 33 31 40 42 42 44 44 45 48 50 53 54 55 55 59 67 67 64 57 56 58 56 51 46 46 53 54 57 60 60 59 63 61 61 60 61 67 74 77 68 70 77
46 39 34 32 31 30 34 38 42 46 49 52 56 60 60 59 59 69 69 62 56 56 57 52 47 47 50 53 54 59 60 60 62 62 63 65 61 63 65 68 70 74 78 77
47 37 37 39 42 44 45 48 47 52 57 56 59 63 62 64 62 71 66 61 60 60 54 50 50 51 54 54 60 63 66 64 66 68 71 70 70 71 61 60 59 60 62 64
37 37 41 43 51 48 48 50 53 56 57 58 58 63 62 66 67 65 61 60 60 59 55 53 57 60 57 59 65 67 72 69 70 68 74 73 76 81 81 71 63 62 62 62
41 46 48 50 52 54 56 57 60 63 60 60 62 66 65 69 67 66 62 59 54 53 49 50 54 54 54 61 65 70 72 62 77 79 79 79 81 84 85 85 80 77 68 63
39 45 47 56 61 65 64 64 68 71 64 63 69 72 68 66 68 63 56 52 51 51 51 50 50 49 51 60 64 69 70 76 77 78 82 80 82 84 84 79 80 78 76 70
65 60 56 58 64 70 69 70 70 68 69 72 70 70 65 63 64 57 54 55 57 58 57 51 55 52 58 62 67 72 77 68 67 81 83 83 82 82 78 78 82 82 84 75
79 78 79 78 78 74 73 66 68 71 75 77 70 66 63 65 58 56 56 55 56 52 55 57 56 55 63 66 70 76 80 73 65 78 85 85 90 86 79 83 87 86 80 71
65 72 71 73 76 72 71 75 79 80 83 80 71 67 67 70 65 65 64 59 56 54 55 55 57 62 66 66 71 80 80 80 81 89 85 86 83 81 84 82 82 81 75 69
64 73 73 70 70 74 80 87 86 90 92 87 81 77 77 79 80 74 69 68 66 66 61 60 60 62 71 72 74 85 93 94 90 93 89 77 87 81 79 75 76 80 79 74
77 76 71 70 74 79 83 85 82 87 88 84 78 80 80 76 73 70 71 71 68 65 57 63 68 78 78 80 71 95 95 93 86 88 85 89 94 92 80 76 74 75 76 75
84 84 78 75 79 79 81 78 80 82 79 77 76 75 72 70 65 68 72 67 63 60 61 62 76 78 81 78 81 95 94 82 94 96 96 96 96 89 78 79 81 79 79 80
84 87 83 86 84 78 77 80 80 76 70 71 71 68 68 68 64 66 63 69 65 58 63 70 74 72 81 68 92 94 79 95 96 97 97 96 96 88 82 80 86 81 84 90
77 78 83 86 84 82 79 77 80 75 73 75 74 71 68 63 62 70 67 70 74 62 73 76 72 68 68 84 94 94 94 96 96 96 96 97 91 84 88 91 90 88 87 92
58 65 78 87 91 91 83 80 82 78 78 79 81 80 77 78 76 72 85 70 68 64 75 78 70 67 70 94 96 97 97 97 97 97 96 81 85 90 92 90 88 88 85 91
67 69 82 89 89 78 77 86 88 89 85 84 85 83 80 74 67 74 78 76 70 69 76 70 68 71 86 94 96 96 96 97 97 98 96 93 94 93 92 91 86 91 94 94
69 69 67 73 68 69 71 82 75 75 78 80 77 75 81 78 75 73 79 74 76 72 82 84 82 82 91 92 93 93 94 95 93 96 93 94 91 92 91 89 93 95 95 94
81 75 86 85 78 70 71 70 76 72 70 68 71 82 85 82 74 70 75 76 79 76 81 80 80 78 91 91 89 91 93 94 86 97 96 97 97 98 96 88 95 94 94 94

GFSNGP_sfc_rhum_117.txt.gz
RH
78 73 72 70 69 66 68 62 79 50 58 43 47 47 45 57 67 78 85 85 82 83 84 84 78 57 49 49 48 46 48 49 46 43 44 47 48 49 50 52 51 53 54 55
91 72 73 78 66 64 64 61 57 54 56 39 37 46 47 48 55 74 72 74 72 69 71 65 60 59 51 49 48 46 44 44 42 41 45 50 52 54 57 58 59 60 62 63
91 76 75 79 60 56 60 60 56 67 49 42 48 45 47 48 53 57 69 67 66 65 65 64 56 54 55 54 50 49 48 45 42 44 48 53 53 56 59 63 66 70 71 71
93 83 89 45 46 37 51 49 46 45 45 45 45 44 48 53 61 58 59 59 63 66 63 64 61 58 60 57 50 51 49 47 49 52 55 59 61 64 65 64 65 68 72 72
92 96 66 61 48 48 47 45 43 46 43 44 45 64 47 61 62 64 63 58 62 65 64 67 58 60 60 62 55 55 53 50 53 56 60 63 66 69 69 73 75 74 71 72
89 97 86 49 52 51 46 50 39 42 43 44 57 57 51 53 58 68 70 58 62 67 68 61 61 60 60 62 60 56 56 56 56 60 62 65 68 70 71 74 73 78 75 76
78 81 75 55 50 51 54 37 45 42 42 50 56 51 44 64 63 67 66 64 66 67 64 61 58 58 60 59 60 58 59 59 61 63 62 62 66 68 75 76 74 77 72 71
84 81 89 54 57 47 42 46 41 46 46 49 50 51 50 52 61 66 66 70 69 68 65 60 58 56 61 59 58 58 59 61 62 61 54 52 65 70 70 71 75 76 77 74
71 68 51 54 47 44 45 41 45 48 48 49 52 52 52 56 58 68 70 71 71 68 62 61 59 57 60 55 54 55 59 60 59 58 58 59 68 72 71 75 79 78 73 78
51 45 48 41 43 46 48 48 47 47 47 49 51 54 58 61 63 68 75 75 70 66 64 64 62 53 51 55 56 60 64 64 63 64 66 68 65 65 72 77 80 71 73 80
49 38 36 34 34 34 36 42 47 48 48 51 55 58 62 65 66 67 78 75 68 66 67 62 57 52 52 57 60 62 63 62 64 66 72 73 70 72 67 76 78 80 79 74
56 36 37 34 41 44 44 45 47 51 55 56 60 63 65 68 70 70 80 72 68 68 66 62 56 55 57 59 61 64 64 65 69 72 77 76 77 78 67 64 63 64 65 65
42 36 40 43 45 44 44 48 51 56 60 61 61 61 65 69 71 72 75 68 66 66 62 56 58 58 61 61 67 70 72 70 72 69 78 80 79 84 87 76 67 67 65 65
52 56 55 53 48 50 53 51 59 61 61 62 63 63 67 73 74 79 70 63 63 60 57 56 59 61 61 66 69 72 74 64 76 83 84 82 83 87 89 92 87 82 70 67
53 52 48 51 59 63 64 66 69 70 72 71 68 71 74 78 75 74 66 62 60 59 56 56 59 57 58 66 66 72 72 74 80 83 81 80 86 88 88 86 85 85 81 75
56 63 65 66 67 68 71 75 77 79 78 73 72 76 75 74 70 67 62 58 55 55 57 55 56 53 58 65 68 72 72 67 72 82 83 86 86 87 86 89 93 87 86 85
76 71 76 76 73 74 74 75 75 73 72 78 78 75 73 69 70 63 59 56 55 56 58 57 56 55 61 65 69 72 77 78 70 76 86 89 94 92 87 87 89 91 86 77
70 68 70 68 72 76 75 74 76 79 82 81 81 75 74 78 73 68 64 61 59 55 54 56 57 61 65 67 68 76 82 82 81 89 87 89 88 87 91 87 84 90 82 74
74 76 78 72 70 74 78 81 84 86 90 90 90 83 77 76 78 74 69 68 66 63 53 58 61 65 68 68 70 82 88 88 85 93 90 82 89 82 84 88 87 85 86 80
73 75 75 76 74 72 73 77 78 82 85 86 84 78 76 73 70 69 69 67 59 55 55 61 66 72 71 74 67 88 89 87 89 93 91 92 96 96 94 83 80 80 82 81
77 81 77 74 74 73 78 79 80 82 80 86 82 76 72 71 71 73 76 66 58 62 60 61 67 69 73 74 75 90 89 93 95 90 96 97 97 96 92 90 87 84 83 83
74 79 77 78 74 68 75 81 81 81 81 82 84 79 79 77 74 74 66 66 64 61 63 74 72 72 75 68 86 89 91 94 92 94 97 96 97 97 96 95 94 89 86 92
65 70 76 80 76 73 76 79 77 81 84 85 81 79 77 71 70 77 74 69 71 61 69 76 72 70 68 75 85 87 91 94 95 96 95 97 96 97 97 98 94 94 92 87
66 64 72 79 89 92 84 68 83 85 84 84 83 81 78 81 77 72 71 70 69 67 74 84 74 67 68 83 89 93 95 94 95 96 95 82 97 99 96 98 97 96 93 92
67 72 85 84 85 76 72 72 90 88 87 82 80 82 81 76 75 77 72 76 72 80 76 79 72 68 71 88 90 92 94 94 95 97 96 98 98 97 98 97 95 91 97 97
66 62 61 75 70 66 69 89 79 70 78 77 73 74 79 79 74 75 85 84 82 84 86 84 76 71 80 89 89 89 91 93 93 94 95 97 98 98 98 97 95 98 97 97
79 75 79 89 83 76 74 72 76 70 70 72 66 65 72 77 81 85 92 94 91 86 85 81 80 75 89 88 86 86 89 91 89 96 95 96 97 98 98 98 96 98 98 97

GFSNGP_sfc_rhum_120.txt.gz
RH
84 76 77 73 72 68 75 72 82 49 55 37 43 45 47 48 52 67 83 90 87 86 89 90 93 88 82 66 54 52 53 54 49 45 46 50 52 55 58 58 59 62 64 66
96 79 80 84 72 73 70 67 64 60 61 42 39 40 53 49 51 54 67 78 81 82 83 86 89 88 71 56 54 52 51 51 48 44 48 54 58 60 61 64 66 67 69 70
92 79 79 80 59 56 68 72 65 73 53 43 51 49 49 48 48 54 60 69 79 81 78 76 74 68 62 55 55 54 52 49 48 47 52 58 60 62 64 69 72 74 74 74
96 83 71 44 53 49 54 51 57 54 51 50 49 50 48 49 57 58 60 62 71 77 74 72 70 65 64 61 56 57 55 53 51 54 56 61 64 67 68 72 75 75 76 76
94 97 65 54 51 50 53 41 43 46 42 50 51 61 52 49 60 62 66 61 63 67 74 75 68 64 61 65 61 60 58 55 56 58 60 64 65 70 70 77 79 78 78 79
92 98 70 41 51 51 46 46 35 45 42 48 56 59 48 42 58 60 67 62 62 68 73 74 70 63 62 66 64 62 61 59 59 62 64 66 68 71 72 77 74 78 74 78
87 94 78 54 50 50 56 29 41 44 42 49 59 48 41 63 64 68 62 63 68 74 72 70 68 65 69 71 70 64 63 63 63 64 64 65 69 72 76 76 74 80 75 78
89 89 90 53 57 50 41 44 42 43 43 48 52 49 51 53 54 59 69 69 71 73 73 67 67 66 70 68 63 64 64 63 64 65 57 54 68 72 74 76 79 82 82 79
73 70 49 55 49 45 47 42 41 45 43 47 49 50 50 54 56 58 68 74 75 73 71 65 65 62 64 60 61 61 62 63 62 59 59 61 71 75 73 78 82 80 73 80
65 53 49 45 47 51 52 47 46 47 46 49 52 53 54 57 62 64 68 78 78 75 67 65 64 61 59 58 57 60 63 64 63 67 68 74 66 66 74 78 83 74 75 82
54 40 39 38 39 36 39 43 53 54 53 53 56 58 58 62 65 68 71 79 80 75 67 64 64 58 53 55 60 60 62 63 65 65 73 75 72 75 68 79 84 85 86 86
61 46 47 42 43 44 45 46 44 50 51 55 60 58 62 66 69 71 72 81 83 78 73 70 65 59 55 59 62 63 62 63 66 69 77 76 78 78 68 66 63 65 67 70
46 45 51 47 53 52 47 44 46 52 56 55 62 67 72 71 70 69 77 83 78 72 69 68 64 62 59 62 63 63 66 67 69 67 76 82 79 80 87 80 69 67 64 65
56 62 55 52 55 52 58 56 56 62 63 66 69 69 70 73 75 78 80 78 74 68 64 59 58 56 58 63 63 68 72 64 72 77 83 84 81 84 87 92 92 88 73 69
60 60 60 58 60 59 66 69 69 70 72 72 74 76 77 78 80 80 80 73 68 66 60 56 55 55 60 63 62 71 70 74 76 80 81 78 82 87 87 87 88 89 89 77
60 61 63 72 70 70 74 74 78 77 78 80 81 77 74 80 84 81 73 69 67 67 62 56 58 55 60 65 66 70 70 65 69 77 78 82 83 86 85 89 95 93 88 88
86 75 68 76 77 76 75 78 80 81 82 80 76 78 83 81 79 77 70 63 61 60 59 58 56 54 58 63 66 68 70 71 68 78 80 83 90 88 87 93 95 92 92 80
77 77 81 84 87 84 77 75 78 79 81 79 83 85 85 89 82 76 70 63 60 58 58 58 56 58 60 62 64 70 72 77 78 82 80 83 86 86 91 89 85 91 89 78
67 74 79 82 80 80 82 82 82 84 87 90 93 89 86 84 84 80 72 69 68 67 58 56 60 64 65 66 67 74 80 83 82 83 84 80 89 84 83 89 92 90 91 86
61 62 64 67 72 78 73 68 71 72 74 81 85 87 86 81 75 73 72 70 62 58 58 59 64 75 80 75 66 82 85 85 85 84 86 91 92 93 93 85 84 88 92 86
65 68 70 71 67 65 70 66 73 68 71 83 86 83 79 76 73 71 75 68 58 61 60 60 65 67 75 70 69 86 84 87 89 92 95 96 96 92 92 94 92 91 89 88
61 65 66 69 69 65 68 70 74 70 72 79 80 82 88 83 77 76 68 69 66 67 66 63 68 73 74 67 78 85 89 90 93 95 97 95 94 93 94 96 97 96 95 97
59 64 66 69 68 63 75 77 75 73 73 75 77 78 82 76 77 84 82 72 68 70 74 69 75 78 73 73 81 84 88 90 92 93 94 95 92 92 96 97 97 96 99 97
60 62 67 70 79 86 81 66 79 83 82 77 77 77 80 86 82 77 72 72 77 78 72 71 78 79 71 79 86 88 89 90 92 94 94 86 92 95 98 98 99 98 98 95
65 68 73 78 80 73 72 74 82 84 88 86 84 82 84 77 76 81 77 75 73 75 76 72 83 86 74 78 88 88 90 91 93 95 94 95 96 97 97 98 97 98 97 98
70 68 64 66 67 68 68 74 80 71 88 84 76 75 80 81 78 77 89 77 77 74 82 85 90 91 77 80 88 87 90 91 91 90 94 93 96 97 97 97 98 98 97 98
66 65 68 74 79 83 82 80 85 81 77 79 76 73 82 77 85 84 79 80 85 90 95 96 92 93 79 88 88 86 88 88 89 92 92 95 97 97 97 97 98 97 98 98

GFSNGP_sfc_rhum_123.txt.gz
RH
85 79 75 68 67 74 90 78 86 50 60 39 37 44 45 46 48 52 55 70 86 86 87 89 91 92 93 90 78 66 59 59 57 49 48 51 55 60 63 64 66 69 70 71
98 83 86 88 80 78 73 66 69 65 64 43 40 42 54 56 55 52 51 54 69 86 88 90 87 86 90 88 76 60 58 58 55 50 49 54 60 63 65 68 71 72 73 76
91 84 81 75 64 66 76 80 72 79 56 43 50 51 53 50 50 50 50 52 61 74 85 85 84 82 90 85 70 59 57 55 53 50 52 57 61 64 67 72 76 76 76 77
97 81 58 41 50 52 59 59 64 60 55 48 46 49 50 52 49 48 53 57 62 71 84 88 85 87 83 76 62 59 60 57 56 55 57 62 64 65 70 74 78 78 79 80
94 98 63 45 59 60 58 44 48 51 46 47 51 59 53 48 52 53 58 58 62 66 71 81 87 80 73 72 66 64 63 61 59 60 62 64 64 67 72 77 79 79 79 83
93 95 64 34 51 52 45 49 39 47 44 42 64 56 44 44 54 59 62 64 64 66 72 79 83 77 72 70 66 64 66 64 62 64 64 67 67 72 72 78 73 76 74 78
90 93 77 57 49 47 51 29 38 45 42 45 54 46 40 52 54 59 62 62 66 72 74 74 79 73 74 72 67 66 67 66 66 66 67 68 71 74 75 78 75 81 77 81
89 97 90 56 58 49 41 45 42 42 43 46 52 51 51 52 56 57 61 63 70 77 76 77 75 74 77 70 70 68 68 67 68 68 58 58 70 74 76 81 82 85 85 83
79 73 53 58 53 48 52 50 49 45 40 44 48 49 47 52 54 57 60 66 77 80 78 77 76 73 73 67 66 68 66 66 65 62 60 62 70 73 76 81 83 82 74 82
61 48 52 46 47 49 46 51 46 47 51 49 48 46 55 53 57 62 65 69 80 84 83 78 72 69 68 62 64 64 65 65 64 64 66 70 66 65 74 80 84 76 77 83
65 46 46 44 45 44 44 45 48 47 53 55 57 56 56 55 62 64 68 73 82 87 86 78 70 66 63 59 57 60 59 60 62 63 68 74 69 72 68 78 83 83 87 89
67 54 58 51 46 48 54 53 54 55 51 49 59 59 61 66 67 70 73 77 81 86 88 81 70 66 60 60 58 56 55 56 62 65 71 70 75 76 68 68 66 66 67 72
62 60 62 57 55 58 62 55 54 58 60 60 56 65 72 71 73 71 77 81 84 85 85 81 73 68 59 60 62 58 56 59 62 63 70 74 76 78 83 74 70 70 67 65
63 70 62 62 57 55 59 62 65 68 70 71 72 72 74 75 76 78 80 76 80 84 82 77 68 62 59 61 60 59 61 58 67 71 75 78 78 77 80 86 89 87 72 70
68 69 67 62 65 68 72 78 80 78 79 77 77 79 82 84 82 78 79 86 83 78 75 68 63 62 59 59 57 61 63 69 74 75 79 77 75 79 84 83 85 86 89 78
65 68 70 78 77 82 84 79 82 81 82 81 82 80 77 80 85 87 85 79 75 73 68 61 61 59 61 60 61 64 65 63 68 71 74 76 79 81 82 85 89 91 90 88
86 61 60 69 70 78 81 79 81 81 82 81 77 80 85 86 86 82 78 72 69 67 65 65 62 59 62 63 63 68 78 70 68 72 76 77 78 82 83 89 91 90 88 79
69 71 75 80 86 80 72 68 76 81 81 77 81 86 87 91 87 84 82 76 64 62 61 60 61 61 61 63 63 74 72 70 70 78 79 80 80 80 84 87 86 87 88 84
66 60 54 56 62 70 76 74 72 81 79 84 85 81 82 83 84 85 83 77 74 71 59 60 66 68 65 65 64 73 78 76 73 75 77 75 79 84 86 84 85 88 90 91
64 61 62 66 64 74 66 62 64 67 63 73 84 86 81 76 81 83 86 78 68 62 63 64 69 72 67 69 65 81 78 76 74 76 80 83 87 89 87 84 85 87 90 92
76 75 73 75 67 66 72 68 68 68 64 74 83 75 73 70 79 84 88 81 64 65 63 65 68 67 70 74 69 83 77 78 79 83 86 85 90 89 90 89 85 87 91 92
81 76 67 78 74 65 64 68 72 72 70 73 73 80 82 82 82 86 78 75 67 70 71 67 64 67 73 72 75 80 84 81 83 87 90 90 90 91 90 89 91 92 94 97
54 58 57 62 63 64 66 71 74 71 72 74 76 76 78 74 74 91 85 76 75 73 81 79 73 71 69 72 78 79 85 84 86 88 88 89 89 91 92 93 94 94 97 98
56 54 59 62 70 80 84 73 73 73 75 77 80 78 80 82 81 85 78 73 77 79 78 79 76 76 75 79 82 83 83 84 85 87 87 85 91 93 94 94 95 96 98 94
63 63 68 75 78 70 70 73 78 83 85 82 84 82 82 83 85 76 90 85 78 83 85 78 77 76 88 84 83 86 86 85 86 90 90 92 95 95 93 95 95 96 97 97
64 64 62 64 69 71 72 75 80 79 82 84 81 81 82 86 88 83 85 86 86 79 81 82 80 78 92 90 84 86 90 90 85 87 91 92 93 93 93 94 95 96 98 98
66 66 67 67 65 68 75 85 88 86 82 85 86 80 83 84 91 86 86 94 90 88 83 85 80 86 93 96 94 94 96 92 86 89 92 93 93 92 93 95 95 97 97 98

GFSNGP_sfc_rhum_126.txt.gz
RH
83 77 72 65 65 82 92 77 80 47 59 38 36 40 41 48 48 54 54 53 58 63 82 91 91 88 90 91 92 85 77 69 63 57 50 52 56 60 63 66 67 71 72 72
97 84 89 91 83 78 70 70 80 73 71 47 44 45 52 54 58 55 54 53 52 58 76 88 91 90 88 90 91 83 74 64 62 58 52 56 59 63 65 67 72 73 74 76
89 83 82 72 68 69 84 85 72 78 58 49 53 50 51 54 54 54 52 50 50 53 64 81 90 90 91 89 91 83 72 62 60 57 55 59 61 64 64 68 77 76 77 79
97 82 59 39 58 62 70 64 73 67 62 54 50 54 50 54 54 52 51 50 52 61 68 78 87 91 90 92 92 82 73 62 61 59 58 63 66 65 68 72 77 78 79 82
94 99 64 38 64 63 61 45 51 55 55 55 54 58 47 39 54 53 51 51 58 64 70 75 80 87 92 93 89 82 74 63 62 61 62 65 66 67 70 74 78 78 76 83
94 95 61 35 57 56 46 42 41 54 48 49 48 47 39 39 44 50 58 63 66 67 72 76 76 84 89 89 84 78 72 64 63 63 62 67 66 70 72 77 69 74 70 79
93 92 79 60 53 55 59 44 40 45 41 46 53 45 37 46 48 51 54 57 65 71 72 72 81 84 86 87 82 74 72 69 67 64 64 67 70 74 76 76 73 79 74 80
87 91 87 60 60 50 40 49 46 48 49 51 49 47 49 47 50 54 59 60 62 73 76 78 80 81 83 85 77 72 71 69 69 68 58 58 67 72 74 80 82 80 82 82
79 72 55 60 55 53 58 59 56 60 50 53 56 54 50 53 51 50 55 60 66 77 79 82 82 83 81 81 73 71 69 67 66 65 60 59 68 70 70 76 80 77 70 79
62 52 59 50 50 53 52 54 49 49 51 53 56 54 55 54 54 57 63 66 71 80 83 84 84 79 79 74 71 68 67 66 63 61 59 63 60 60 68 74 76 72 72 77
71 52 54 53 50 50 50 52 58 60 62 59 59 59 58 57 58 64 70 73 76 80 84 83 85 78 74 68 66 66 62 61 60 56 62 63 70 69 63 70 72 73 77 81
74 66 67 63 53 52 60 60 58 62 66 66 70 68 64 64 66 73 75 79 81 82 87 85 86 80 71 66 62 62 61 57 58 57 62 71 75 71 68 68 67 68 67 73
61 65 68 65 63 66 63 64 66 70 71 77 70 74 76 77 76 75 80 82 84 84 84 86 88 82 70 66 64 61 59 55 55 58 63 72 75 74 75 67 64 67 69 68
70 70 60 63 59 57 65 68 72 76 76 78 78 77 79 81 82 82 82 78 81 84 88 89 87 82 70 66 60 60 60 59 58 70 73 77 74 73 74 75 80 81 70 67
60 65 63 64 68 68 73 79 78 70 74 71 74 80 81 77 77 76 78 82 87 82 80 79 79 77 66 62 58 59 57 65 68 74 80 78 74 75 75 78 82 84 85 76
70 68 62 72 70 74 77 70 73 64 63 63 70 69 73 79 81 81 82 85 86 82 80 76 72 70 67 63 59 60 58 60 78 74 74 78 76 75 79 82 84 88 88 86
79 57 55 58 57 59 64 64 77 78 72 72 72 71 76 79 83 84 80 79 78 73 73 73 70 64 63 62 59 58 63 64 67 75 78 74 76 79 79 84 85 86 86 74
69 68 71 74 74 70 69 63 65 71 77 71 77 83 85 87 80 76 76 84 85 75 67 65 68 69 67 66 64 66 70 71 72 77 74 77 77 77 81 81 82 88 85 79
67 69 71 69 68 73 74 72 73 72 74 74 79 74 73 77 78 78 80 90 90 85 68 67 69 73 69 68 66 71 76 76 70 73 78 77 80 81 81 82 84 84 85 85
73 71 71 68 66 70 60 55 62 66 65 71 72 70 71 69 71 78 85 87 79 67 75 71 75 74 70 69 68 77 77 74 74 75 76 78 82 84 85 82 85 85 87 88
79 77 75 69 65 65 74 68 68 66 64 74 77 75 74 71 70 75 88 86 70 74 75 72 75 73 72 69 69 81 80 82 78 77 82 80 84 83 85 85 84 85 82 86
75 81 79 77 78 69 55 57 65 67 70 72 74 77 80 81 78 80 78 80 68 71 83 80 73 73 70 71 75 79 80 80 79 80 84 82 86 86 89 89 90 89 88 92
50 52 57 63 64 61 62 64 65 69 75 76 78 80 81 78 77 85 84 76 82 82 82 87 78 74 72 74 80 77 81 82 81 81 81 83 84 84 87 90 92 91 93 93
50 54 61 63 68 73 75 68 70 72 75 77 78 81 84 84 82 82 83 80 81 83 84 85 85 77 74 80 83 82 89 87 84 85 84 82 87 88 91 92 92 93 92 88
61 65 69 73 74 69 66 66 70 73 76 78 83 85 86 81 92 83 84 85 82 82 87 84 81 80 82 85 83 88 95 94 85 88 88 90 92 92 92 93 92 92 94 95
63 60 58 61 64 66 69 73 78 74 74 96 94 85 83 84 84 84 86 86 90 90 90 89 92 86 84 85 90 90 94 96 90 89 91 90 90 92 92 92 92 90 94 95
68 67 67 67 65 66 70 73 75 76 94 97 92 82 84 86 86 84 86 90 91 91 92 91 92 86 89 91 93 91 92 96 96 96 95 92 90 91 91 91 91 92 94 96